<?xml version="1.0" encoding="UTF-8" standalone="no" ?>
<gpx xmlns="http://www.topografix.com/GPX/1/1" xmlns:xsi="http://www.w3.org/2001/XMLSchema-instance" xsi:schemaLocation="http://www.topografix.com/GPX/1/1 http://www.topografix.com/GPX/1/1/gpx.xsd" version="1.1" creator="VisuGPX - https://www.visugpx.com">
  <metadata>
    <name>GR52 st Dalmas-Menton</name>
    <desc><![CDATA[GR 52 dans le Mercantour
5 jours de rando sportive
Attention au manque d'eau en été (on peut marcher la journée sans voir une goutte)
Si vous aimez l'histoire prendre le temps d'une demi journée dans la vallée des Merveilles
Le retour à st Dalmas se fait facilement et pour pas cher (mois de 10euros) en train (Menthon Nice) et bus 
]]></desc>
  </metadata>
  <trk>
    <name><![CDATA[20171017105021-22F3R]]></name>
    <trkseg>
      <trkpt lat="43.98862" lon="7.401">
        <ele>1746.1</ele>
        <time>2017-08-28T06:53:49Z</time>
      </trkpt>
      <trkpt lat="43.98855" lon="7.40089">
        <ele>1744.8</ele>
        <time>2017-08-28T06:53:58Z</time>
      </trkpt>
      <trkpt lat="43.98848" lon="7.40075">
        <ele>1744.1</ele>
        <time>2017-08-28T06:54:09Z</time>
      </trkpt>
      <trkpt lat="43.9884" lon="7.40067">
        <ele>1743.3</ele>
        <time>2017-08-28T06:54:15Z</time>
      </trkpt>
      <trkpt lat="43.98832" lon="7.40058">
        <ele>1742.5</ele>
        <time>2017-08-28T06:54:24Z</time>
      </trkpt>
      <trkpt lat="43.9883" lon="7.40056">
        <ele>1742.3</ele>
        <time>2017-08-28T06:54:26Z</time>
      </trkpt>
      <trkpt lat="43.98817" lon="7.40041">
        <ele>1740.6</ele>
        <time>2017-08-28T06:54:40Z</time>
      </trkpt>
      <trkpt lat="43.98814" lon="7.40038">
        <ele>1740.3</ele>
        <time>2017-08-28T06:54:44Z</time>
      </trkpt>
      <trkpt lat="43.98807" lon="7.40031">
        <ele>1739.9</ele>
        <time>2017-08-28T06:54:52Z</time>
      </trkpt>
      <trkpt lat="43.98803" lon="7.40026">
        <ele>1739.4</ele>
        <time>2017-08-28T06:54:57Z</time>
      </trkpt>
      <trkpt lat="43.98801" lon="7.40025">
        <ele>1739</ele>
        <time>2017-08-28T06:54:59Z</time>
      </trkpt>
      <trkpt lat="43.988" lon="7.40027">
        <ele>1738.6</ele>
        <time>2017-08-28T06:55:01Z</time>
      </trkpt>
      <trkpt lat="43.98809" lon="7.40046">
        <ele>1738.7</ele>
        <time>2017-08-28T06:55:15Z</time>
      </trkpt>
      <trkpt lat="43.98814" lon="7.40068">
        <ele>1737.4</ele>
        <time>2017-08-28T06:55:31Z</time>
      </trkpt>
      <trkpt lat="43.98816" lon="7.40077">
        <ele>1736.9</ele>
        <time>2017-08-28T06:55:39Z</time>
      </trkpt>
      <trkpt lat="43.98821" lon="7.40097">
        <ele>1735.5</ele>
        <time>2017-08-28T06:55:55Z</time>
      </trkpt>
      <trkpt lat="43.98821" lon="7.40104">
        <ele>1734.7</ele>
        <time>2017-08-28T06:56:00Z</time>
      </trkpt>
      <trkpt lat="43.98823" lon="7.40125">
        <ele>1732.3</ele>
        <time>2017-08-28T06:56:14Z</time>
      </trkpt>
      <trkpt lat="43.98824" lon="7.40144">
        <ele>1730</ele>
        <time>2017-08-28T06:56:27Z</time>
      </trkpt>
      <trkpt lat="43.98823" lon="7.40156">
        <ele>1727.9</ele>
        <time>2017-08-28T06:56:32Z</time>
      </trkpt>
      <trkpt lat="43.98814" lon="7.40186">
        <ele>1721.4</ele>
        <time>2017-08-28T06:56:46Z</time>
      </trkpt>
      <trkpt lat="43.98804" lon="7.40204">
        <ele>1718.2</ele>
        <time>2017-08-28T06:56:58Z</time>
      </trkpt>
      <trkpt lat="43.98795" lon="7.40213">
        <ele>1714.9</ele>
        <time>2017-08-28T06:57:14Z</time>
      </trkpt>
      <trkpt lat="43.98794" lon="7.40215">
        <ele>1714.6</ele>
        <time>2017-08-28T06:57:16Z</time>
      </trkpt>
      <trkpt lat="43.98792" lon="7.40218">
        <ele>1714.2</ele>
        <time>2017-08-28T06:57:18Z</time>
      </trkpt>
      <trkpt lat="43.98783" lon="7.40229">
        <ele>1712.2</ele>
        <time>2017-08-28T06:57:32Z</time>
      </trkpt>
      <trkpt lat="43.98766" lon="7.40248">
        <ele>1709.4</ele>
        <time>2017-08-28T06:57:47Z</time>
      </trkpt>
      <trkpt lat="43.9875" lon="7.40264">
        <ele>1706.3</ele>
        <time>2017-08-28T06:58:01Z</time>
      </trkpt>
      <trkpt lat="43.98732" lon="7.40283">
        <ele>1704.7</ele>
        <time>2017-08-28T06:58:15Z</time>
      </trkpt>
      <trkpt lat="43.9872" lon="7.40307">
        <ele>1706.4</ele>
        <time>2017-08-28T06:58:29Z</time>
      </trkpt>
      <trkpt lat="43.98719" lon="7.40336">
        <ele>1710.6</ele>
        <time>2017-08-28T06:58:43Z</time>
      </trkpt>
      <trkpt lat="43.98717" lon="7.40344">
        <ele>1710.6</ele>
        <time>2017-08-28T06:58:46Z</time>
      </trkpt>
      <trkpt lat="43.98714" lon="7.40354">
        <ele>1710.2</ele>
        <time>2017-08-28T06:58:51Z</time>
      </trkpt>
      <trkpt lat="43.9871" lon="7.40379">
        <ele>1710.2</ele>
        <time>2017-08-28T06:59:03Z</time>
      </trkpt>
      <trkpt lat="43.98699" lon="7.40405">
        <ele>1705.1</ele>
        <time>2017-08-28T06:59:17Z</time>
      </trkpt>
      <trkpt lat="43.9869" lon="7.40433">
        <ele>1700.3</ele>
        <time>2017-08-28T06:59:29Z</time>
      </trkpt>
      <trkpt lat="43.9869" lon="7.40439">
        <ele>1700.7</ele>
        <time>2017-08-28T06:59:32Z</time>
      </trkpt>
      <trkpt lat="43.98689" lon="7.40475">
        <ele>1697.6</ele>
        <time>2017-08-28T06:59:47Z</time>
      </trkpt>
      <trkpt lat="43.98688" lon="7.40501">
        <ele>1696.6</ele>
        <time>2017-08-28T07:00:00Z</time>
      </trkpt>
      <trkpt lat="43.98686" lon="7.40513">
        <ele>1697.5</ele>
        <time>2017-08-28T07:00:06Z</time>
      </trkpt>
      <trkpt lat="43.98674" lon="7.40531">
        <ele>1694.3</ele>
        <time>2017-08-28T07:00:20Z</time>
      </trkpt>
      <trkpt lat="43.98659" lon="7.40552">
        <ele>1694.8</ele>
        <time>2017-08-28T07:00:36Z</time>
      </trkpt>
      <trkpt lat="43.98648" lon="7.40569">
        <ele>1698.9</ele>
        <time>2017-08-28T07:00:49Z</time>
      </trkpt>
      <trkpt lat="43.98638" lon="7.40589">
        <ele>1703.7</ele>
        <time>2017-08-28T07:01:03Z</time>
      </trkpt>
      <trkpt lat="43.98627" lon="7.40615">
        <ele>1708.7</ele>
        <time>2017-08-28T07:01:18Z</time>
      </trkpt>
      <trkpt lat="43.98625" lon="7.4063">
        <ele>1711.1</ele>
        <time>2017-08-28T07:01:25Z</time>
      </trkpt>
      <trkpt lat="43.98628" lon="7.40639">
        <ele>1714.1</ele>
        <time>2017-08-28T07:01:30Z</time>
      </trkpt>
      <trkpt lat="43.98636" lon="7.40644">
        <ele>1716.5</ele>
        <time>2017-08-28T07:01:39Z</time>
      </trkpt>
      <trkpt lat="43.9864" lon="7.40645">
        <ele>1717.6</ele>
        <time>2017-08-28T07:01:42Z</time>
      </trkpt>
      <trkpt lat="43.98648" lon="7.40654">
        <ele>1719.7</ele>
        <time>2017-08-28T07:01:52Z</time>
      </trkpt>
      <trkpt lat="43.98661" lon="7.40673">
        <ele>1720.9</ele>
        <time>2017-08-28T07:02:09Z</time>
      </trkpt>
      <trkpt lat="43.98671" lon="7.40688">
        <ele>1718.6</ele>
        <time>2017-08-28T07:02:22Z</time>
      </trkpt>
      <trkpt lat="43.98677" lon="7.40698">
        <ele>1716.9</ele>
        <time>2017-08-28T07:02:33Z</time>
      </trkpt>
      <trkpt lat="43.98685" lon="7.40704">
        <ele>1716.6</ele>
        <time>2017-08-28T07:02:42Z</time>
      </trkpt>
      <trkpt lat="43.98698" lon="7.40714">
        <ele>1716.9</ele>
        <time>2017-08-28T07:02:56Z</time>
      </trkpt>
      <trkpt lat="43.98707" lon="7.40729">
        <ele>1712.1</ele>
        <time>2017-08-28T07:03:10Z</time>
      </trkpt>
      <trkpt lat="43.9872" lon="7.40739">
        <ele>1710.8</ele>
        <time>2017-08-28T07:03:25Z</time>
      </trkpt>
      <trkpt lat="43.98739" lon="7.4075">
        <ele>1709.9</ele>
        <time>2017-08-28T07:03:41Z</time>
      </trkpt>
      <trkpt lat="43.98744" lon="7.40752">
        <ele>1709.6</ele>
        <time>2017-08-28T07:03:46Z</time>
      </trkpt>
      <trkpt lat="43.98749" lon="7.40753">
        <ele>1709.9</ele>
        <time>2017-08-28T07:03:53Z</time>
      </trkpt>
      <trkpt lat="43.98751" lon="7.40757">
        <ele>1708.7</ele>
        <time>2017-08-28T07:03:56Z</time>
      </trkpt>
      <trkpt lat="43.98762" lon="7.40781">
        <ele>1699.6</ele>
        <time>2017-08-28T07:04:11Z</time>
      </trkpt>
      <trkpt lat="43.98775" lon="7.40794">
        <ele>1699.6</ele>
        <time>2017-08-28T07:04:23Z</time>
      </trkpt>
      <trkpt lat="43.98778" lon="7.40799">
        <ele>1699.3</ele>
        <time>2017-08-28T07:04:27Z</time>
      </trkpt>
      <trkpt lat="43.98792" lon="7.40827">
        <ele>1696</ele>
        <time>2017-08-28T07:04:44Z</time>
      </trkpt>
      <trkpt lat="43.98807" lon="7.40853">
        <ele>1694.3</ele>
        <time>2017-08-28T07:05:00Z</time>
      </trkpt>
      <trkpt lat="43.9881" lon="7.40857">
        <ele>1693.7</ele>
        <time>2017-08-28T07:05:04Z</time>
      </trkpt>
      <trkpt lat="43.98823" lon="7.40878">
        <ele>1691.5</ele>
        <time>2017-08-28T07:05:19Z</time>
      </trkpt>
      <trkpt lat="43.98828" lon="7.40881">
        <ele>1692.8</ele>
        <time>2017-08-28T07:05:23Z</time>
      </trkpt>
      <trkpt lat="43.98849" lon="7.40894">
        <ele>1696.8</ele>
        <time>2017-08-28T07:05:37Z</time>
      </trkpt>
      <trkpt lat="43.98851" lon="7.40898">
        <ele>1696.7</ele>
        <time>2017-08-28T07:05:40Z</time>
      </trkpt>
      <trkpt lat="43.98858" lon="7.40908">
        <ele>1696.5</ele>
        <time>2017-08-28T07:05:48Z</time>
      </trkpt>
      <trkpt lat="43.9886" lon="7.4092">
        <ele>1694.1</ele>
        <time>2017-08-28T07:05:57Z</time>
      </trkpt>
      <trkpt lat="43.9886" lon="7.4095">
        <ele>1690.8</ele>
        <time>2017-08-28T07:06:14Z</time>
      </trkpt>
      <trkpt lat="43.98865" lon="7.40972">
        <ele>1695.1</ele>
        <time>2017-08-28T07:06:31Z</time>
      </trkpt>
      <trkpt lat="43.98873" lon="7.40997">
        <ele>1701.3</ele>
        <time>2017-08-28T07:06:47Z</time>
      </trkpt>
      <trkpt lat="43.9888" lon="7.41026">
        <ele>1704.9</ele>
        <time>2017-08-28T07:07:03Z</time>
      </trkpt>
      <trkpt lat="43.98879" lon="7.41051">
        <ele>1700.7</ele>
        <time>2017-08-28T07:07:18Z</time>
      </trkpt>
      <trkpt lat="43.9889" lon="7.41072">
        <ele>1700.1</ele>
        <time>2017-08-28T07:07:34Z</time>
      </trkpt>
      <trkpt lat="43.98896" lon="7.41077">
        <ele>1700.7</ele>
        <time>2017-08-28T07:07:41Z</time>
      </trkpt>
      <trkpt lat="43.98897" lon="7.41078">
        <ele>1700.8</ele>
        <time>2017-08-28T07:07:43Z</time>
      </trkpt>
      <trkpt lat="43.98909" lon="7.41094">
        <ele>1700</ele>
        <time>2017-08-28T07:07:57Z</time>
      </trkpt>
      <trkpt lat="43.98912" lon="7.41097">
        <ele>1699.8</ele>
        <time>2017-08-28T07:08:00Z</time>
      </trkpt>
      <trkpt lat="43.98923" lon="7.41112">
        <ele>1699</ele>
        <time>2017-08-28T07:08:11Z</time>
      </trkpt>
      <trkpt lat="43.98938" lon="7.41137">
        <ele>1696</ele>
        <time>2017-08-28T07:08:27Z</time>
      </trkpt>
      <trkpt lat="43.98951" lon="7.41159">
        <ele>1694.4</ele>
        <time>2017-08-28T07:08:43Z</time>
      </trkpt>
      <trkpt lat="43.98966" lon="7.41183">
        <ele>1692.4</ele>
        <time>2017-08-28T07:09:01Z</time>
      </trkpt>
      <trkpt lat="43.98969" lon="7.41184">
        <ele>1692.8</ele>
        <time>2017-08-28T07:09:03Z</time>
      </trkpt>
      <trkpt lat="43.9898" lon="7.4118">
        <ele>1695.1</ele>
        <time>2017-08-28T07:09:12Z</time>
      </trkpt>
      <trkpt lat="43.9899" lon="7.4118">
        <ele>1695.6</ele>
        <time>2017-08-28T07:09:20Z</time>
      </trkpt>
      <trkpt lat="43.98993" lon="7.41177">
        <ele>1696.8</ele>
        <time>2017-08-28T07:09:24Z</time>
      </trkpt>
      <trkpt lat="43.98997" lon="7.41179">
        <ele>1696.5</ele>
        <time>2017-08-28T07:09:29Z</time>
      </trkpt>
      <trkpt lat="43.99012" lon="7.41191">
        <ele>1693.1</ele>
        <time>2017-08-28T07:09:47Z</time>
      </trkpt>
      <trkpt lat="43.99023" lon="7.41194">
        <ele>1692.9</ele>
        <time>2017-08-28T07:10:02Z</time>
      </trkpt>
      <trkpt lat="43.99029" lon="7.41193">
        <ele>1694</ele>
        <time>2017-08-28T07:10:07Z</time>
      </trkpt>
      <trkpt lat="43.99047" lon="7.41199">
        <ele>1696.1</ele>
        <time>2017-08-28T07:10:21Z</time>
      </trkpt>
      <trkpt lat="43.99061" lon="7.41222">
        <ele>1697</ele>
        <time>2017-08-28T07:10:37Z</time>
      </trkpt>
      <trkpt lat="43.9906" lon="7.4124">
        <ele>1694.9</ele>
        <time>2017-08-28T07:10:49Z</time>
      </trkpt>
      <trkpt lat="43.99062" lon="7.41275">
        <ele>1693.7</ele>
        <time>2017-08-28T07:11:08Z</time>
      </trkpt>
      <trkpt lat="43.99064" lon="7.41285">
        <ele>1693</ele>
        <time>2017-08-28T07:11:13Z</time>
      </trkpt>
      <trkpt lat="43.99067" lon="7.41292">
        <ele>1693.3</ele>
        <time>2017-08-28T07:11:18Z</time>
      </trkpt>
      <trkpt lat="43.99076" lon="7.41316">
        <ele>1689.9</ele>
        <time>2017-08-28T07:11:32Z</time>
      </trkpt>
      <trkpt lat="43.99081" lon="7.41333">
        <ele>1685.2</ele>
        <time>2017-08-28T07:11:42Z</time>
      </trkpt>
      <trkpt lat="43.99083" lon="7.41336">
        <ele>1685.1</ele>
        <time>2017-08-28T07:11:44Z</time>
      </trkpt>
      <trkpt lat="43.99089" lon="7.41344">
        <ele>1686.5</ele>
        <time>2017-08-28T07:11:50Z</time>
      </trkpt>
      <trkpt lat="43.99097" lon="7.41356">
        <ele>1689.2</ele>
        <time>2017-08-28T07:12:01Z</time>
      </trkpt>
      <trkpt lat="43.99102" lon="7.41366">
        <ele>1690.2</ele>
        <time>2017-08-28T07:12:08Z</time>
      </trkpt>
      <trkpt lat="43.99104" lon="7.41375">
        <ele>1689.9</ele>
        <time>2017-08-28T07:12:14Z</time>
      </trkpt>
      <trkpt lat="43.9912" lon="7.4139">
        <ele>1696.5</ele>
        <time>2017-08-28T07:12:30Z</time>
      </trkpt>
      <trkpt lat="43.99121" lon="7.41391">
        <ele>1696.8</ele>
        <time>2017-08-28T07:12:31Z</time>
      </trkpt>
      <trkpt lat="43.99138" lon="7.41401">
        <ele>1701.6</ele>
        <time>2017-08-28T07:12:46Z</time>
      </trkpt>
      <trkpt lat="43.99155" lon="7.41403">
        <ele>1698.9</ele>
        <time>2017-08-28T07:12:58Z</time>
      </trkpt>
      <trkpt lat="43.99175" lon="7.41404">
        <ele>1696.3</ele>
        <time>2017-08-28T07:13:12Z</time>
      </trkpt>
      <trkpt lat="43.99188" lon="7.41399">
        <ele>1696.9</ele>
        <time>2017-08-28T07:13:21Z</time>
      </trkpt>
      <trkpt lat="43.99203" lon="7.41403">
        <ele>1693.2</ele>
        <time>2017-08-28T07:13:33Z</time>
      </trkpt>
      <trkpt lat="43.99219" lon="7.41399">
        <ele>1693.7</ele>
        <time>2017-08-28T07:13:46Z</time>
      </trkpt>
      <trkpt lat="43.99221" lon="7.41399">
        <ele>1693.7</ele>
        <time>2017-08-28T07:13:48Z</time>
      </trkpt>
      <trkpt lat="43.99229" lon="7.41399">
        <ele>1694</ele>
        <time>2017-08-28T07:13:55Z</time>
      </trkpt>
      <trkpt lat="43.99231" lon="7.41399">
        <ele>1693.8</ele>
        <time>2017-08-28T07:13:58Z</time>
      </trkpt>
      <trkpt lat="43.99241" lon="7.414">
        <ele>1693.9</ele>
        <time>2017-08-28T07:14:07Z</time>
      </trkpt>
      <trkpt lat="43.99246" lon="7.41401">
        <ele>1693.9</ele>
        <time>2017-08-28T07:14:12Z</time>
      </trkpt>
      <trkpt lat="43.99251" lon="7.41402">
        <ele>1694.4</ele>
        <time>2017-08-28T07:14:16Z</time>
      </trkpt>
      <trkpt lat="43.99262" lon="7.41407">
        <ele>1696.7</ele>
        <time>2017-08-28T07:14:30Z</time>
      </trkpt>
      <trkpt lat="43.99263" lon="7.41417">
        <ele>1695.8</ele>
        <time>2017-08-28T07:14:42Z</time>
      </trkpt>
      <trkpt lat="43.99263" lon="7.41428">
        <ele>1696.9</ele>
        <time>2017-08-28T07:14:57Z</time>
      </trkpt>
      <trkpt lat="43.9926" lon="7.41439">
        <ele>1697.2</ele>
        <time>2017-08-28T07:15:10Z</time>
      </trkpt>
      <trkpt lat="43.99261" lon="7.41459">
        <ele>1701.4</ele>
        <time>2017-08-28T07:15:24Z</time>
      </trkpt>
      <trkpt lat="43.99261" lon="7.41462">
        <ele>1702.3</ele>
        <time>2017-08-28T07:15:26Z</time>
      </trkpt>
      <trkpt lat="43.9926" lon="7.41476">
        <ele>1704.5</ele>
        <time>2017-08-28T07:15:40Z</time>
      </trkpt>
      <trkpt lat="43.9926" lon="7.4148">
        <ele>1705.4</ele>
        <time>2017-08-28T07:15:58Z</time>
      </trkpt>
      <trkpt lat="43.99257" lon="7.41497">
        <ele>1706.9</ele>
        <time>2017-08-28T07:16:17Z</time>
      </trkpt>
      <trkpt lat="43.99255" lon="7.41503">
        <ele>1706.8</ele>
        <time>2017-08-28T07:16:29Z</time>
      </trkpt>
      <trkpt lat="43.99255" lon="7.41503">
        <ele>1706.8</ele>
        <time>2017-08-28T07:17:01Z</time>
      </trkpt>
      <trkpt lat="43.99255" lon="7.41502">
        <ele>1706.8</ele>
        <time>2017-08-28T07:17:36Z</time>
      </trkpt>
      <trkpt lat="43.99255" lon="7.415">
        <ele>1706.7</ele>
        <time>2017-08-28T07:18:13Z</time>
      </trkpt>
      <trkpt lat="43.99257" lon="7.41504">
        <ele>1708.3</ele>
        <time>2017-08-28T07:18:46Z</time>
      </trkpt>
      <trkpt lat="43.99257" lon="7.41525">
        <ele>1711.7</ele>
        <time>2017-08-28T07:19:00Z</time>
      </trkpt>
      <trkpt lat="43.99263" lon="7.41546">
        <ele>1714.4</ele>
        <time>2017-08-28T07:19:14Z</time>
      </trkpt>
      <trkpt lat="43.99269" lon="7.41573">
        <ele>1714.8</ele>
        <time>2017-08-28T07:19:32Z</time>
      </trkpt>
      <trkpt lat="43.99281" lon="7.416">
        <ele>1716.1</ele>
        <time>2017-08-28T07:19:51Z</time>
      </trkpt>
      <trkpt lat="43.99285" lon="7.41605">
        <ele>1717.8</ele>
        <time>2017-08-28T07:19:56Z</time>
      </trkpt>
      <trkpt lat="43.99297" lon="7.41626">
        <ele>1716.1</ele>
        <time>2017-08-28T07:20:12Z</time>
      </trkpt>
      <trkpt lat="43.99308" lon="7.41644">
        <ele>1715.1</ele>
        <time>2017-08-28T07:20:26Z</time>
      </trkpt>
      <trkpt lat="43.99323" lon="7.4166">
        <ele>1719.1</ele>
        <time>2017-08-28T07:20:39Z</time>
      </trkpt>
      <trkpt lat="43.99328" lon="7.41667">
        <ele>1720.5</ele>
        <time>2017-08-28T07:20:44Z</time>
      </trkpt>
      <trkpt lat="43.99331" lon="7.41682">
        <ele>1718.9</ele>
        <time>2017-08-28T07:20:51Z</time>
      </trkpt>
      <trkpt lat="43.99334" lon="7.41702">
        <ele>1717.9</ele>
        <time>2017-08-28T07:21:05Z</time>
      </trkpt>
      <trkpt lat="43.99335" lon="7.41704">
        <ele>1718.5</ele>
        <time>2017-08-28T07:21:07Z</time>
      </trkpt>
      <trkpt lat="43.99324" lon="7.41723">
        <ele>1712.8</ele>
        <time>2017-08-28T07:21:22Z</time>
      </trkpt>
      <trkpt lat="43.99326" lon="7.41749">
        <ele>1719.4</ele>
        <time>2017-08-28T07:21:38Z</time>
      </trkpt>
      <trkpt lat="43.99331" lon="7.41771">
        <ele>1728.3</ele>
        <time>2017-08-28T07:21:52Z</time>
      </trkpt>
      <trkpt lat="43.99331" lon="7.41774">
        <ele>1728.9</ele>
        <time>2017-08-28T07:21:55Z</time>
      </trkpt>
      <trkpt lat="43.99327" lon="7.41781">
        <ele>1729.5</ele>
        <time>2017-08-28T07:22:10Z</time>
      </trkpt>
      <trkpt lat="43.99327" lon="7.41789">
        <ele>1732.5</ele>
        <time>2017-08-28T07:22:21Z</time>
      </trkpt>
      <trkpt lat="43.99327" lon="7.41789">
        <ele>1732.5</ele>
        <time>2017-08-28T07:22:26Z</time>
      </trkpt>
      <trkpt lat="43.99321" lon="7.41785">
        <ele>1729.1</ele>
        <time>2017-08-28T07:22:37Z</time>
      </trkpt>
      <trkpt lat="43.99307" lon="7.41794">
        <ele>1729.2</ele>
        <time>2017-08-28T07:22:52Z</time>
      </trkpt>
      <trkpt lat="43.99291" lon="7.41798">
        <ele>1730</ele>
        <time>2017-08-28T07:23:07Z</time>
      </trkpt>
      <trkpt lat="43.99283" lon="7.41798">
        <ele>1729.5</ele>
        <time>2017-08-28T07:23:16Z</time>
      </trkpt>
      <trkpt lat="43.99279" lon="7.41799">
        <ele>1730.1</ele>
        <time>2017-08-28T07:23:21Z</time>
      </trkpt>
      <trkpt lat="43.9927" lon="7.41806">
        <ele>1734</ele>
        <time>2017-08-28T07:23:37Z</time>
      </trkpt>
      <trkpt lat="43.99261" lon="7.4181">
        <ele>1735.9</ele>
        <time>2017-08-28T07:23:50Z</time>
      </trkpt>
      <trkpt lat="43.99253" lon="7.41825">
        <ele>1742.8</ele>
        <time>2017-08-28T07:24:04Z</time>
      </trkpt>
      <trkpt lat="43.99243" lon="7.41833">
        <ele>1744.9</ele>
        <time>2017-08-28T07:24:18Z</time>
      </trkpt>
      <trkpt lat="43.99237" lon="7.4185">
        <ele>1750</ele>
        <time>2017-08-28T07:24:31Z</time>
      </trkpt>
      <trkpt lat="43.99233" lon="7.41856">
        <ele>1751.3</ele>
        <time>2017-08-28T07:24:36Z</time>
      </trkpt>
      <trkpt lat="43.99225" lon="7.41879">
        <ele>1757.3</ele>
        <time>2017-08-28T07:24:53Z</time>
      </trkpt>
      <trkpt lat="43.99218" lon="7.41901">
        <ele>1763.3</ele>
        <time>2017-08-28T07:25:06Z</time>
      </trkpt>
      <trkpt lat="43.99217" lon="7.41904">
        <ele>1764.2</ele>
        <time>2017-08-28T07:25:08Z</time>
      </trkpt>
      <trkpt lat="43.99213" lon="7.41906">
        <ele>1763.9</ele>
        <time>2017-08-28T07:25:12Z</time>
      </trkpt>
      <trkpt lat="43.9921" lon="7.41907">
        <ele>1763.6</ele>
        <time>2017-08-28T07:25:14Z</time>
      </trkpt>
      <trkpt lat="43.99202" lon="7.41917">
        <ele>1765.1</ele>
        <time>2017-08-28T07:25:21Z</time>
      </trkpt>
      <trkpt lat="43.99179" lon="7.41921">
        <ele>1760.4</ele>
        <time>2017-08-28T07:25:37Z</time>
      </trkpt>
      <trkpt lat="43.99176" lon="7.4192">
        <ele>1759.4</ele>
        <time>2017-08-28T07:25:39Z</time>
      </trkpt>
      <trkpt lat="43.9916" lon="7.41933">
        <ele>1761.1</ele>
        <time>2017-08-28T07:25:53Z</time>
      </trkpt>
      <trkpt lat="43.99148" lon="7.41949">
        <ele>1765.1</ele>
        <time>2017-08-28T07:26:07Z</time>
      </trkpt>
      <trkpt lat="43.99134" lon="7.41979">
        <ele>1772</ele>
        <time>2017-08-28T07:26:24Z</time>
      </trkpt>
      <trkpt lat="43.99128" lon="7.42006">
        <ele>1775</ele>
        <time>2017-08-28T07:26:40Z</time>
      </trkpt>
      <trkpt lat="43.99134" lon="7.42036">
        <ele>1777.5</ele>
        <time>2017-08-28T07:26:57Z</time>
      </trkpt>
      <trkpt lat="43.99142" lon="7.42063">
        <ele>1777.3</ele>
        <time>2017-08-28T07:27:12Z</time>
      </trkpt>
      <trkpt lat="43.99148" lon="7.42089">
        <ele>1773.5</ele>
        <time>2017-08-28T07:27:26Z</time>
      </trkpt>
      <trkpt lat="43.9915" lon="7.42094">
        <ele>1773.1</ele>
        <time>2017-08-28T07:27:29Z</time>
      </trkpt>
      <trkpt lat="43.99158" lon="7.42124">
        <ele>1769.9</ele>
        <time>2017-08-28T07:27:44Z</time>
      </trkpt>
      <trkpt lat="43.99162" lon="7.42155">
        <ele>1766.6</ele>
        <time>2017-08-28T07:28:00Z</time>
      </trkpt>
      <trkpt lat="43.99168" lon="7.4219">
        <ele>1764.5</ele>
        <time>2017-08-28T07:28:17Z</time>
      </trkpt>
      <trkpt lat="43.99169" lon="7.422">
        <ele>1763.9</ele>
        <time>2017-08-28T07:28:22Z</time>
      </trkpt>
      <trkpt lat="43.99174" lon="7.42212">
        <ele>1765.1</ele>
        <time>2017-08-28T07:28:29Z</time>
      </trkpt>
      <trkpt lat="43.99182" lon="7.42239">
        <ele>1764.3</ele>
        <time>2017-08-28T07:28:45Z</time>
      </trkpt>
      <trkpt lat="43.99198" lon="7.42267">
        <ele>1767.2</ele>
        <time>2017-08-28T07:29:04Z</time>
      </trkpt>
      <trkpt lat="43.99213" lon="7.42286">
        <ele>1769.9</ele>
        <time>2017-08-28T07:29:19Z</time>
      </trkpt>
      <trkpt lat="43.99219" lon="7.42295">
        <ele>1770.3</ele>
        <time>2017-08-28T07:29:26Z</time>
      </trkpt>
      <trkpt lat="43.99229" lon="7.42314">
        <ele>1769.4</ele>
        <time>2017-08-28T07:29:39Z</time>
      </trkpt>
      <trkpt lat="43.99232" lon="7.4232">
        <ele>1769.9</ele>
        <time>2017-08-28T07:29:43Z</time>
      </trkpt>
      <trkpt lat="43.99242" lon="7.42342">
        <ele>1769.2</ele>
        <time>2017-08-28T07:29:56Z</time>
      </trkpt>
      <trkpt lat="43.99246" lon="7.42351">
        <ele>1769.3</ele>
        <time>2017-08-28T07:30:02Z</time>
      </trkpt>
      <trkpt lat="43.99252" lon="7.42363">
        <ele>1769.6</ele>
        <time>2017-08-28T07:30:11Z</time>
      </trkpt>
      <trkpt lat="43.99241" lon="7.42332">
        <ele>1771.3</ele>
        <time>2017-08-28T07:30:21Z</time>
      </trkpt>
      <trkpt lat="43.99225" lon="7.42301">
        <ele>1771</ele>
        <time>2017-08-28T07:30:34Z</time>
      </trkpt>
      <trkpt lat="43.99224" lon="7.42301">
        <ele>1770.6</ele>
        <time>2017-08-28T07:30:51Z</time>
      </trkpt>
      <trkpt lat="43.99225" lon="7.42301">
        <ele>1771</ele>
        <time>2017-08-28T07:31:18Z</time>
      </trkpt>
      <trkpt lat="43.99225" lon="7.42301">
        <ele>1771</ele>
        <time>2017-08-28T07:31:43Z</time>
      </trkpt>
      <trkpt lat="43.99225" lon="7.42302">
        <ele>1770.7</ele>
        <time>2017-08-28T07:32:07Z</time>
      </trkpt>
      <trkpt lat="43.99225" lon="7.42302">
        <ele>1770.7</ele>
        <time>2017-08-28T07:32:27Z</time>
      </trkpt>
      <trkpt lat="43.99225" lon="7.42302">
        <ele>1770.7</ele>
        <time>2017-08-28T07:32:31Z</time>
      </trkpt>
      <trkpt lat="43.99225" lon="7.42303">
        <ele>1770.7</ele>
        <time>2017-08-28T07:32:33Z</time>
      </trkpt>
      <trkpt lat="43.99234" lon="7.4232">
        <ele>1770.9</ele>
        <time>2017-08-28T07:32:46Z</time>
      </trkpt>
      <trkpt lat="43.99242" lon="7.42335">
        <ele>1771.5</ele>
        <time>2017-08-28T07:32:57Z</time>
      </trkpt>
      <trkpt lat="43.9925" lon="7.42356">
        <ele>1770.4</ele>
        <time>2017-08-28T07:33:10Z</time>
      </trkpt>
      <trkpt lat="43.99258" lon="7.42382">
        <ele>1767.7</ele>
        <time>2017-08-28T07:33:24Z</time>
      </trkpt>
      <trkpt lat="43.99268" lon="7.42398">
        <ele>1768.1</ele>
        <time>2017-08-28T07:33:35Z</time>
      </trkpt>
      <trkpt lat="43.99278" lon="7.4241">
        <ele>1769.5</ele>
        <time>2017-08-28T07:33:44Z</time>
      </trkpt>
      <trkpt lat="43.99279" lon="7.42414">
        <ele>1768.9</ele>
        <time>2017-08-28T07:33:46Z</time>
      </trkpt>
      <trkpt lat="43.99285" lon="7.42424">
        <ele>1772.2</ele>
        <time>2017-08-28T07:33:53Z</time>
      </trkpt>
      <trkpt lat="43.99281" lon="7.42431">
        <ele>1771.3</ele>
        <time>2017-08-28T07:33:58Z</time>
      </trkpt>
      <trkpt lat="43.99272" lon="7.42441">
        <ele>1769</ele>
        <time>2017-08-28T07:34:10Z</time>
      </trkpt>
      <trkpt lat="43.99257" lon="7.42454">
        <ele>1767</ele>
        <time>2017-08-28T07:34:25Z</time>
      </trkpt>
      <trkpt lat="43.99257" lon="7.42456">
        <ele>1766.9</ele>
        <time>2017-08-28T07:34:26Z</time>
      </trkpt>
      <trkpt lat="43.99251" lon="7.42471">
        <ele>1768.4</ele>
        <time>2017-08-28T07:34:34Z</time>
      </trkpt>
      <trkpt lat="43.99248" lon="7.42484">
        <ele>1766.7</ele>
        <time>2017-08-28T07:34:42Z</time>
      </trkpt>
      <trkpt lat="43.99246" lon="7.42491">
        <ele>1765.7</ele>
        <time>2017-08-28T07:34:46Z</time>
      </trkpt>
      <trkpt lat="43.99241" lon="7.42493">
        <ele>1763.4</ele>
        <time>2017-08-28T07:34:51Z</time>
      </trkpt>
      <trkpt lat="43.9923" lon="7.42484">
        <ele>1755.5</ele>
        <time>2017-08-28T07:35:02Z</time>
      </trkpt>
      <trkpt lat="43.99217" lon="7.42492">
        <ele>1755.1</ele>
        <time>2017-08-28T07:35:15Z</time>
      </trkpt>
      <trkpt lat="43.99209" lon="7.42495">
        <ele>1758.5</ele>
        <time>2017-08-28T07:35:26Z</time>
      </trkpt>
      <trkpt lat="43.99202" lon="7.42495">
        <ele>1760</ele>
        <time>2017-08-28T07:35:32Z</time>
      </trkpt>
      <trkpt lat="43.99183" lon="7.42487">
        <ele>1758.1</ele>
        <time>2017-08-28T07:35:50Z</time>
      </trkpt>
      <trkpt lat="43.99164" lon="7.42497">
        <ele>1761.6</ele>
        <time>2017-08-28T07:36:06Z</time>
      </trkpt>
      <trkpt lat="43.99147" lon="7.4251">
        <ele>1758.5</ele>
        <time>2017-08-28T07:36:21Z</time>
      </trkpt>
      <trkpt lat="43.9914" lon="7.42514">
        <ele>1757.1</ele>
        <time>2017-08-28T07:36:27Z</time>
      </trkpt>
      <trkpt lat="43.99138" lon="7.42522">
        <ele>1759.2</ele>
        <time>2017-08-28T07:36:31Z</time>
      </trkpt>
      <trkpt lat="43.99123" lon="7.42532">
        <ele>1755.2</ele>
        <time>2017-08-28T07:36:46Z</time>
      </trkpt>
      <trkpt lat="43.99108" lon="7.42543">
        <ele>1754.7</ele>
        <time>2017-08-28T07:37:01Z</time>
      </trkpt>
      <trkpt lat="43.99103" lon="7.42542">
        <ele>1753.9</ele>
        <time>2017-08-28T07:37:05Z</time>
      </trkpt>
      <trkpt lat="43.99086" lon="7.42537">
        <ele>1750.4</ele>
        <time>2017-08-28T07:37:20Z</time>
      </trkpt>
      <trkpt lat="43.99085" lon="7.42539">
        <ele>1751.4</ele>
        <time>2017-08-28T07:37:22Z</time>
      </trkpt>
      <trkpt lat="43.99076" lon="7.42552">
        <ele>1761</ele>
        <time>2017-08-28T07:37:37Z</time>
      </trkpt>
      <trkpt lat="43.99064" lon="7.42543">
        <ele>1759.3</ele>
        <time>2017-08-28T07:37:51Z</time>
      </trkpt>
      <trkpt lat="43.99049" lon="7.42541">
        <ele>1762.2</ele>
        <time>2017-08-28T07:38:06Z</time>
      </trkpt>
      <trkpt lat="43.99035" lon="7.4254">
        <ele>1765.8</ele>
        <time>2017-08-28T07:38:20Z</time>
      </trkpt>
      <trkpt lat="43.99016" lon="7.42544">
        <ele>1770.3</ele>
        <time>2017-08-28T07:38:37Z</time>
      </trkpt>
      <trkpt lat="43.99003" lon="7.42553">
        <ele>1776.3</ele>
        <time>2017-08-28T07:38:52Z</time>
      </trkpt>
      <trkpt lat="43.98984" lon="7.42575">
        <ele>1779.6</ele>
        <time>2017-08-28T07:39:10Z</time>
      </trkpt>
      <trkpt lat="43.98974" lon="7.42595">
        <ele>1781.8</ele>
        <time>2017-08-28T07:39:24Z</time>
      </trkpt>
      <trkpt lat="43.98969" lon="7.4262">
        <ele>1784.7</ele>
        <time>2017-08-28T07:39:40Z</time>
      </trkpt>
      <trkpt lat="43.98963" lon="7.42644">
        <ele>1785</ele>
        <time>2017-08-28T07:39:55Z</time>
      </trkpt>
      <trkpt lat="43.98954" lon="7.42662">
        <ele>1781.7</ele>
        <time>2017-08-28T07:40:09Z</time>
      </trkpt>
      <trkpt lat="43.98947" lon="7.42674">
        <ele>1779.7</ele>
        <time>2017-08-28T07:40:18Z</time>
      </trkpt>
      <trkpt lat="43.98941" lon="7.42683">
        <ele>1779.2</ele>
        <time>2017-08-28T07:40:26Z</time>
      </trkpt>
      <trkpt lat="43.9894" lon="7.42689">
        <ele>1780.4</ele>
        <time>2017-08-28T07:40:30Z</time>
      </trkpt>
      <trkpt lat="43.98926" lon="7.42707">
        <ele>1776.3</ele>
        <time>2017-08-28T07:40:45Z</time>
      </trkpt>
      <trkpt lat="43.98925" lon="7.4271">
        <ele>1776.2</ele>
        <time>2017-08-28T07:40:47Z</time>
      </trkpt>
      <trkpt lat="43.98913" lon="7.42729">
        <ele>1773.2</ele>
        <time>2017-08-28T07:41:02Z</time>
      </trkpt>
      <trkpt lat="43.98907" lon="7.42737">
        <ele>1770.7</ele>
        <time>2017-08-28T07:41:10Z</time>
      </trkpt>
      <trkpt lat="43.98904" lon="7.42743">
        <ele>1769.6</ele>
        <time>2017-08-28T07:41:14Z</time>
      </trkpt>
      <trkpt lat="43.98902" lon="7.42746">
        <ele>1769.1</ele>
        <time>2017-08-28T07:41:16Z</time>
      </trkpt>
      <trkpt lat="43.98898" lon="7.42773">
        <ele>1766.9</ele>
        <time>2017-08-28T07:41:31Z</time>
      </trkpt>
      <trkpt lat="43.989" lon="7.42787">
        <ele>1765.6</ele>
        <time>2017-08-28T07:41:40Z</time>
      </trkpt>
      <trkpt lat="43.98901" lon="7.42799">
        <ele>1763.4</ele>
        <time>2017-08-28T07:41:46Z</time>
      </trkpt>
      <trkpt lat="43.98901" lon="7.42827">
        <ele>1755.4</ele>
        <time>2017-08-28T07:42:02Z</time>
      </trkpt>
      <trkpt lat="43.98904" lon="7.42844">
        <ele>1751.1</ele>
        <time>2017-08-28T07:42:13Z</time>
      </trkpt>
      <trkpt lat="43.98904" lon="7.42845">
        <ele>1751</ele>
        <time>2017-08-28T07:42:14Z</time>
      </trkpt>
      <trkpt lat="43.98908" lon="7.42849">
        <ele>1751.2</ele>
        <time>2017-08-28T07:42:18Z</time>
      </trkpt>
      <trkpt lat="43.98916" lon="7.42861">
        <ele>1750.8</ele>
        <time>2017-08-28T07:42:29Z</time>
      </trkpt>
      <trkpt lat="43.9892" lon="7.42864">
        <ele>1752.5</ele>
        <time>2017-08-28T07:42:33Z</time>
      </trkpt>
      <trkpt lat="43.9892" lon="7.42876">
        <ele>1752.4</ele>
        <time>2017-08-28T07:42:46Z</time>
      </trkpt>
      <trkpt lat="43.98916" lon="7.42881">
        <ele>1750.6</ele>
        <time>2017-08-28T07:42:58Z</time>
      </trkpt>
      <trkpt lat="43.98912" lon="7.42882">
        <ele>1749.3</ele>
        <time>2017-08-28T07:43:02Z</time>
      </trkpt>
      <trkpt lat="43.98896" lon="7.42882">
        <ele>1743.4</ele>
        <time>2017-08-28T07:43:19Z</time>
      </trkpt>
      <trkpt lat="43.98887" lon="7.42898">
        <ele>1744.6</ele>
        <time>2017-08-28T07:43:31Z</time>
      </trkpt>
      <trkpt lat="43.98877" lon="7.4293">
        <ele>1756.9</ele>
        <time>2017-08-28T07:43:45Z</time>
      </trkpt>
      <trkpt lat="43.98868" lon="7.4293">
        <ele>1755.4</ele>
        <time>2017-08-28T07:43:54Z</time>
      </trkpt>
      <trkpt lat="43.98862" lon="7.42929">
        <ele>1753.6</ele>
        <time>2017-08-28T07:43:58Z</time>
      </trkpt>
      <trkpt lat="43.98855" lon="7.42926">
        <ele>1750.4</ele>
        <time>2017-08-28T07:44:03Z</time>
      </trkpt>
      <trkpt lat="43.9885" lon="7.42924">
        <ele>1748.8</ele>
        <time>2017-08-28T07:44:07Z</time>
      </trkpt>
      <trkpt lat="43.98827" lon="7.42927">
        <ele>1747.3</ele>
        <time>2017-08-28T07:44:24Z</time>
      </trkpt>
      <trkpt lat="43.98822" lon="7.42928">
        <ele>1747.6</ele>
        <time>2017-08-28T07:44:28Z</time>
      </trkpt>
      <trkpt lat="43.98818" lon="7.4293">
        <ele>1749.1</ele>
        <time>2017-08-28T07:44:32Z</time>
      </trkpt>
      <trkpt lat="43.98803" lon="7.42932">
        <ele>1750.4</ele>
        <time>2017-08-28T07:44:46Z</time>
      </trkpt>
      <trkpt lat="43.98787" lon="7.42929">
        <ele>1749.6</ele>
        <time>2017-08-28T07:45:00Z</time>
      </trkpt>
      <trkpt lat="43.98767" lon="7.42927">
        <ele>1750.3</ele>
        <time>2017-08-28T07:45:16Z</time>
      </trkpt>
      <trkpt lat="43.98766" lon="7.42925">
        <ele>1749.6</ele>
        <time>2017-08-28T07:45:18Z</time>
      </trkpt>
      <trkpt lat="43.98759" lon="7.42921">
        <ele>1747.8</ele>
        <time>2017-08-28T07:45:24Z</time>
      </trkpt>
      <trkpt lat="43.98741" lon="7.42917">
        <ele>1749.8</ele>
        <time>2017-08-28T07:45:39Z</time>
      </trkpt>
      <trkpt lat="43.98719" lon="7.42911">
        <ele>1751.8</ele>
        <time>2017-08-28T07:45:54Z</time>
      </trkpt>
      <trkpt lat="43.98698" lon="7.42905">
        <ele>1752.8</ele>
        <time>2017-08-28T07:46:10Z</time>
      </trkpt>
      <trkpt lat="43.98684" lon="7.42903">
        <ele>1751.4</ele>
        <time>2017-08-28T07:46:21Z</time>
      </trkpt>
      <trkpt lat="43.98681" lon="7.42912">
        <ele>1752.1</ele>
        <time>2017-08-28T07:46:26Z</time>
      </trkpt>
      <trkpt lat="43.98681" lon="7.42949">
        <ele>1755.2</ele>
        <time>2017-08-28T07:46:46Z</time>
      </trkpt>
      <trkpt lat="43.98685" lon="7.42965">
        <ele>1757.5</ele>
        <time>2017-08-28T07:47:02Z</time>
      </trkpt>
      <trkpt lat="43.98686" lon="7.42976">
        <ele>1757.9</ele>
        <time>2017-08-28T07:47:09Z</time>
      </trkpt>
      <trkpt lat="43.98688" lon="7.43">
        <ele>1760.3</ele>
        <time>2017-08-28T07:47:24Z</time>
      </trkpt>
      <trkpt lat="43.98688" lon="7.43011">
        <ele>1761.7</ele>
        <time>2017-08-28T07:47:30Z</time>
      </trkpt>
      <trkpt lat="43.98681" lon="7.4304">
        <ele>1760.9</ele>
        <time>2017-08-28T07:47:48Z</time>
      </trkpt>
      <trkpt lat="43.98673" lon="7.4306">
        <ele>1759.9</ele>
        <time>2017-08-28T07:48:01Z</time>
      </trkpt>
      <trkpt lat="43.98669" lon="7.43076">
        <ele>1759.9</ele>
        <time>2017-08-28T07:48:12Z</time>
      </trkpt>
      <trkpt lat="43.98663" lon="7.43104">
        <ele>1757.9</ele>
        <time>2017-08-28T07:48:28Z</time>
      </trkpt>
      <trkpt lat="43.98663" lon="7.43105">
        <ele>1758.3</ele>
        <time>2017-08-28T07:48:29Z</time>
      </trkpt>
      <trkpt lat="43.98663" lon="7.4313">
        <ele>1756.9</ele>
        <time>2017-08-28T07:48:44Z</time>
      </trkpt>
      <trkpt lat="43.98665" lon="7.43142">
        <ele>1757.2</ele>
        <time>2017-08-28T07:48:50Z</time>
      </trkpt>
      <trkpt lat="43.98674" lon="7.43158">
        <ele>1759.9</ele>
        <time>2017-08-28T07:49:00Z</time>
      </trkpt>
      <trkpt lat="43.98676" lon="7.43166">
        <ele>1759.1</ele>
        <time>2017-08-28T07:49:05Z</time>
      </trkpt>
      <trkpt lat="43.98676" lon="7.43174">
        <ele>1758.3</ele>
        <time>2017-08-28T07:49:11Z</time>
      </trkpt>
      <trkpt lat="43.98678" lon="7.43181">
        <ele>1758.5</ele>
        <time>2017-08-28T07:49:15Z</time>
      </trkpt>
      <trkpt lat="43.98682" lon="7.43193">
        <ele>1758.5</ele>
        <time>2017-08-28T07:49:23Z</time>
      </trkpt>
      <trkpt lat="43.98686" lon="7.43203">
        <ele>1759.2</ele>
        <time>2017-08-28T07:49:31Z</time>
      </trkpt>
      <trkpt lat="43.98698" lon="7.4322">
        <ele>1762.9</ele>
        <time>2017-08-28T07:49:44Z</time>
      </trkpt>
      <trkpt lat="43.98698" lon="7.43223">
        <ele>1762.5</ele>
        <time>2017-08-28T07:49:47Z</time>
      </trkpt>
      <trkpt lat="43.98708" lon="7.43246">
        <ele>1764.2</ele>
        <time>2017-08-28T07:50:02Z</time>
      </trkpt>
      <trkpt lat="43.98709" lon="7.43265">
        <ele>1765.5</ele>
        <time>2017-08-28T07:50:16Z</time>
      </trkpt>
      <trkpt lat="43.98705" lon="7.43281">
        <ele>1765.7</ele>
        <time>2017-08-28T07:50:30Z</time>
      </trkpt>
      <trkpt lat="43.98708" lon="7.43278">
        <ele>1766.5</ele>
        <time>2017-08-28T07:50:41Z</time>
      </trkpt>
      <trkpt lat="43.98707" lon="7.43278">
        <ele>1765.9</ele>
        <time>2017-08-28T07:50:48Z</time>
      </trkpt>
      <trkpt lat="43.98701" lon="7.43289">
        <ele>1765.7</ele>
        <time>2017-08-28T07:50:55Z</time>
      </trkpt>
      <trkpt lat="43.98697" lon="7.43295">
        <ele>1765</ele>
        <time>2017-08-28T07:50:59Z</time>
      </trkpt>
      <trkpt lat="43.98691" lon="7.43309">
        <ele>1764.2</ele>
        <time>2017-08-28T07:51:08Z</time>
      </trkpt>
      <trkpt lat="43.98679" lon="7.43337">
        <ele>1764.4</ele>
        <time>2017-08-28T07:51:25Z</time>
      </trkpt>
      <trkpt lat="43.98667" lon="7.43349">
        <ele>1762.2</ele>
        <time>2017-08-28T07:51:36Z</time>
      </trkpt>
      <trkpt lat="43.98665" lon="7.43351">
        <ele>1762.2</ele>
        <time>2017-08-28T07:51:39Z</time>
      </trkpt>
      <trkpt lat="43.98647" lon="7.43367">
        <ele>1761.8</ele>
        <time>2017-08-28T07:51:55Z</time>
      </trkpt>
      <trkpt lat="43.98633" lon="7.43386">
        <ele>1765</ele>
        <time>2017-08-28T07:52:10Z</time>
      </trkpt>
      <trkpt lat="43.9863" lon="7.43388">
        <ele>1765</ele>
        <time>2017-08-28T07:52:12Z</time>
      </trkpt>
      <trkpt lat="43.98615" lon="7.4341">
        <ele>1769</ele>
        <time>2017-08-28T07:52:28Z</time>
      </trkpt>
      <trkpt lat="43.98611" lon="7.43414">
        <ele>1768.4</ele>
        <time>2017-08-28T07:52:32Z</time>
      </trkpt>
      <trkpt lat="43.98598" lon="7.43427">
        <ele>1768.5</ele>
        <time>2017-08-28T07:52:44Z</time>
      </trkpt>
      <trkpt lat="43.98594" lon="7.43428">
        <ele>1767.2</ele>
        <time>2017-08-28T07:52:47Z</time>
      </trkpt>
      <trkpt lat="43.98587" lon="7.43435">
        <ele>1766.8</ele>
        <time>2017-08-28T07:52:53Z</time>
      </trkpt>
      <trkpt lat="43.98584" lon="7.43438">
        <ele>1766.4</ele>
        <time>2017-08-28T07:52:55Z</time>
      </trkpt>
      <trkpt lat="43.98576" lon="7.43451">
        <ele>1768.4</ele>
        <time>2017-08-28T07:53:04Z</time>
      </trkpt>
      <trkpt lat="43.98573" lon="7.43456">
        <ele>1768.9</ele>
        <time>2017-08-28T07:53:08Z</time>
      </trkpt>
      <trkpt lat="43.98568" lon="7.4346">
        <ele>1768.3</ele>
        <time>2017-08-28T07:53:13Z</time>
      </trkpt>
      <trkpt lat="43.98559" lon="7.43463">
        <ele>1765.6</ele>
        <time>2017-08-28T07:53:20Z</time>
      </trkpt>
      <trkpt lat="43.9854" lon="7.43489">
        <ele>1767.7</ele>
        <time>2017-08-28T07:53:38Z</time>
      </trkpt>
      <trkpt lat="43.98527" lon="7.4351">
        <ele>1769.7</ele>
        <time>2017-08-28T07:53:52Z</time>
      </trkpt>
      <trkpt lat="43.98513" lon="7.43531">
        <ele>1772</ele>
        <time>2017-08-28T07:54:08Z</time>
      </trkpt>
      <trkpt lat="43.98498" lon="7.43545">
        <ele>1771.8</ele>
        <time>2017-08-28T07:54:23Z</time>
      </trkpt>
      <trkpt lat="43.98481" lon="7.43553">
        <ele>1769.4</ele>
        <time>2017-08-28T07:54:36Z</time>
      </trkpt>
      <trkpt lat="43.98469" lon="7.43561">
        <ele>1768</ele>
        <time>2017-08-28T07:54:46Z</time>
      </trkpt>
      <trkpt lat="43.98463" lon="7.43571">
        <ele>1768.6</ele>
        <time>2017-08-28T07:54:53Z</time>
      </trkpt>
      <trkpt lat="43.98451" lon="7.43602">
        <ele>1773.3</ele>
        <time>2017-08-28T07:55:10Z</time>
      </trkpt>
      <trkpt lat="43.98448" lon="7.4362">
        <ele>1777.3</ele>
        <time>2017-08-28T07:55:20Z</time>
      </trkpt>
      <trkpt lat="43.9843" lon="7.43639">
        <ele>1775.7</ele>
        <time>2017-08-28T07:55:37Z</time>
      </trkpt>
      <trkpt lat="43.98412" lon="7.43656">
        <ele>1774.4</ele>
        <time>2017-08-28T07:55:53Z</time>
      </trkpt>
      <trkpt lat="43.98399" lon="7.43676">
        <ele>1775.7</ele>
        <time>2017-08-28T07:56:08Z</time>
      </trkpt>
      <trkpt lat="43.98387" lon="7.43698">
        <ele>1777.1</ele>
        <time>2017-08-28T07:56:23Z</time>
      </trkpt>
      <trkpt lat="43.98377" lon="7.43723">
        <ele>1779</ele>
        <time>2017-08-28T07:56:39Z</time>
      </trkpt>
      <trkpt lat="43.98363" lon="7.43749">
        <ele>1779.2</ele>
        <time>2017-08-28T07:56:56Z</time>
      </trkpt>
      <trkpt lat="43.98348" lon="7.43772">
        <ele>1778.9</ele>
        <time>2017-08-28T07:57:12Z</time>
      </trkpt>
      <trkpt lat="43.98322" lon="7.43786">
        <ele>1777.4</ele>
        <time>2017-08-28T07:57:32Z</time>
      </trkpt>
      <trkpt lat="43.98317" lon="7.43789">
        <ele>1777.2</ele>
        <time>2017-08-28T07:57:36Z</time>
      </trkpt>
      <trkpt lat="43.98308" lon="7.43791">
        <ele>1777.1</ele>
        <time>2017-08-28T07:57:41Z</time>
      </trkpt>
      <trkpt lat="43.98294" lon="7.43794">
        <ele>1778.1</ele>
        <time>2017-08-28T07:57:57Z</time>
      </trkpt>
      <trkpt lat="43.98295" lon="7.43795">
        <ele>1777.8</ele>
        <time>2017-08-28T07:58:09Z</time>
      </trkpt>
      <trkpt lat="43.98297" lon="7.43786">
        <ele>1778.8</ele>
        <time>2017-08-28T07:58:20Z</time>
      </trkpt>
      <trkpt lat="43.98297" lon="7.43785">
        <ele>1779</ele>
        <time>2017-08-28T07:58:21Z</time>
      </trkpt>
      <trkpt lat="43.98294" lon="7.43781">
        <ele>1779.9</ele>
        <time>2017-08-28T07:58:38Z</time>
      </trkpt>
      <trkpt lat="43.98295" lon="7.43782">
        <ele>1779.6</ele>
        <time>2017-08-28T07:58:58Z</time>
      </trkpt>
      <trkpt lat="43.98297" lon="7.43787">
        <ele>1778.7</ele>
        <time>2017-08-28T07:59:09Z</time>
      </trkpt>
      <trkpt lat="43.98299" lon="7.43792">
        <ele>1777.7</ele>
        <time>2017-08-28T07:59:23Z</time>
      </trkpt>
      <trkpt lat="43.98299" lon="7.43792">
        <ele>1777.7</ele>
        <time>2017-08-28T07:59:50Z</time>
      </trkpt>
      <trkpt lat="43.98301" lon="7.43794">
        <ele>1777.3</ele>
        <time>2017-08-28T07:59:56Z</time>
      </trkpt>
      <trkpt lat="43.98292" lon="7.43799">
        <ele>1777.8</ele>
        <time>2017-08-28T08:00:12Z</time>
      </trkpt>
      <trkpt lat="43.98292" lon="7.43799">
        <ele>1777.8</ele>
        <time>2017-08-28T08:00:32Z</time>
      </trkpt>
      <trkpt lat="43.98301" lon="7.43793">
        <ele>1777.5</ele>
        <time>2017-08-28T08:00:47Z</time>
      </trkpt>
      <trkpt lat="43.98301" lon="7.43793">
        <ele>1777.5</ele>
        <time>2017-08-28T08:00:48Z</time>
      </trkpt>
      <trkpt lat="43.983" lon="7.43794">
        <ele>1777.4</ele>
        <time>2017-08-28T08:01:06Z</time>
      </trkpt>
      <trkpt lat="43.98303" lon="7.43792">
        <ele>1777.3</ele>
        <time>2017-08-28T08:01:23Z</time>
      </trkpt>
      <trkpt lat="43.98305" lon="7.4379">
        <ele>1777.3</ele>
        <time>2017-08-28T08:01:26Z</time>
      </trkpt>
      <trkpt lat="43.98307" lon="7.43785">
        <ele>1777.9</ele>
        <time>2017-08-28T08:01:30Z</time>
      </trkpt>
      <trkpt lat="43.98303" lon="7.43778">
        <ele>1779.2</ele>
        <time>2017-08-28T08:01:44Z</time>
      </trkpt>
      <trkpt lat="43.98299" lon="7.43775">
        <ele>1779.5</ele>
        <time>2017-08-28T08:02:02Z</time>
      </trkpt>
      <trkpt lat="43.98292" lon="7.43771">
        <ele>1779.9</ele>
        <time>2017-08-28T08:02:17Z</time>
      </trkpt>
      <trkpt lat="43.98294" lon="7.43772">
        <ele>1779.8</ele>
        <time>2017-08-28T08:02:19Z</time>
      </trkpt>
      <trkpt lat="43.98295" lon="7.43773">
        <ele>1779.7</ele>
        <time>2017-08-28T08:02:21Z</time>
      </trkpt>
      <trkpt lat="43.98306" lon="7.43778">
        <ele>1779</ele>
        <time>2017-08-28T08:02:34Z</time>
      </trkpt>
      <trkpt lat="43.98306" lon="7.43778">
        <ele>1779</ele>
        <time>2017-08-28T08:02:55Z</time>
      </trkpt>
      <trkpt lat="43.98311" lon="7.43779">
        <ele>1778.6</ele>
        <time>2017-08-28T08:03:00Z</time>
      </trkpt>
      <trkpt lat="43.98328" lon="7.43785">
        <ele>1777.4</ele>
        <time>2017-08-28T08:03:14Z</time>
      </trkpt>
      <trkpt lat="43.9835" lon="7.43792">
        <ele>1777.6</ele>
        <time>2017-08-28T08:03:33Z</time>
      </trkpt>
      <trkpt lat="43.98351" lon="7.43792">
        <ele>1777.7</ele>
        <time>2017-08-28T08:03:43Z</time>
      </trkpt>
      <trkpt lat="43.98355" lon="7.43793">
        <ele>1777.9</ele>
        <time>2017-08-28T08:03:47Z</time>
      </trkpt>
      <trkpt lat="43.98361" lon="7.43794">
        <ele>1778.2</ele>
        <time>2017-08-28T08:03:52Z</time>
      </trkpt>
      <trkpt lat="43.98367" lon="7.438">
        <ele>1778.6</ele>
        <time>2017-08-28T08:04:05Z</time>
      </trkpt>
      <trkpt lat="43.98364" lon="7.43798">
        <ele>1778.4</ele>
        <time>2017-08-28T08:04:27Z</time>
      </trkpt>
      <trkpt lat="43.98363" lon="7.43797">
        <ele>1778.3</ele>
        <time>2017-08-28T08:04:28Z</time>
      </trkpt>
      <trkpt lat="43.98343" lon="7.43789">
        <ele>1777.5</ele>
        <time>2017-08-28T08:04:45Z</time>
      </trkpt>
      <trkpt lat="43.98339" lon="7.43788">
        <ele>1777.3</ele>
        <time>2017-08-28T08:04:48Z</time>
      </trkpt>
      <trkpt lat="43.98333" lon="7.43787">
        <ele>1777</ele>
        <time>2017-08-28T08:04:52Z</time>
      </trkpt>
      <trkpt lat="43.98314" lon="7.43791">
        <ele>1777</ele>
        <time>2017-08-28T08:05:10Z</time>
      </trkpt>
      <trkpt lat="43.98315" lon="7.43791">
        <ele>1777</ele>
        <time>2017-08-28T08:05:18Z</time>
      </trkpt>
      <trkpt lat="43.98311" lon="7.43792">
        <ele>1776.8</ele>
        <time>2017-08-28T08:05:22Z</time>
      </trkpt>
      <trkpt lat="43.98287" lon="7.43803">
        <ele>1778</ele>
        <time>2017-08-28T08:05:40Z</time>
      </trkpt>
      <trkpt lat="43.98265" lon="7.43818">
        <ele>1778.8</ele>
        <time>2017-08-28T08:05:57Z</time>
      </trkpt>
      <trkpt lat="43.98249" lon="7.43837">
        <ele>1778.4</ele>
        <time>2017-08-28T08:06:12Z</time>
      </trkpt>
      <trkpt lat="43.98234" lon="7.43851">
        <ele>1777.8</ele>
        <time>2017-08-28T08:06:25Z</time>
      </trkpt>
      <trkpt lat="43.98227" lon="7.43858">
        <ele>1777.1</ele>
        <time>2017-08-28T08:06:31Z</time>
      </trkpt>
      <trkpt lat="43.9821" lon="7.43864">
        <ele>1779.1</ele>
        <time>2017-08-28T08:06:46Z</time>
      </trkpt>
      <trkpt lat="43.98195" lon="7.43871">
        <ele>1780.8</ele>
        <time>2017-08-28T08:07:00Z</time>
      </trkpt>
      <trkpt lat="43.98195" lon="7.43871">
        <ele>1780.8</ele>
        <time>2017-08-28T08:07:04Z</time>
      </trkpt>
      <trkpt lat="43.98185" lon="7.43881">
        <ele>1780.2</ele>
        <time>2017-08-28T08:07:13Z</time>
      </trkpt>
      <trkpt lat="43.98178" lon="7.43888">
        <ele>1779.9</ele>
        <time>2017-08-28T08:07:18Z</time>
      </trkpt>
      <trkpt lat="43.98161" lon="7.43905">
        <ele>1778.2</ele>
        <time>2017-08-28T08:07:32Z</time>
      </trkpt>
      <trkpt lat="43.98159" lon="7.43907">
        <ele>1777.9</ele>
        <time>2017-08-28T08:07:34Z</time>
      </trkpt>
      <trkpt lat="43.98152" lon="7.43913">
        <ele>1777.4</ele>
        <time>2017-08-28T08:07:40Z</time>
      </trkpt>
      <trkpt lat="43.98144" lon="7.43923">
        <ele>1776.1</ele>
        <time>2017-08-28T08:07:48Z</time>
      </trkpt>
      <trkpt lat="43.98127" lon="7.43941">
        <ele>1772.7</ele>
        <time>2017-08-28T08:08:03Z</time>
      </trkpt>
      <trkpt lat="43.98115" lon="7.43946">
        <ele>1772.3</ele>
        <time>2017-08-28T08:08:16Z</time>
      </trkpt>
      <trkpt lat="43.98112" lon="7.43946">
        <ele>1772.5</ele>
        <time>2017-08-28T08:08:18Z</time>
      </trkpt>
      <trkpt lat="43.98109" lon="7.43946">
        <ele>1771.9</ele>
        <time>2017-08-28T08:08:21Z</time>
      </trkpt>
      <trkpt lat="43.98096" lon="7.43936">
        <ele>1771.3</ele>
        <time>2017-08-28T08:08:34Z</time>
      </trkpt>
      <trkpt lat="43.98088" lon="7.4393">
        <ele>1770.8</ele>
        <time>2017-08-28T08:08:41Z</time>
      </trkpt>
      <trkpt lat="43.98084" lon="7.43944">
        <ele>1767.2</ele>
        <time>2017-08-28T08:08:46Z</time>
      </trkpt>
      <trkpt lat="43.98083" lon="7.43952">
        <ele>1765.1</ele>
        <time>2017-08-28T08:08:48Z</time>
      </trkpt>
      <trkpt lat="43.98083" lon="7.4396">
        <ele>1762.9</ele>
        <time>2017-08-28T08:08:52Z</time>
      </trkpt>
      <trkpt lat="43.98083" lon="7.43962">
        <ele>1762.2</ele>
        <time>2017-08-28T08:08:53Z</time>
      </trkpt>
      <trkpt lat="43.98081" lon="7.43983">
        <ele>1755.7</ele>
        <time>2017-08-28T08:09:05Z</time>
      </trkpt>
      <trkpt lat="43.9808" lon="7.43984">
        <ele>1755.2</ele>
        <time>2017-08-28T08:09:07Z</time>
      </trkpt>
      <trkpt lat="43.98074" lon="7.43982">
        <ele>1753.8</ele>
        <time>2017-08-28T08:09:11Z</time>
      </trkpt>
      <trkpt lat="43.98072" lon="7.43977">
        <ele>1754.3</ele>
        <time>2017-08-28T08:09:14Z</time>
      </trkpt>
      <trkpt lat="43.98069" lon="7.43974">
        <ele>1753.8</ele>
        <time>2017-08-28T08:09:18Z</time>
      </trkpt>
      <trkpt lat="43.98068" lon="7.43973">
        <ele>1753.7</ele>
        <time>2017-08-28T08:09:19Z</time>
      </trkpt>
      <trkpt lat="43.98057" lon="7.43958">
        <ele>1752.7</ele>
        <time>2017-08-28T08:09:32Z</time>
      </trkpt>
      <trkpt lat="43.98056" lon="7.43957">
        <ele>1752.3</ele>
        <time>2017-08-28T08:09:34Z</time>
      </trkpt>
      <trkpt lat="43.98053" lon="7.43958">
        <ele>1750.7</ele>
        <time>2017-08-28T08:09:36Z</time>
      </trkpt>
      <trkpt lat="43.98047" lon="7.43961">
        <ele>1746.9</ele>
        <time>2017-08-28T08:09:41Z</time>
      </trkpt>
      <trkpt lat="43.98048" lon="7.43973">
        <ele>1745</ele>
        <time>2017-08-28T08:09:46Z</time>
      </trkpt>
      <trkpt lat="43.98048" lon="7.43982">
        <ele>1742.7</ele>
        <time>2017-08-28T08:10:00Z</time>
      </trkpt>
      <trkpt lat="43.98048" lon="7.4399">
        <ele>1740.4</ele>
        <time>2017-08-28T08:10:06Z</time>
      </trkpt>
      <trkpt lat="43.98049" lon="7.44004">
        <ele>1737.5</ele>
        <time>2017-08-28T08:10:13Z</time>
      </trkpt>
      <trkpt lat="43.98051" lon="7.44006">
        <ele>1737.7</ele>
        <time>2017-08-28T08:10:14Z</time>
      </trkpt>
      <trkpt lat="43.98057" lon="7.44013">
        <ele>1738.1</ele>
        <time>2017-08-28T08:10:21Z</time>
      </trkpt>
      <trkpt lat="43.98057" lon="7.44019">
        <ele>1736.1</ele>
        <time>2017-08-28T08:10:24Z</time>
      </trkpt>
      <trkpt lat="43.98063" lon="7.44046">
        <ele>1729.3</ele>
        <time>2017-08-28T08:10:38Z</time>
      </trkpt>
      <trkpt lat="43.98069" lon="7.44055">
        <ele>1727.7</ele>
        <time>2017-08-28T08:10:44Z</time>
      </trkpt>
      <trkpt lat="43.98075" lon="7.44059">
        <ele>1727.5</ele>
        <time>2017-08-28T08:10:49Z</time>
      </trkpt>
      <trkpt lat="43.9808" lon="7.4406">
        <ele>1728.1</ele>
        <time>2017-08-28T08:10:52Z</time>
      </trkpt>
      <trkpt lat="43.98082" lon="7.44061">
        <ele>1728.4</ele>
        <time>2017-08-28T08:10:53Z</time>
      </trkpt>
      <trkpt lat="43.98093" lon="7.44063">
        <ele>1728.2</ele>
        <time>2017-08-28T08:11:01Z</time>
      </trkpt>
      <trkpt lat="43.98094" lon="7.44063">
        <ele>1728.2</ele>
        <time>2017-08-28T08:11:02Z</time>
      </trkpt>
      <trkpt lat="43.98099" lon="7.44062">
        <ele>1728.5</ele>
        <time>2017-08-28T08:11:07Z</time>
      </trkpt>
      <trkpt lat="43.98104" lon="7.44065">
        <ele>1727.2</ele>
        <time>2017-08-28T08:11:11Z</time>
      </trkpt>
      <trkpt lat="43.98109" lon="7.44071">
        <ele>1724.9</ele>
        <time>2017-08-28T08:11:15Z</time>
      </trkpt>
      <trkpt lat="43.98127" lon="7.44079">
        <ele>1719.4</ele>
        <time>2017-08-28T08:11:28Z</time>
      </trkpt>
      <trkpt lat="43.98138" lon="7.44078">
        <ele>1718.3</ele>
        <time>2017-08-28T08:11:37Z</time>
      </trkpt>
      <trkpt lat="43.98143" lon="7.44082">
        <ele>1715.5</ele>
        <time>2017-08-28T08:11:49Z</time>
      </trkpt>
      <trkpt lat="43.98143" lon="7.44082">
        <ele>1715.5</ele>
        <time>2017-08-28T08:12:00Z</time>
      </trkpt>
      <trkpt lat="43.98144" lon="7.44082">
        <ele>1715.2</ele>
        <time>2017-08-28T08:12:02Z</time>
      </trkpt>
      <trkpt lat="43.98149" lon="7.44078">
        <ele>1715.6</ele>
        <time>2017-08-28T08:12:08Z</time>
      </trkpt>
      <trkpt lat="43.9815" lon="7.44074">
        <ele>1717.1</ele>
        <time>2017-08-28T08:12:12Z</time>
      </trkpt>
      <trkpt lat="43.98165" lon="7.44067">
        <ele>1716</ele>
        <time>2017-08-28T08:12:21Z</time>
      </trkpt>
      <trkpt lat="43.98186" lon="7.44054">
        <ele>1715.4</ele>
        <time>2017-08-28T08:12:34Z</time>
      </trkpt>
      <trkpt lat="43.98188" lon="7.4405">
        <ele>1716.3</ele>
        <time>2017-08-28T08:12:36Z</time>
      </trkpt>
      <trkpt lat="43.98193" lon="7.44035">
        <ele>1720.8</ele>
        <time>2017-08-28T08:12:42Z</time>
      </trkpt>
      <trkpt lat="43.98199" lon="7.4402">
        <ele>1724.8</ele>
        <time>2017-08-28T08:12:52Z</time>
      </trkpt>
      <trkpt lat="43.98206" lon="7.44019">
        <ele>1723</ele>
        <time>2017-08-28T08:12:57Z</time>
      </trkpt>
      <trkpt lat="43.98229" lon="7.44032">
        <ele>1716.6</ele>
        <time>2017-08-28T08:13:13Z</time>
      </trkpt>
      <trkpt lat="43.98232" lon="7.44033">
        <ele>1717</ele>
        <time>2017-08-28T08:13:16Z</time>
      </trkpt>
      <trkpt lat="43.98245" lon="7.44032">
        <ele>1718.7</ele>
        <time>2017-08-28T08:13:26Z</time>
      </trkpt>
      <trkpt lat="43.98261" lon="7.44036">
        <ele>1719.9</ele>
        <time>2017-08-28T08:13:40Z</time>
      </trkpt>
      <trkpt lat="43.98264" lon="7.44037">
        <ele>1720.2</ele>
        <time>2017-08-28T08:13:44Z</time>
      </trkpt>
      <trkpt lat="43.98267" lon="7.44041">
        <ele>1720.8</ele>
        <time>2017-08-28T08:13:50Z</time>
      </trkpt>
      <trkpt lat="43.98261" lon="7.4404">
        <ele>1720.4</ele>
        <time>2017-08-28T08:13:58Z</time>
      </trkpt>
      <trkpt lat="43.98257" lon="7.44044">
        <ele>1720.7</ele>
        <time>2017-08-28T08:14:04Z</time>
      </trkpt>
      <trkpt lat="43.98246" lon="7.4406">
        <ele>1720.6</ele>
        <time>2017-08-28T08:14:21Z</time>
      </trkpt>
      <trkpt lat="43.98242" lon="7.44067">
        <ele>1720.6</ele>
        <time>2017-08-28T08:14:28Z</time>
      </trkpt>
      <trkpt lat="43.98238" lon="7.44077">
        <ele>1721.1</ele>
        <time>2017-08-28T08:14:35Z</time>
      </trkpt>
      <trkpt lat="43.98238" lon="7.4408">
        <ele>1721.4</ele>
        <time>2017-08-28T08:14:37Z</time>
      </trkpt>
      <trkpt lat="43.98233" lon="7.44088">
        <ele>1721.9</ele>
        <time>2017-08-28T08:14:44Z</time>
      </trkpt>
      <trkpt lat="43.98229" lon="7.44092">
        <ele>1722</ele>
        <time>2017-08-28T08:14:50Z</time>
      </trkpt>
      <trkpt lat="43.98228" lon="7.44096">
        <ele>1722.7</ele>
        <time>2017-08-28T08:14:53Z</time>
      </trkpt>
      <trkpt lat="43.98224" lon="7.44119">
        <ele>1728.2</ele>
        <time>2017-08-28T08:15:08Z</time>
      </trkpt>
      <trkpt lat="43.98219" lon="7.44127">
        <ele>1729.1</ele>
        <time>2017-08-28T08:15:16Z</time>
      </trkpt>
      <trkpt lat="43.98214" lon="7.44146">
        <ele>1733.8</ele>
        <time>2017-08-28T08:15:30Z</time>
      </trkpt>
      <trkpt lat="43.98211" lon="7.44163">
        <ele>1738.5</ele>
        <time>2017-08-28T08:15:43Z</time>
      </trkpt>
      <trkpt lat="43.98212" lon="7.44167">
        <ele>1740.3</ele>
        <time>2017-08-28T08:15:46Z</time>
      </trkpt>
      <trkpt lat="43.98203" lon="7.44174">
        <ele>1740.5</ele>
        <time>2017-08-28T08:15:56Z</time>
      </trkpt>
      <trkpt lat="43.98193" lon="7.44186">
        <ele>1742.3</ele>
        <time>2017-08-28T08:16:10Z</time>
      </trkpt>
      <trkpt lat="43.98188" lon="7.4419">
        <ele>1742.7</ele>
        <time>2017-08-28T08:16:21Z</time>
      </trkpt>
      <trkpt lat="43.982" lon="7.44206">
        <ele>1751.9</ele>
        <time>2017-08-28T08:16:32Z</time>
      </trkpt>
      <trkpt lat="43.98215" lon="7.44206">
        <ele>1755.6</ele>
        <time>2017-08-28T08:16:49Z</time>
      </trkpt>
      <trkpt lat="43.98229" lon="7.44201">
        <ele>1757.3</ele>
        <time>2017-08-28T08:17:02Z</time>
      </trkpt>
      <trkpt lat="43.98242" lon="7.44195">
        <ele>1758.8</ele>
        <time>2017-08-28T08:17:14Z</time>
      </trkpt>
      <trkpt lat="43.98252" lon="7.44186">
        <ele>1759</ele>
        <time>2017-08-28T08:17:26Z</time>
      </trkpt>
      <trkpt lat="43.98263" lon="7.44175">
        <ele>1758</ele>
        <time>2017-08-28T08:17:38Z</time>
      </trkpt>
      <trkpt lat="43.98275" lon="7.4417">
        <ele>1759.6</ele>
        <time>2017-08-28T08:17:51Z</time>
      </trkpt>
      <trkpt lat="43.9828" lon="7.44168">
        <ele>1759.9</ele>
        <time>2017-08-28T08:17:56Z</time>
      </trkpt>
      <trkpt lat="43.98292" lon="7.44167">
        <ele>1761.7</ele>
        <time>2017-08-28T08:18:08Z</time>
      </trkpt>
      <trkpt lat="43.98294" lon="7.44166">
        <ele>1761.8</ele>
        <time>2017-08-28T08:18:15Z</time>
      </trkpt>
      <trkpt lat="43.98293" lon="7.44164">
        <ele>1760.7</ele>
        <time>2017-08-28T08:18:22Z</time>
      </trkpt>
      <trkpt lat="43.98284" lon="7.44176">
        <ele>1763.6</ele>
        <time>2017-08-28T08:18:36Z</time>
      </trkpt>
      <trkpt lat="43.98277" lon="7.44186">
        <ele>1765.6</ele>
        <time>2017-08-28T08:18:45Z</time>
      </trkpt>
      <trkpt lat="43.98275" lon="7.4419">
        <ele>1766.6</ele>
        <time>2017-08-28T08:18:48Z</time>
      </trkpt>
      <trkpt lat="43.98267" lon="7.44204">
        <ele>1769.2</ele>
        <time>2017-08-28T08:19:00Z</time>
      </trkpt>
      <trkpt lat="43.98265" lon="7.44211">
        <ele>1771.2</ele>
        <time>2017-08-28T08:19:04Z</time>
      </trkpt>
      <trkpt lat="43.98255" lon="7.44228">
        <ele>1774.4</ele>
        <time>2017-08-28T08:19:18Z</time>
      </trkpt>
      <trkpt lat="43.98248" lon="7.44242">
        <ele>1777.5</ele>
        <time>2017-08-28T08:19:30Z</time>
      </trkpt>
      <trkpt lat="43.9824" lon="7.44257">
        <ele>1780.7</ele>
        <time>2017-08-28T08:19:44Z</time>
      </trkpt>
      <trkpt lat="43.98233" lon="7.44273">
        <ele>1783.8</ele>
        <time>2017-08-28T08:19:57Z</time>
      </trkpt>
      <trkpt lat="43.98225" lon="7.4429">
        <ele>1786.7</ele>
        <time>2017-08-28T08:20:13Z</time>
      </trkpt>
      <trkpt lat="43.98215" lon="7.44309">
        <ele>1789.3</ele>
        <time>2017-08-28T08:20:30Z</time>
      </trkpt>
      <trkpt lat="43.98206" lon="7.44333">
        <ele>1793.6</ele>
        <time>2017-08-28T08:20:47Z</time>
      </trkpt>
      <trkpt lat="43.98203" lon="7.44355">
        <ele>1797.1</ele>
        <time>2017-08-28T08:21:01Z</time>
      </trkpt>
      <trkpt lat="43.98197" lon="7.44372">
        <ele>1798.5</ele>
        <time>2017-08-28T08:21:13Z</time>
      </trkpt>
      <trkpt lat="43.98195" lon="7.44378">
        <ele>1798.8</ele>
        <time>2017-08-28T08:21:17Z</time>
      </trkpt>
      <trkpt lat="43.98177" lon="7.44388">
        <ele>1800.5</ele>
        <time>2017-08-28T08:21:34Z</time>
      </trkpt>
      <trkpt lat="43.98159" lon="7.44393">
        <ele>1801.6</ele>
        <time>2017-08-28T08:21:51Z</time>
      </trkpt>
      <trkpt lat="43.98146" lon="7.44393">
        <ele>1802.2</ele>
        <time>2017-08-28T08:22:05Z</time>
      </trkpt>
      <trkpt lat="43.98132" lon="7.44396">
        <ele>1803.4</ele>
        <time>2017-08-28T08:22:18Z</time>
      </trkpt>
      <trkpt lat="43.98118" lon="7.44401">
        <ele>1805.6</ele>
        <time>2017-08-28T08:22:33Z</time>
      </trkpt>
      <trkpt lat="43.98107" lon="7.44407">
        <ele>1807.7</ele>
        <time>2017-08-28T08:22:44Z</time>
      </trkpt>
      <trkpt lat="43.98095" lon="7.44414">
        <ele>1809.9</ele>
        <time>2017-08-28T08:22:58Z</time>
      </trkpt>
      <trkpt lat="43.98084" lon="7.44428">
        <ele>1813.3</ele>
        <time>2017-08-28T08:23:11Z</time>
      </trkpt>
      <trkpt lat="43.98079" lon="7.44439">
        <ele>1815.4</ele>
        <time>2017-08-28T08:23:17Z</time>
      </trkpt>
      <trkpt lat="43.98069" lon="7.44461">
        <ele>1819</ele>
        <time>2017-08-28T08:23:32Z</time>
      </trkpt>
      <trkpt lat="43.98052" lon="7.44487">
        <ele>1822.3</ele>
        <time>2017-08-28T08:23:51Z</time>
      </trkpt>
      <trkpt lat="43.98041" lon="7.44499">
        <ele>1823.4</ele>
        <time>2017-08-28T08:24:04Z</time>
      </trkpt>
      <trkpt lat="43.98036" lon="7.44504">
        <ele>1823.7</ele>
        <time>2017-08-28T08:24:09Z</time>
      </trkpt>
      <trkpt lat="43.98029" lon="7.44508">
        <ele>1824.1</ele>
        <time>2017-08-28T08:24:16Z</time>
      </trkpt>
      <trkpt lat="43.98024" lon="7.44511">
        <ele>1824.7</ele>
        <time>2017-08-28T08:24:20Z</time>
      </trkpt>
      <trkpt lat="43.98019" lon="7.44518">
        <ele>1825.9</ele>
        <time>2017-08-28T08:24:26Z</time>
      </trkpt>
      <trkpt lat="43.98004" lon="7.4453">
        <ele>1829.1</ele>
        <time>2017-08-28T08:24:41Z</time>
      </trkpt>
      <trkpt lat="43.97987" lon="7.44541">
        <ele>1833.2</ele>
        <time>2017-08-28T08:24:57Z</time>
      </trkpt>
      <trkpt lat="43.97975" lon="7.44544">
        <ele>1835.8</ele>
        <time>2017-08-28T08:25:09Z</time>
      </trkpt>
      <trkpt lat="43.97958" lon="7.44543">
        <ele>1837.6</ele>
        <time>2017-08-28T08:25:24Z</time>
      </trkpt>
      <trkpt lat="43.97949" lon="7.44543">
        <ele>1838.7</ele>
        <time>2017-08-28T08:25:34Z</time>
      </trkpt>
      <trkpt lat="43.97935" lon="7.44544">
        <ele>1841.4</ele>
        <time>2017-08-28T08:25:47Z</time>
      </trkpt>
      <trkpt lat="43.9792" lon="7.44543">
        <ele>1844</ele>
        <time>2017-08-28T08:26:02Z</time>
      </trkpt>
      <trkpt lat="43.97908" lon="7.44546">
        <ele>1847.3</ele>
        <time>2017-08-28T08:26:15Z</time>
      </trkpt>
      <trkpt lat="43.97895" lon="7.44551">
        <ele>1851.3</ele>
        <time>2017-08-28T08:26:29Z</time>
      </trkpt>
      <trkpt lat="43.97882" lon="7.44554">
        <ele>1854.5</ele>
        <time>2017-08-28T08:26:42Z</time>
      </trkpt>
      <trkpt lat="43.97867" lon="7.44553">
        <ele>1856.9</ele>
        <time>2017-08-28T08:26:56Z</time>
      </trkpt>
      <trkpt lat="43.97849" lon="7.44553">
        <ele>1859.7</ele>
        <time>2017-08-28T08:27:12Z</time>
      </trkpt>
      <trkpt lat="43.97835" lon="7.44559">
        <ele>1863.5</ele>
        <time>2017-08-28T08:27:26Z</time>
      </trkpt>
      <trkpt lat="43.97819" lon="7.44563">
        <ele>1866.9</ele>
        <time>2017-08-28T08:27:42Z</time>
      </trkpt>
      <trkpt lat="43.97814" lon="7.44565">
        <ele>1867.8</ele>
        <time>2017-08-28T08:27:47Z</time>
      </trkpt>
      <trkpt lat="43.97798" lon="7.44566">
        <ele>1870.3</ele>
        <time>2017-08-28T08:28:03Z</time>
      </trkpt>
      <trkpt lat="43.97784" lon="7.44572">
        <ele>1873.2</ele>
        <time>2017-08-28T08:28:18Z</time>
      </trkpt>
      <trkpt lat="43.97769" lon="7.44589">
        <ele>1877.2</ele>
        <time>2017-08-28T08:28:32Z</time>
      </trkpt>
      <trkpt lat="43.9776" lon="7.44604">
        <ele>1877.5</ele>
        <time>2017-08-28T08:28:46Z</time>
      </trkpt>
      <trkpt lat="43.97761" lon="7.44604">
        <ele>1877.3</ele>
        <time>2017-08-28T08:28:59Z</time>
      </trkpt>
      <trkpt lat="43.97757" lon="7.44609">
        <ele>1877.5</ele>
        <time>2017-08-28T08:29:10Z</time>
      </trkpt>
      <trkpt lat="43.97756" lon="7.44609">
        <ele>1877.5</ele>
        <time>2017-08-28T08:29:37Z</time>
      </trkpt>
      <trkpt lat="43.97756" lon="7.44609">
        <ele>1877.5</ele>
        <time>2017-08-28T08:29:55Z</time>
      </trkpt>
      <trkpt lat="43.97756" lon="7.44609">
        <ele>1877.5</ele>
        <time>2017-08-28T08:30:10Z</time>
      </trkpt>
      <trkpt lat="43.97753" lon="7.4461">
        <ele>1877.8</ele>
        <time>2017-08-28T08:30:14Z</time>
      </trkpt>
      <trkpt lat="43.9773" lon="7.44612">
        <ele>1879.3</ele>
        <time>2017-08-28T08:30:31Z</time>
      </trkpt>
      <trkpt lat="43.97726" lon="7.44611">
        <ele>1879.6</ele>
        <time>2017-08-28T08:30:34Z</time>
      </trkpt>
      <trkpt lat="43.9772" lon="7.44611">
        <ele>1880.5</ele>
        <time>2017-08-28T08:30:39Z</time>
      </trkpt>
      <trkpt lat="43.97698" lon="7.44616">
        <ele>1883.4</ele>
        <time>2017-08-28T08:30:55Z</time>
      </trkpt>
      <trkpt lat="43.97692" lon="7.4462">
        <ele>1883.7</ele>
        <time>2017-08-28T08:31:00Z</time>
      </trkpt>
      <trkpt lat="43.97676" lon="7.44629">
        <ele>1884.3</ele>
        <time>2017-08-28T08:31:13Z</time>
      </trkpt>
      <trkpt lat="43.97659" lon="7.44642">
        <ele>1884.1</ele>
        <time>2017-08-28T08:31:27Z</time>
      </trkpt>
      <trkpt lat="43.97641" lon="7.44654">
        <ele>1884.6</ele>
        <time>2017-08-28T08:31:40Z</time>
      </trkpt>
      <trkpt lat="43.97625" lon="7.44663">
        <ele>1885.8</ele>
        <time>2017-08-28T08:31:54Z</time>
      </trkpt>
      <trkpt lat="43.97607" lon="7.4468">
        <ele>1883.6</ele>
        <time>2017-08-28T08:32:09Z</time>
      </trkpt>
      <trkpt lat="43.97591" lon="7.44691">
        <ele>1883.1</ele>
        <time>2017-08-28T08:32:23Z</time>
      </trkpt>
      <trkpt lat="43.97576" lon="7.44705">
        <ele>1882.5</ele>
        <time>2017-08-28T08:32:37Z</time>
      </trkpt>
      <trkpt lat="43.97558" lon="7.44717">
        <ele>1884.4</ele>
        <time>2017-08-28T08:32:52Z</time>
      </trkpt>
      <trkpt lat="43.9754" lon="7.44722">
        <ele>1885.7</ele>
        <time>2017-08-28T08:33:07Z</time>
      </trkpt>
      <trkpt lat="43.9752" lon="7.4472">
        <ele>1885.9</ele>
        <time>2017-08-28T08:33:22Z</time>
      </trkpt>
      <trkpt lat="43.975" lon="7.44733">
        <ele>1884</ele>
        <time>2017-08-28T08:33:37Z</time>
      </trkpt>
      <trkpt lat="43.97481" lon="7.44739">
        <ele>1883.5</ele>
        <time>2017-08-28T08:33:51Z</time>
      </trkpt>
      <trkpt lat="43.97456" lon="7.44753">
        <ele>1883.4</ele>
        <time>2017-08-28T08:34:10Z</time>
      </trkpt>
      <trkpt lat="43.97432" lon="7.44763">
        <ele>1881.6</ele>
        <time>2017-08-28T08:34:28Z</time>
      </trkpt>
      <trkpt lat="43.9741" lon="7.44771">
        <ele>1880.5</ele>
        <time>2017-08-28T08:34:44Z</time>
      </trkpt>
      <trkpt lat="43.97389" lon="7.44785">
        <ele>1880.2</ele>
        <time>2017-08-28T08:35:00Z</time>
      </trkpt>
      <trkpt lat="43.97386" lon="7.44789">
        <ele>1880.5</ele>
        <time>2017-08-28T08:35:03Z</time>
      </trkpt>
      <trkpt lat="43.97382" lon="7.44794">
        <ele>1880.6</ele>
        <time>2017-08-28T08:35:07Z</time>
      </trkpt>
      <trkpt lat="43.97362" lon="7.44824">
        <ele>1882.2</ele>
        <time>2017-08-28T08:35:26Z</time>
      </trkpt>
      <trkpt lat="43.97358" lon="7.4483">
        <ele>1882.2</ele>
        <time>2017-08-28T08:35:30Z</time>
      </trkpt>
      <trkpt lat="43.97354" lon="7.44836">
        <ele>1882.2</ele>
        <time>2017-08-28T08:35:34Z</time>
      </trkpt>
      <trkpt lat="43.97338" lon="7.44864">
        <ele>1883</ele>
        <time>2017-08-28T08:35:52Z</time>
      </trkpt>
      <trkpt lat="43.9732" lon="7.44893">
        <ele>1885.8</ele>
        <time>2017-08-28T08:36:12Z</time>
      </trkpt>
      <trkpt lat="43.97304" lon="7.44897">
        <ele>1887.7</ele>
        <time>2017-08-28T08:36:29Z</time>
      </trkpt>
      <trkpt lat="43.97296" lon="7.44894">
        <ele>1889.6</ele>
        <time>2017-08-28T08:36:39Z</time>
      </trkpt>
      <trkpt lat="43.97283" lon="7.44882">
        <ele>1890.7</ele>
        <time>2017-08-28T08:36:54Z</time>
      </trkpt>
      <trkpt lat="43.97273" lon="7.44874">
        <ele>1891.9</ele>
        <time>2017-08-28T08:37:06Z</time>
      </trkpt>
      <trkpt lat="43.9727" lon="7.4487">
        <ele>1891.9</ele>
        <time>2017-08-28T08:37:09Z</time>
      </trkpt>
      <trkpt lat="43.97252" lon="7.44861">
        <ele>1895.4</ele>
        <time>2017-08-28T08:37:25Z</time>
      </trkpt>
      <trkpt lat="43.97239" lon="7.44857">
        <ele>1898</ele>
        <time>2017-08-28T08:37:38Z</time>
      </trkpt>
      <trkpt lat="43.97238" lon="7.44857">
        <ele>1898.3</ele>
        <time>2017-08-28T08:37:53Z</time>
      </trkpt>
      <trkpt lat="43.97231" lon="7.44857">
        <ele>1900.6</ele>
        <time>2017-08-28T08:37:58Z</time>
      </trkpt>
      <trkpt lat="43.97222" lon="7.44853">
        <ele>1901.8</ele>
        <time>2017-08-28T08:38:05Z</time>
      </trkpt>
      <trkpt lat="43.97209" lon="7.44851">
        <ele>1905.3</ele>
        <time>2017-08-28T08:38:17Z</time>
      </trkpt>
      <trkpt lat="43.97195" lon="7.44848">
        <ele>1908.6</ele>
        <time>2017-08-28T08:38:30Z</time>
      </trkpt>
      <trkpt lat="43.9719" lon="7.44845">
        <ele>1909.1</ele>
        <time>2017-08-28T08:38:35Z</time>
      </trkpt>
      <trkpt lat="43.97179" lon="7.44839">
        <ele>1910.7</ele>
        <time>2017-08-28T08:38:48Z</time>
      </trkpt>
      <trkpt lat="43.97167" lon="7.44832">
        <ele>1912.5</ele>
        <time>2017-08-28T08:39:01Z</time>
      </trkpt>
      <trkpt lat="43.97153" lon="7.44824">
        <ele>1914.7</ele>
        <time>2017-08-28T08:39:14Z</time>
      </trkpt>
      <trkpt lat="43.97141" lon="7.44815">
        <ele>1915.9</ele>
        <time>2017-08-28T08:39:26Z</time>
      </trkpt>
      <trkpt lat="43.97127" lon="7.44804">
        <ele>1917</ele>
        <time>2017-08-28T08:39:41Z</time>
      </trkpt>
      <trkpt lat="43.97121" lon="7.448">
        <ele>1917.5</ele>
        <time>2017-08-28T08:39:49Z</time>
      </trkpt>
      <trkpt lat="43.97115" lon="7.44796">
        <ele>1918.1</ele>
        <time>2017-08-28T08:39:55Z</time>
      </trkpt>
      <trkpt lat="43.97104" lon="7.44788">
        <ele>1919.1</ele>
        <time>2017-08-28T08:40:03Z</time>
      </trkpt>
      <trkpt lat="43.97103" lon="7.44787">
        <ele>1919.6</ele>
        <time>2017-08-28T08:40:04Z</time>
      </trkpt>
      <trkpt lat="43.97088" lon="7.44774">
        <ele>1920.1</ele>
        <time>2017-08-28T08:40:18Z</time>
      </trkpt>
      <trkpt lat="43.97068" lon="7.44762">
        <ele>1921.7</ele>
        <time>2017-08-28T08:40:34Z</time>
      </trkpt>
      <trkpt lat="43.97053" lon="7.44753">
        <ele>1923.3</ele>
        <time>2017-08-28T08:40:46Z</time>
      </trkpt>
      <trkpt lat="43.97046" lon="7.44751">
        <ele>1924.1</ele>
        <time>2017-08-28T08:40:52Z</time>
      </trkpt>
      <trkpt lat="43.97041" lon="7.44747">
        <ele>1923.5</ele>
        <time>2017-08-28T08:40:56Z</time>
      </trkpt>
      <trkpt lat="43.97024" lon="7.44733">
        <ele>1920.8</ele>
        <time>2017-08-28T08:41:10Z</time>
      </trkpt>
      <trkpt lat="43.97018" lon="7.4473">
        <ele>1920.6</ele>
        <time>2017-08-28T08:41:15Z</time>
      </trkpt>
      <trkpt lat="43.97003" lon="7.44721">
        <ele>1918.8</ele>
        <time>2017-08-28T08:41:27Z</time>
      </trkpt>
      <trkpt lat="43.96997" lon="7.44718">
        <ele>1918.5</ele>
        <time>2017-08-28T08:41:32Z</time>
      </trkpt>
      <trkpt lat="43.96987" lon="7.44718">
        <ele>1920</ele>
        <time>2017-08-28T08:41:39Z</time>
      </trkpt>
      <trkpt lat="43.96974" lon="7.44714">
        <ele>1919.7</ele>
        <time>2017-08-28T08:41:48Z</time>
      </trkpt>
      <trkpt lat="43.96967" lon="7.4471">
        <ele>1918.3</ele>
        <time>2017-08-28T08:41:53Z</time>
      </trkpt>
      <trkpt lat="43.96944" lon="7.44702">
        <ele>1915.5</ele>
        <time>2017-08-28T08:42:11Z</time>
      </trkpt>
      <trkpt lat="43.96924" lon="7.44704">
        <ele>1915.1</ele>
        <time>2017-08-28T08:42:26Z</time>
      </trkpt>
      <trkpt lat="43.96922" lon="7.44704">
        <ele>1914.7</ele>
        <time>2017-08-28T08:42:28Z</time>
      </trkpt>
      <trkpt lat="43.96899" lon="7.44707">
        <ele>1913.4</ele>
        <time>2017-08-28T08:42:45Z</time>
      </trkpt>
      <trkpt lat="43.96876" lon="7.44714">
        <ele>1912.9</ele>
        <time>2017-08-28T08:43:01Z</time>
      </trkpt>
      <trkpt lat="43.96867" lon="7.44711">
        <ele>1910.3</ele>
        <time>2017-08-28T08:43:07Z</time>
      </trkpt>
      <trkpt lat="43.96861" lon="7.44713">
        <ele>1910.3</ele>
        <time>2017-08-28T08:43:12Z</time>
      </trkpt>
      <trkpt lat="43.96839" lon="7.44726">
        <ele>1911.9</ele>
        <time>2017-08-28T08:43:29Z</time>
      </trkpt>
      <trkpt lat="43.96829" lon="7.44729">
        <ele>1911.4</ele>
        <time>2017-08-28T08:43:36Z</time>
      </trkpt>
      <trkpt lat="43.96814" lon="7.44737">
        <ele>1912.1</ele>
        <time>2017-08-28T08:43:48Z</time>
      </trkpt>
      <trkpt lat="43.9679" lon="7.44751">
        <ele>1913.5</ele>
        <time>2017-08-28T08:44:04Z</time>
      </trkpt>
      <trkpt lat="43.96776" lon="7.44753">
        <ele>1911.9</ele>
        <time>2017-08-28T08:44:14Z</time>
      </trkpt>
      <trkpt lat="43.96757" lon="7.44764">
        <ele>1912.8</ele>
        <time>2017-08-28T08:44:29Z</time>
      </trkpt>
      <trkpt lat="43.96738" lon="7.4477">
        <ele>1911.8</ele>
        <time>2017-08-28T08:44:44Z</time>
      </trkpt>
      <trkpt lat="43.96727" lon="7.44771">
        <ele>1910</ele>
        <time>2017-08-28T08:44:52Z</time>
      </trkpt>
      <trkpt lat="43.96721" lon="7.44771">
        <ele>1909.3</ele>
        <time>2017-08-28T08:44:56Z</time>
      </trkpt>
      <trkpt lat="43.96713" lon="7.44773">
        <ele>1908.5</ele>
        <time>2017-08-28T08:45:02Z</time>
      </trkpt>
      <trkpt lat="43.96695" lon="7.44771">
        <ele>1904.7</ele>
        <time>2017-08-28T08:45:17Z</time>
      </trkpt>
      <trkpt lat="43.9668" lon="7.44773">
        <ele>1902.5</ele>
        <time>2017-08-28T08:45:29Z</time>
      </trkpt>
      <trkpt lat="43.96661" lon="7.44774">
        <ele>1899.5</ele>
        <time>2017-08-28T08:45:43Z</time>
      </trkpt>
      <trkpt lat="43.96641" lon="7.44782">
        <ele>1898.9</ele>
        <time>2017-08-28T08:45:59Z</time>
      </trkpt>
      <trkpt lat="43.96622" lon="7.44787">
        <ele>1897.1</ele>
        <time>2017-08-28T08:46:13Z</time>
      </trkpt>
      <trkpt lat="43.96602" lon="7.44794">
        <ele>1895.1</ele>
        <time>2017-08-28T08:46:28Z</time>
      </trkpt>
      <trkpt lat="43.96584" lon="7.44799">
        <ele>1892.8</ele>
        <time>2017-08-28T08:46:42Z</time>
      </trkpt>
      <trkpt lat="43.96573" lon="7.448">
        <ele>1890.5</ele>
        <time>2017-08-28T08:46:51Z</time>
      </trkpt>
      <trkpt lat="43.96557" lon="7.44806">
        <ele>1888.6</ele>
        <time>2017-08-28T08:47:04Z</time>
      </trkpt>
      <trkpt lat="43.96538" lon="7.44815">
        <ele>1886.5</ele>
        <time>2017-08-28T08:47:20Z</time>
      </trkpt>
      <trkpt lat="43.96533" lon="7.44816">
        <ele>1885.2</ele>
        <time>2017-08-28T08:47:24Z</time>
      </trkpt>
      <trkpt lat="43.96529" lon="7.4482">
        <ele>1885.4</ele>
        <time>2017-08-28T08:47:28Z</time>
      </trkpt>
      <trkpt lat="43.96521" lon="7.44822">
        <ele>1883.6</ele>
        <time>2017-08-28T08:47:36Z</time>
      </trkpt>
      <trkpt lat="43.96504" lon="7.44833">
        <ele>1881.4</ele>
        <time>2017-08-28T08:47:52Z</time>
      </trkpt>
      <trkpt lat="43.96486" lon="7.44842">
        <ele>1877.1</ele>
        <time>2017-08-28T08:48:08Z</time>
      </trkpt>
      <trkpt lat="43.96469" lon="7.44857">
        <ele>1875.1</ele>
        <time>2017-08-28T08:48:23Z</time>
      </trkpt>
      <trkpt lat="43.96448" lon="7.44872">
        <ele>1872.2</ele>
        <time>2017-08-28T08:48:41Z</time>
      </trkpt>
      <trkpt lat="43.96432" lon="7.44881">
        <ele>1869.3</ele>
        <time>2017-08-28T08:48:54Z</time>
      </trkpt>
      <trkpt lat="43.96414" lon="7.44887">
        <ele>1865.9</ele>
        <time>2017-08-28T08:49:08Z</time>
      </trkpt>
      <trkpt lat="43.96396" lon="7.44892">
        <ele>1863</ele>
        <time>2017-08-28T08:49:22Z</time>
      </trkpt>
      <trkpt lat="43.96378" lon="7.44901">
        <ele>1860.8</ele>
        <time>2017-08-28T08:49:36Z</time>
      </trkpt>
      <trkpt lat="43.9636" lon="7.44922">
        <ele>1860.8</ele>
        <time>2017-08-28T08:49:53Z</time>
      </trkpt>
      <trkpt lat="43.96337" lon="7.44939">
        <ele>1861.5</ele>
        <time>2017-08-28T08:50:12Z</time>
      </trkpt>
      <trkpt lat="43.96313" lon="7.44953">
        <ele>1861.5</ele>
        <time>2017-08-28T08:50:31Z</time>
      </trkpt>
      <trkpt lat="43.96298" lon="7.44967">
        <ele>1861.7</ele>
        <time>2017-08-28T08:50:47Z</time>
      </trkpt>
      <trkpt lat="43.96298" lon="7.44967">
        <ele>1861.7</ele>
        <time>2017-08-28T08:51:11Z</time>
      </trkpt>
      <trkpt lat="43.96297" lon="7.44971">
        <ele>1861.7</ele>
        <time>2017-08-28T08:51:29Z</time>
      </trkpt>
      <trkpt lat="43.96296" lon="7.44973">
        <ele>1861.5</ele>
        <time>2017-08-28T08:51:50Z</time>
      </trkpt>
      <trkpt lat="43.96296" lon="7.44977">
        <ele>1860.7</ele>
        <time>2017-08-28T08:52:03Z</time>
      </trkpt>
      <trkpt lat="43.96296" lon="7.44977">
        <ele>1860.7</ele>
        <time>2017-08-28T08:52:28Z</time>
      </trkpt>
      <trkpt lat="43.96296" lon="7.44977">
        <ele>1860.7</ele>
        <time>2017-08-28T08:52:44Z</time>
      </trkpt>
      <trkpt lat="43.96296" lon="7.44977">
        <ele>1860.7</ele>
        <time>2017-08-28T08:53:06Z</time>
      </trkpt>
      <trkpt lat="43.96297" lon="7.44977">
        <ele>1860.7</ele>
        <time>2017-08-28T08:53:37Z</time>
      </trkpt>
      <trkpt lat="43.96296" lon="7.44977">
        <ele>1860.7</ele>
        <time>2017-08-28T08:54:16Z</time>
      </trkpt>
      <trkpt lat="43.96297" lon="7.44977">
        <ele>1860.6</ele>
        <time>2017-08-28T08:54:38Z</time>
      </trkpt>
      <trkpt lat="43.96296" lon="7.44978">
        <ele>1860.6</ele>
        <time>2017-08-28T08:55:16Z</time>
      </trkpt>
      <trkpt lat="43.96294" lon="7.4498">
        <ele>1860</ele>
        <time>2017-08-28T08:55:34Z</time>
      </trkpt>
      <trkpt lat="43.9629" lon="7.44981">
        <ele>1859.5</ele>
        <time>2017-08-28T08:55:51Z</time>
      </trkpt>
      <trkpt lat="43.96286" lon="7.44987">
        <ele>1857.8</ele>
        <time>2017-08-28T08:56:06Z</time>
      </trkpt>
      <trkpt lat="43.96281" lon="7.44985">
        <ele>1858.1</ele>
        <time>2017-08-28T08:56:22Z</time>
      </trkpt>
      <trkpt lat="43.96277" lon="7.44984">
        <ele>1858.3</ele>
        <time>2017-08-28T08:56:28Z</time>
      </trkpt>
      <trkpt lat="43.96263" lon="7.44988">
        <ele>1858</ele>
        <time>2017-08-28T08:56:43Z</time>
      </trkpt>
      <trkpt lat="43.96249" lon="7.44991">
        <ele>1857.7</ele>
        <time>2017-08-28T08:56:56Z</time>
      </trkpt>
      <trkpt lat="43.96234" lon="7.44993">
        <ele>1857.3</ele>
        <time>2017-08-28T08:57:11Z</time>
      </trkpt>
      <trkpt lat="43.96219" lon="7.44997">
        <ele>1855.6</ele>
        <time>2017-08-28T08:57:25Z</time>
      </trkpt>
      <trkpt lat="43.96216" lon="7.44998">
        <ele>1855.2</ele>
        <time>2017-08-28T08:57:28Z</time>
      </trkpt>
      <trkpt lat="43.96206" lon="7.45003">
        <ele>1853</ele>
        <time>2017-08-28T08:57:39Z</time>
      </trkpt>
      <trkpt lat="43.96185" lon="7.45011">
        <ele>1846.2</ele>
        <time>2017-08-28T08:57:56Z</time>
      </trkpt>
      <trkpt lat="43.96167" lon="7.45005">
        <ele>1845.3</ele>
        <time>2017-08-28T08:58:12Z</time>
      </trkpt>
      <trkpt lat="43.96154" lon="7.44994">
        <ele>1846.9</ele>
        <time>2017-08-28T08:58:25Z</time>
      </trkpt>
      <trkpt lat="43.96137" lon="7.44989">
        <ele>1844.8</ele>
        <time>2017-08-28T08:58:42Z</time>
      </trkpt>
      <trkpt lat="43.96123" lon="7.44982">
        <ele>1846.3</ele>
        <time>2017-08-28T08:58:58Z</time>
      </trkpt>
      <trkpt lat="43.9612" lon="7.44979">
        <ele>1847</ele>
        <time>2017-08-28T08:59:02Z</time>
      </trkpt>
      <trkpt lat="43.96109" lon="7.44976">
        <ele>1846.4</ele>
        <time>2017-08-28T08:59:12Z</time>
      </trkpt>
      <trkpt lat="43.96098" lon="7.44977">
        <ele>1843.9</ele>
        <time>2017-08-28T08:59:20Z</time>
      </trkpt>
      <trkpt lat="43.96076" lon="7.44976">
        <ele>1840.4</ele>
        <time>2017-08-28T08:59:37Z</time>
      </trkpt>
      <trkpt lat="43.9606" lon="7.44973">
        <ele>1837.8</ele>
        <time>2017-08-28T08:59:51Z</time>
      </trkpt>
      <trkpt lat="43.96059" lon="7.44973">
        <ele>1837.6</ele>
        <time>2017-08-28T08:59:52Z</time>
      </trkpt>
      <trkpt lat="43.96053" lon="7.4497">
        <ele>1837.7</ele>
        <time>2017-08-28T08:59:58Z</time>
      </trkpt>
      <trkpt lat="43.9605" lon="7.44969">
        <ele>1837.5</ele>
        <time>2017-08-28T09:00:01Z</time>
      </trkpt>
      <trkpt lat="43.96039" lon="7.44967">
        <ele>1836.5</ele>
        <time>2017-08-28T09:00:10Z</time>
      </trkpt>
      <trkpt lat="43.96021" lon="7.44966">
        <ele>1834.9</ele>
        <time>2017-08-28T09:00:25Z</time>
      </trkpt>
      <trkpt lat="43.96006" lon="7.44971">
        <ele>1832.5</ele>
        <time>2017-08-28T09:00:38Z</time>
      </trkpt>
      <trkpt lat="43.95983" lon="7.44977">
        <ele>1832.1</ele>
        <time>2017-08-28T09:00:55Z</time>
      </trkpt>
      <trkpt lat="43.95977" lon="7.4498">
        <ele>1831.6</ele>
        <time>2017-08-28T09:01:03Z</time>
      </trkpt>
      <trkpt lat="43.95959" lon="7.44987">
        <ele>1829.9</ele>
        <time>2017-08-28T09:01:19Z</time>
      </trkpt>
      <trkpt lat="43.95949" lon="7.44991">
        <ele>1829</ele>
        <time>2017-08-28T09:01:30Z</time>
      </trkpt>
      <trkpt lat="43.95931" lon="7.44996">
        <ele>1829.1</ele>
        <time>2017-08-28T09:01:46Z</time>
      </trkpt>
      <trkpt lat="43.95911" lon="7.45">
        <ele>1830.9</ele>
        <time>2017-08-28T09:02:03Z</time>
      </trkpt>
      <trkpt lat="43.95895" lon="7.4501">
        <ele>1829.5</ele>
        <time>2017-08-28T09:02:17Z</time>
      </trkpt>
      <trkpt lat="43.95872" lon="7.45016">
        <ele>1831</ele>
        <time>2017-08-28T09:02:35Z</time>
      </trkpt>
      <trkpt lat="43.95857" lon="7.45023">
        <ele>1829.5</ele>
        <time>2017-08-28T09:02:49Z</time>
      </trkpt>
      <trkpt lat="43.95845" lon="7.45029">
        <ele>1827.9</ele>
        <time>2017-08-28T09:03:03Z</time>
      </trkpt>
      <trkpt lat="43.95842" lon="7.45031">
        <ele>1827.4</ele>
        <time>2017-08-28T09:03:07Z</time>
      </trkpt>
      <trkpt lat="43.95822" lon="7.45042">
        <ele>1824.6</ele>
        <time>2017-08-28T09:03:24Z</time>
      </trkpt>
      <trkpt lat="43.95809" lon="7.45048">
        <ele>1823.3</ele>
        <time>2017-08-28T09:03:37Z</time>
      </trkpt>
      <trkpt lat="43.95808" lon="7.45049">
        <ele>1823.2</ele>
        <time>2017-08-28T09:03:38Z</time>
      </trkpt>
      <trkpt lat="43.95806" lon="7.45052">
        <ele>1822.1</ele>
        <time>2017-08-28T09:03:40Z</time>
      </trkpt>
      <trkpt lat="43.95787" lon="7.45065">
        <ele>1817.9</ele>
        <time>2017-08-28T09:03:57Z</time>
      </trkpt>
      <trkpt lat="43.95775" lon="7.45074">
        <ele>1815.2</ele>
        <time>2017-08-28T09:04:10Z</time>
      </trkpt>
      <trkpt lat="43.9577" lon="7.45077">
        <ele>1814.7</ele>
        <time>2017-08-28T09:04:15Z</time>
      </trkpt>
      <trkpt lat="43.95764" lon="7.45084">
        <ele>1812.3</ele>
        <time>2017-08-28T09:04:21Z</time>
      </trkpt>
      <trkpt lat="43.9575" lon="7.45095">
        <ele>1810.3</ele>
        <time>2017-08-28T09:04:34Z</time>
      </trkpt>
      <trkpt lat="43.95734" lon="7.45113">
        <ele>1808.3</ele>
        <time>2017-08-28T09:04:50Z</time>
      </trkpt>
      <trkpt lat="43.95719" lon="7.45133">
        <ele>1805.3</ele>
        <time>2017-08-28T09:05:07Z</time>
      </trkpt>
      <trkpt lat="43.95703" lon="7.45152">
        <ele>1802.8</ele>
        <time>2017-08-28T09:05:25Z</time>
      </trkpt>
      <trkpt lat="43.95696" lon="7.45159">
        <ele>1802.9</ele>
        <time>2017-08-28T09:05:33Z</time>
      </trkpt>
      <trkpt lat="43.9569" lon="7.45165">
        <ele>1802.6</ele>
        <time>2017-08-28T09:05:39Z</time>
      </trkpt>
      <trkpt lat="43.95673" lon="7.45183">
        <ele>1799.6</ele>
        <time>2017-08-28T09:05:56Z</time>
      </trkpt>
      <trkpt lat="43.95658" lon="7.452">
        <ele>1796.5</ele>
        <time>2017-08-28T09:06:12Z</time>
      </trkpt>
      <trkpt lat="43.9565" lon="7.45206">
        <ele>1795.8</ele>
        <time>2017-08-28T09:06:19Z</time>
      </trkpt>
      <trkpt lat="43.95635" lon="7.4522">
        <ele>1794.1</ele>
        <time>2017-08-28T09:06:34Z</time>
      </trkpt>
      <trkpt lat="43.95618" lon="7.4524">
        <ele>1792.4</ele>
        <time>2017-08-28T09:06:52Z</time>
      </trkpt>
      <trkpt lat="43.9561" lon="7.45252">
        <ele>1789.8</ele>
        <time>2017-08-28T09:07:05Z</time>
      </trkpt>
      <trkpt lat="43.95603" lon="7.45261">
        <ele>1788.6</ele>
        <time>2017-08-28T09:07:15Z</time>
      </trkpt>
      <trkpt lat="43.95596" lon="7.4527">
        <ele>1787.4</ele>
        <time>2017-08-28T09:07:23Z</time>
      </trkpt>
      <trkpt lat="43.95585" lon="7.45283">
        <ele>1784.7</ele>
        <time>2017-08-28T09:07:36Z</time>
      </trkpt>
      <trkpt lat="43.95572" lon="7.45301">
        <ele>1780</ele>
        <time>2017-08-28T09:07:52Z</time>
      </trkpt>
      <trkpt lat="43.95559" lon="7.45315">
        <ele>1777.1</ele>
        <time>2017-08-28T09:08:06Z</time>
      </trkpt>
      <trkpt lat="43.95543" lon="7.45327">
        <ele>1775.4</ele>
        <time>2017-08-28T09:08:21Z</time>
      </trkpt>
      <trkpt lat="43.95541" lon="7.45329">
        <ele>1774.8</ele>
        <time>2017-08-28T09:08:23Z</time>
      </trkpt>
      <trkpt lat="43.95536" lon="7.45334">
        <ele>1773.7</ele>
        <time>2017-08-28T09:08:29Z</time>
      </trkpt>
      <trkpt lat="43.95517" lon="7.45345">
        <ele>1771.7</ele>
        <time>2017-08-28T09:08:46Z</time>
      </trkpt>
      <trkpt lat="43.95498" lon="7.45356">
        <ele>1769.6</ele>
        <time>2017-08-28T09:09:03Z</time>
      </trkpt>
      <trkpt lat="43.95491" lon="7.45361">
        <ele>1768.7</ele>
        <time>2017-08-28T09:09:09Z</time>
      </trkpt>
      <trkpt lat="43.95473" lon="7.45374">
        <ele>1766.3</ele>
        <time>2017-08-28T09:09:26Z</time>
      </trkpt>
      <trkpt lat="43.95455" lon="7.45382">
        <ele>1763.5</ele>
        <time>2017-08-28T09:09:42Z</time>
      </trkpt>
      <trkpt lat="43.95433" lon="7.45383">
        <ele>1763.4</ele>
        <time>2017-08-28T09:09:59Z</time>
      </trkpt>
      <trkpt lat="43.95427" lon="7.45385">
        <ele>1762.7</ele>
        <time>2017-08-28T09:10:05Z</time>
      </trkpt>
      <trkpt lat="43.95414" lon="7.45391">
        <ele>1760.1</ele>
        <time>2017-08-28T09:10:16Z</time>
      </trkpt>
      <trkpt lat="43.95408" lon="7.45392">
        <ele>1760</ele>
        <time>2017-08-28T09:10:22Z</time>
      </trkpt>
      <trkpt lat="43.95389" lon="7.45398">
        <ele>1758</ele>
        <time>2017-08-28T09:10:38Z</time>
      </trkpt>
      <trkpt lat="43.95368" lon="7.45404">
        <ele>1756</ele>
        <time>2017-08-28T09:10:54Z</time>
      </trkpt>
      <trkpt lat="43.9535" lon="7.45408">
        <ele>1755.1</ele>
        <time>2017-08-28T09:11:08Z</time>
      </trkpt>
      <trkpt lat="43.9533" lon="7.45412">
        <ele>1754.4</ele>
        <time>2017-08-28T09:11:23Z</time>
      </trkpt>
      <trkpt lat="43.95327" lon="7.45414">
        <ele>1753.8</ele>
        <time>2017-08-28T09:11:26Z</time>
      </trkpt>
      <trkpt lat="43.95321" lon="7.45415">
        <ele>1754</ele>
        <time>2017-08-28T09:11:30Z</time>
      </trkpt>
      <trkpt lat="43.95301" lon="7.45422">
        <ele>1752.9</ele>
        <time>2017-08-28T09:11:46Z</time>
      </trkpt>
      <trkpt lat="43.9529" lon="7.45429">
        <ele>1750.4</ele>
        <time>2017-08-28T09:11:55Z</time>
      </trkpt>
      <trkpt lat="43.95286" lon="7.45432">
        <ele>1749.9</ele>
        <time>2017-08-28T09:11:59Z</time>
      </trkpt>
      <trkpt lat="43.95267" lon="7.45442">
        <ele>1746.9</ele>
        <time>2017-08-28T09:12:15Z</time>
      </trkpt>
      <trkpt lat="43.95259" lon="7.45445">
        <ele>1745.6</ele>
        <time>2017-08-28T09:12:31Z</time>
      </trkpt>
      <trkpt lat="43.95259" lon="7.45445">
        <ele>1745.6</ele>
        <time>2017-08-28T09:12:48Z</time>
      </trkpt>
      <trkpt lat="43.95259" lon="7.45446">
        <ele>1745.6</ele>
        <time>2017-08-28T09:13:11Z</time>
      </trkpt>
      <trkpt lat="43.95259" lon="7.45446">
        <ele>1745.6</ele>
        <time>2017-08-28T09:13:42Z</time>
      </trkpt>
      <trkpt lat="43.9526" lon="7.45446">
        <ele>1745.5</ele>
        <time>2017-08-28T09:14:06Z</time>
      </trkpt>
      <trkpt lat="43.95259" lon="7.45446">
        <ele>1745.6</ele>
        <time>2017-08-28T09:14:38Z</time>
      </trkpt>
      <trkpt lat="43.95259" lon="7.45446">
        <ele>1745.6</ele>
        <time>2017-08-28T09:15:00Z</time>
      </trkpt>
      <trkpt lat="43.9526" lon="7.45446">
        <ele>1745.7</ele>
        <time>2017-08-28T09:15:31Z</time>
      </trkpt>
      <trkpt lat="43.9526" lon="7.45447">
        <ele>1745.5</ele>
        <time>2017-08-28T09:15:54Z</time>
      </trkpt>
      <trkpt lat="43.9526" lon="7.45447">
        <ele>1745.5</ele>
        <time>2017-08-28T09:16:13Z</time>
      </trkpt>
      <trkpt lat="43.9526" lon="7.45447">
        <ele>1745.5</ele>
        <time>2017-08-28T09:16:42Z</time>
      </trkpt>
      <trkpt lat="43.9526" lon="7.45447">
        <ele>1745.5</ele>
        <time>2017-08-28T09:17:06Z</time>
      </trkpt>
      <trkpt lat="43.9526" lon="7.45447">
        <ele>1745.6</ele>
        <time>2017-08-28T09:17:29Z</time>
      </trkpt>
      <trkpt lat="43.9526" lon="7.45446">
        <ele>1745.6</ele>
        <time>2017-08-28T09:17:57Z</time>
      </trkpt>
      <trkpt lat="43.9526" lon="7.45446">
        <ele>1745.6</ele>
        <time>2017-08-28T09:18:14Z</time>
      </trkpt>
      <trkpt lat="43.95259" lon="7.45445">
        <ele>1745.6</ele>
        <time>2017-08-28T09:18:38Z</time>
      </trkpt>
      <trkpt lat="43.95259" lon="7.45445">
        <ele>1745.6</ele>
        <time>2017-08-28T09:19:02Z</time>
      </trkpt>
      <trkpt lat="43.95259" lon="7.45445">
        <ele>1745.6</ele>
        <time>2017-08-28T09:19:25Z</time>
      </trkpt>
      <trkpt lat="43.95259" lon="7.45445">
        <ele>1745.6</ele>
        <time>2017-08-28T09:19:54Z</time>
      </trkpt>
      <trkpt lat="43.95259" lon="7.45445">
        <ele>1745.6</ele>
        <time>2017-08-28T09:20:15Z</time>
      </trkpt>
      <trkpt lat="43.95259" lon="7.45445">
        <ele>1745.7</ele>
        <time>2017-08-28T09:20:36Z</time>
      </trkpt>
      <trkpt lat="43.95259" lon="7.45445">
        <ele>1745.7</ele>
        <time>2017-08-28T09:21:06Z</time>
      </trkpt>
      <trkpt lat="43.9526" lon="7.45445">
        <ele>1745.7</ele>
        <time>2017-08-28T09:21:37Z</time>
      </trkpt>
      <trkpt lat="43.9526" lon="7.45445">
        <ele>1745.7</ele>
        <time>2017-08-28T09:22:02Z</time>
      </trkpt>
      <trkpt lat="43.9526" lon="7.45445">
        <ele>1745.7</ele>
        <time>2017-08-28T09:22:28Z</time>
      </trkpt>
      <trkpt lat="43.9526" lon="7.45444">
        <ele>1745.8</ele>
        <time>2017-08-28T09:23:05Z</time>
      </trkpt>
      <trkpt lat="43.9526" lon="7.45444">
        <ele>1745.8</ele>
        <time>2017-08-28T09:23:26Z</time>
      </trkpt>
      <trkpt lat="43.95258" lon="7.45446">
        <ele>1745.4</ele>
        <time>2017-08-28T09:23:52Z</time>
      </trkpt>
      <trkpt lat="43.95258" lon="7.45446">
        <ele>1745.4</ele>
        <time>2017-08-28T09:24:09Z</time>
      </trkpt>
      <trkpt lat="43.95258" lon="7.45446">
        <ele>1745.4</ele>
        <time>2017-08-28T09:24:34Z</time>
      </trkpt>
      <trkpt lat="43.95259" lon="7.45446">
        <ele>1745.5</ele>
        <time>2017-08-28T09:25:00Z</time>
      </trkpt>
      <trkpt lat="43.95259" lon="7.45445">
        <ele>1745.5</ele>
        <time>2017-08-28T09:25:29Z</time>
      </trkpt>
      <trkpt lat="43.95259" lon="7.45445">
        <ele>1745.5</ele>
        <time>2017-08-28T09:25:53Z</time>
      </trkpt>
      <trkpt lat="43.95259" lon="7.45445">
        <ele>1745.5</ele>
        <time>2017-08-28T09:26:18Z</time>
      </trkpt>
      <trkpt lat="43.95248" lon="7.45454">
        <ele>1743.7</ele>
        <time>2017-08-28T09:26:34Z</time>
      </trkpt>
      <trkpt lat="43.95245" lon="7.4546">
        <ele>1743.2</ele>
        <time>2017-08-28T09:26:47Z</time>
      </trkpt>
      <trkpt lat="43.95245" lon="7.4546">
        <ele>1743.2</ele>
        <time>2017-08-28T09:26:49Z</time>
      </trkpt>
      <trkpt lat="43.95241" lon="7.45462">
        <ele>1742.6</ele>
        <time>2017-08-28T09:26:52Z</time>
      </trkpt>
      <trkpt lat="43.95236" lon="7.45468">
        <ele>1742.7</ele>
        <time>2017-08-28T09:26:58Z</time>
      </trkpt>
      <trkpt lat="43.95236" lon="7.45471">
        <ele>1743.2</ele>
        <time>2017-08-28T09:27:01Z</time>
      </trkpt>
      <trkpt lat="43.95218" lon="7.4547">
        <ele>1739.6</ele>
        <time>2017-08-28T09:27:13Z</time>
      </trkpt>
      <trkpt lat="43.95215" lon="7.45473">
        <ele>1739</ele>
        <time>2017-08-28T09:27:16Z</time>
      </trkpt>
      <trkpt lat="43.95211" lon="7.45477">
        <ele>1738.1</ele>
        <time>2017-08-28T09:27:20Z</time>
      </trkpt>
      <trkpt lat="43.95195" lon="7.45494">
        <ele>1738</ele>
        <time>2017-08-28T09:27:34Z</time>
      </trkpt>
      <trkpt lat="43.95181" lon="7.45513">
        <ele>1737.6</ele>
        <time>2017-08-28T09:27:49Z</time>
      </trkpt>
      <trkpt lat="43.95178" lon="7.45517">
        <ele>1737.5</ele>
        <time>2017-08-28T09:27:52Z</time>
      </trkpt>
      <trkpt lat="43.95164" lon="7.45535">
        <ele>1739.8</ele>
        <time>2017-08-28T09:28:07Z</time>
      </trkpt>
      <trkpt lat="43.95159" lon="7.45544">
        <ele>1741.3</ele>
        <time>2017-08-28T09:28:14Z</time>
      </trkpt>
      <trkpt lat="43.95153" lon="7.45547">
        <ele>1740</ele>
        <time>2017-08-28T09:28:19Z</time>
      </trkpt>
      <trkpt lat="43.95135" lon="7.45557">
        <ele>1738.5</ele>
        <time>2017-08-28T09:28:34Z</time>
      </trkpt>
      <trkpt lat="43.95128" lon="7.45561">
        <ele>1739.5</ele>
        <time>2017-08-28T09:28:41Z</time>
      </trkpt>
      <trkpt lat="43.95123" lon="7.45563">
        <ele>1739.2</ele>
        <time>2017-08-28T09:28:47Z</time>
      </trkpt>
      <trkpt lat="43.95118" lon="7.45568">
        <ele>1740.8</ele>
        <time>2017-08-28T09:28:59Z</time>
      </trkpt>
      <trkpt lat="43.95114" lon="7.45568">
        <ele>1740.2</ele>
        <time>2017-08-28T09:29:03Z</time>
      </trkpt>
      <trkpt lat="43.95105" lon="7.4557">
        <ele>1739</ele>
        <time>2017-08-28T09:29:16Z</time>
      </trkpt>
      <trkpt lat="43.95107" lon="7.45569">
        <ele>1738.9</ele>
        <time>2017-08-28T09:29:20Z</time>
      </trkpt>
      <trkpt lat="43.95114" lon="7.45573">
        <ele>1743</ele>
        <time>2017-08-28T09:29:32Z</time>
      </trkpt>
      <trkpt lat="43.95115" lon="7.45575">
        <ele>1744.5</ele>
        <time>2017-08-28T09:29:34Z</time>
      </trkpt>
      <trkpt lat="43.95118" lon="7.45581">
        <ele>1748.5</ele>
        <time>2017-08-28T09:29:40Z</time>
      </trkpt>
      <trkpt lat="43.95118" lon="7.45584">
        <ele>1750.2</ele>
        <time>2017-08-28T09:29:44Z</time>
      </trkpt>
      <trkpt lat="43.95125" lon="7.45591">
        <ele>1755.6</ele>
        <time>2017-08-28T09:29:57Z</time>
      </trkpt>
      <trkpt lat="43.95132" lon="7.45595">
        <ele>1758.4</ele>
        <time>2017-08-28T09:30:10Z</time>
      </trkpt>
      <trkpt lat="43.95136" lon="7.45597">
        <ele>1759.7</ele>
        <time>2017-08-28T09:30:20Z</time>
      </trkpt>
      <trkpt lat="43.95136" lon="7.45597">
        <ele>1759.4</ele>
        <time>2017-08-28T09:30:21Z</time>
      </trkpt>
      <trkpt lat="43.95132" lon="7.45599">
        <ele>1760.1</ele>
        <time>2017-08-28T09:30:25Z</time>
      </trkpt>
      <trkpt lat="43.95112" lon="7.4561">
        <ele>1765.3</ele>
        <time>2017-08-28T09:30:43Z</time>
      </trkpt>
      <trkpt lat="43.95104" lon="7.45612">
        <ele>1765.9</ele>
        <time>2017-08-28T09:30:55Z</time>
      </trkpt>
      <trkpt lat="43.95103" lon="7.45614">
        <ele>1766.4</ele>
        <time>2017-08-28T09:30:59Z</time>
      </trkpt>
      <trkpt lat="43.95098" lon="7.45619">
        <ele>1768.3</ele>
        <time>2017-08-28T09:31:09Z</time>
      </trkpt>
      <trkpt lat="43.95089" lon="7.45619">
        <ele>1768.4</ele>
        <time>2017-08-28T09:31:23Z</time>
      </trkpt>
      <trkpt lat="43.95087" lon="7.4562">
        <ele>1768.9</ele>
        <time>2017-08-28T09:31:26Z</time>
      </trkpt>
      <trkpt lat="43.95084" lon="7.45622">
        <ele>1769.8</ele>
        <time>2017-08-28T09:31:28Z</time>
      </trkpt>
      <trkpt lat="43.9508" lon="7.45625">
        <ele>1771.1</ele>
        <time>2017-08-28T09:31:32Z</time>
      </trkpt>
      <trkpt lat="43.95078" lon="7.45629">
        <ele>1772.8</ele>
        <time>2017-08-28T09:31:36Z</time>
      </trkpt>
      <trkpt lat="43.9507" lon="7.45648">
        <ele>1781.7</ele>
        <time>2017-08-28T09:31:52Z</time>
      </trkpt>
      <trkpt lat="43.95068" lon="7.4565">
        <ele>1782.7</ele>
        <time>2017-08-28T09:31:54Z</time>
      </trkpt>
      <trkpt lat="43.95056" lon="7.45659">
        <ele>1788.3</ele>
        <time>2017-08-28T09:32:10Z</time>
      </trkpt>
      <trkpt lat="43.95053" lon="7.45659">
        <ele>1788.5</ele>
        <time>2017-08-28T09:32:14Z</time>
      </trkpt>
      <trkpt lat="43.95049" lon="7.4566">
        <ele>1788.8</ele>
        <time>2017-08-28T09:32:20Z</time>
      </trkpt>
      <trkpt lat="43.95039" lon="7.45662">
        <ele>1789.4</ele>
        <time>2017-08-28T09:32:35Z</time>
      </trkpt>
      <trkpt lat="43.95027" lon="7.45665">
        <ele>1790.9</ele>
        <time>2017-08-28T09:32:49Z</time>
      </trkpt>
      <trkpt lat="43.95023" lon="7.45665">
        <ele>1790.3</ele>
        <time>2017-08-28T09:32:53Z</time>
      </trkpt>
      <trkpt lat="43.95016" lon="7.4567">
        <ele>1791.5</ele>
        <time>2017-08-28T09:33:02Z</time>
      </trkpt>
      <trkpt lat="43.95004" lon="7.4568">
        <ele>1794.3</ele>
        <time>2017-08-28T09:33:20Z</time>
      </trkpt>
      <trkpt lat="43.95004" lon="7.45684">
        <ele>1796.3</ele>
        <time>2017-08-28T09:33:25Z</time>
      </trkpt>
      <trkpt lat="43.95002" lon="7.45688">
        <ele>1797.8</ele>
        <time>2017-08-28T09:33:29Z</time>
      </trkpt>
      <trkpt lat="43.94993" lon="7.45705">
        <ele>1801.2</ele>
        <time>2017-08-28T09:33:43Z</time>
      </trkpt>
      <trkpt lat="43.94981" lon="7.45715">
        <ele>1800.8</ele>
        <time>2017-08-28T09:33:54Z</time>
      </trkpt>
      <trkpt lat="43.9498" lon="7.45717">
        <ele>1801.2</ele>
        <time>2017-08-28T09:33:56Z</time>
      </trkpt>
      <trkpt lat="43.94973" lon="7.4573">
        <ele>1804.3</ele>
        <time>2017-08-28T09:34:07Z</time>
      </trkpt>
      <trkpt lat="43.94969" lon="7.45733">
        <ele>1804</ele>
        <time>2017-08-28T09:34:11Z</time>
      </trkpt>
      <trkpt lat="43.94963" lon="7.45742">
        <ele>1806</ele>
        <time>2017-08-28T09:34:19Z</time>
      </trkpt>
      <trkpt lat="43.94952" lon="7.45748">
        <ele>1805.9</ele>
        <time>2017-08-28T09:34:30Z</time>
      </trkpt>
      <trkpt lat="43.9494" lon="7.4575">
        <ele>1805.1</ele>
        <time>2017-08-28T09:34:42Z</time>
      </trkpt>
      <trkpt lat="43.94937" lon="7.45751">
        <ele>1805.9</ele>
        <time>2017-08-28T09:34:45Z</time>
      </trkpt>
      <trkpt lat="43.94934" lon="7.45753">
        <ele>1806.9</ele>
        <time>2017-08-28T09:34:49Z</time>
      </trkpt>
      <trkpt lat="43.94925" lon="7.45753">
        <ele>1807.6</ele>
        <time>2017-08-28T09:34:56Z</time>
      </trkpt>
      <trkpt lat="43.94914" lon="7.45755">
        <ele>1808.6</ele>
        <time>2017-08-28T09:35:08Z</time>
      </trkpt>
      <trkpt lat="43.94903" lon="7.45756">
        <ele>1808.8</ele>
        <time>2017-08-28T09:35:18Z</time>
      </trkpt>
      <trkpt lat="43.94883" lon="7.45755">
        <ele>1806</ele>
        <time>2017-08-28T09:35:34Z</time>
      </trkpt>
      <trkpt lat="43.94872" lon="7.45756">
        <ele>1803.6</ele>
        <time>2017-08-28T09:35:44Z</time>
      </trkpt>
      <trkpt lat="43.94855" lon="7.45763">
        <ele>1801.2</ele>
        <time>2017-08-28T09:35:59Z</time>
      </trkpt>
      <trkpt lat="43.94849" lon="7.4577">
        <ele>1801.4</ele>
        <time>2017-08-28T09:36:12Z</time>
      </trkpt>
      <trkpt lat="43.94849" lon="7.45773">
        <ele>1802.3</ele>
        <time>2017-08-28T09:36:14Z</time>
      </trkpt>
      <trkpt lat="43.94852" lon="7.45781">
        <ele>1803.6</ele>
        <time>2017-08-28T09:36:27Z</time>
      </trkpt>
      <trkpt lat="43.94848" lon="7.45769">
        <ele>1800.8</ele>
        <time>2017-08-28T09:36:42Z</time>
      </trkpt>
      <trkpt lat="43.94847" lon="7.45766">
        <ele>1800</ele>
        <time>2017-08-28T09:36:51Z</time>
      </trkpt>
      <trkpt lat="43.94847" lon="7.45766">
        <ele>1799.9</ele>
        <time>2017-08-28T09:37:10Z</time>
      </trkpt>
      <trkpt lat="43.94847" lon="7.45767">
        <ele>1799.9</ele>
        <time>2017-08-28T09:37:26Z</time>
      </trkpt>
      <trkpt lat="43.94847" lon="7.45766">
        <ele>1799.9</ele>
        <time>2017-08-28T09:37:30Z</time>
      </trkpt>
      <trkpt lat="43.94844" lon="7.45766">
        <ele>1798.9</ele>
        <time>2017-08-28T09:37:35Z</time>
      </trkpt>
      <trkpt lat="43.9484" lon="7.45764">
        <ele>1796.9</ele>
        <time>2017-08-28T09:37:41Z</time>
      </trkpt>
      <trkpt lat="43.94839" lon="7.45758">
        <ele>1795.3</ele>
        <time>2017-08-28T09:37:52Z</time>
      </trkpt>
      <trkpt lat="43.94843" lon="7.45757">
        <ele>1796</ele>
        <time>2017-08-28T09:38:05Z</time>
      </trkpt>
      <trkpt lat="43.94842" lon="7.45756">
        <ele>1795.8</ele>
        <time>2017-08-28T09:38:11Z</time>
      </trkpt>
      <trkpt lat="43.94842" lon="7.45751">
        <ele>1794.6</ele>
        <time>2017-08-28T09:38:24Z</time>
      </trkpt>
      <trkpt lat="43.94843" lon="7.45751">
        <ele>1794.4</ele>
        <time>2017-08-28T09:38:25Z</time>
      </trkpt>
      <trkpt lat="43.94846" lon="7.45743">
        <ele>1789.3</ele>
        <time>2017-08-28T09:38:38Z</time>
      </trkpt>
      <trkpt lat="43.94848" lon="7.4574">
        <ele>1787.8</ele>
        <time>2017-08-28T09:38:42Z</time>
      </trkpt>
      <trkpt lat="43.94852" lon="7.45731">
        <ele>1781</ele>
        <time>2017-08-28T09:38:50Z</time>
      </trkpt>
      <trkpt lat="43.94854" lon="7.45725">
        <ele>1776.6</ele>
        <time>2017-08-28T09:38:58Z</time>
      </trkpt>
      <trkpt lat="43.94859" lon="7.45715">
        <ele>1768.1</ele>
        <time>2017-08-28T09:39:05Z</time>
      </trkpt>
      <trkpt lat="43.94864" lon="7.45712">
        <ele>1765.7</ele>
        <time>2017-08-28T09:39:10Z</time>
      </trkpt>
      <trkpt lat="43.94866" lon="7.45709">
        <ele>1763.3</ele>
        <time>2017-08-28T09:39:14Z</time>
      </trkpt>
      <trkpt lat="43.9487" lon="7.45706">
        <ele>1760.6</ele>
        <time>2017-08-28T09:39:26Z</time>
      </trkpt>
      <trkpt lat="43.94875" lon="7.45703">
        <ele>1758</ele>
        <time>2017-08-28T09:39:40Z</time>
      </trkpt>
      <trkpt lat="43.9488" lon="7.457">
        <ele>1755.6</ele>
        <time>2017-08-28T09:39:53Z</time>
      </trkpt>
      <trkpt lat="43.94889" lon="7.45701">
        <ele>1757.1</ele>
        <time>2017-08-28T09:40:07Z</time>
      </trkpt>
      <trkpt lat="43.94896" lon="7.45695">
        <ele>1752.6</ele>
        <time>2017-08-28T09:40:17Z</time>
      </trkpt>
      <trkpt lat="43.94902" lon="7.45692">
        <ele>1752.1</ele>
        <time>2017-08-28T09:40:31Z</time>
      </trkpt>
      <trkpt lat="43.94906" lon="7.45689">
        <ele>1751.3</ele>
        <time>2017-08-28T09:40:42Z</time>
      </trkpt>
      <trkpt lat="43.94906" lon="7.45689">
        <ele>1751.7</ele>
        <time>2017-08-28T09:40:57Z</time>
      </trkpt>
      <trkpt lat="43.94908" lon="7.45689">
        <ele>1752.4</ele>
        <time>2017-08-28T09:40:59Z</time>
      </trkpt>
      <trkpt lat="43.94915" lon="7.45687">
        <ele>1753</ele>
        <time>2017-08-28T09:41:06Z</time>
      </trkpt>
      <trkpt lat="43.94917" lon="7.45683">
        <ele>1751.5</ele>
        <time>2017-08-28T09:41:08Z</time>
      </trkpt>
      <trkpt lat="43.94927" lon="7.45676">
        <ele>1753.4</ele>
        <time>2017-08-28T09:41:20Z</time>
      </trkpt>
      <trkpt lat="43.94931" lon="7.45675">
        <ele>1755</ele>
        <time>2017-08-28T09:41:30Z</time>
      </trkpt>
      <trkpt lat="43.94949" lon="7.45673">
        <ele>1764.5</ele>
        <time>2017-08-28T09:41:42Z</time>
      </trkpt>
      <trkpt lat="43.94956" lon="7.45668">
        <ele>1766.7</ele>
        <time>2017-08-28T09:41:53Z</time>
      </trkpt>
      <trkpt lat="43.94959" lon="7.45669">
        <ele>1768.5</ele>
        <time>2017-08-28T09:42:00Z</time>
      </trkpt>
      <trkpt lat="43.94961" lon="7.4567">
        <ele>1769.9</ele>
        <time>2017-08-28T09:42:13Z</time>
      </trkpt>
      <trkpt lat="43.94964" lon="7.45671">
        <ele>1772.5</ele>
        <time>2017-08-28T09:42:20Z</time>
      </trkpt>
      <trkpt lat="43.94968" lon="7.45669">
        <ele>1773.9</ele>
        <time>2017-08-28T09:42:34Z</time>
      </trkpt>
      <trkpt lat="43.94968" lon="7.45669">
        <ele>1773.9</ele>
        <time>2017-08-28T09:42:39Z</time>
      </trkpt>
      <trkpt lat="43.94968" lon="7.45667">
        <ele>1772.6</ele>
        <time>2017-08-28T09:42:47Z</time>
      </trkpt>
      <trkpt lat="43.94965" lon="7.4566">
        <ele>1766.8</ele>
        <time>2017-08-28T09:43:02Z</time>
      </trkpt>
      <trkpt lat="43.94966" lon="7.45653">
        <ele>1762.6</ele>
        <time>2017-08-28T09:43:07Z</time>
      </trkpt>
      <trkpt lat="43.94965" lon="7.45648">
        <ele>1759</ele>
        <time>2017-08-28T09:43:11Z</time>
      </trkpt>
      <trkpt lat="43.94964" lon="7.45644">
        <ele>1755.9</ele>
        <time>2017-08-28T09:43:14Z</time>
      </trkpt>
      <trkpt lat="43.94961" lon="7.45636">
        <ele>1748.5</ele>
        <time>2017-08-28T09:43:28Z</time>
      </trkpt>
      <trkpt lat="43.94961" lon="7.45634">
        <ele>1747.4</ele>
        <time>2017-08-28T09:43:42Z</time>
      </trkpt>
      <trkpt lat="43.94958" lon="7.45624">
        <ele>1738.6</ele>
        <time>2017-08-28T09:43:53Z</time>
      </trkpt>
      <trkpt lat="43.94957" lon="7.45625">
        <ele>1739.1</ele>
        <time>2017-08-28T09:44:00Z</time>
      </trkpt>
      <trkpt lat="43.94956" lon="7.45626">
        <ele>1738.1</ele>
        <time>2017-08-28T09:44:02Z</time>
      </trkpt>
      <trkpt lat="43.94953" lon="7.45624">
        <ele>1734.8</ele>
        <time>2017-08-28T09:44:06Z</time>
      </trkpt>
      <trkpt lat="43.94951" lon="7.45622">
        <ele>1732.6</ele>
        <time>2017-08-28T09:44:09Z</time>
      </trkpt>
      <trkpt lat="43.94951" lon="7.45622">
        <ele>1732.7</ele>
        <time>2017-08-28T09:44:11Z</time>
      </trkpt>
      <trkpt lat="43.94951" lon="7.45621">
        <ele>1732.1</ele>
        <time>2017-08-28T09:44:16Z</time>
      </trkpt>
      <trkpt lat="43.94949" lon="7.45611">
        <ele>1723.8</ele>
        <time>2017-08-28T09:44:24Z</time>
      </trkpt>
      <trkpt lat="43.94948" lon="7.45611">
        <ele>1724</ele>
        <time>2017-08-28T09:44:25Z</time>
      </trkpt>
      <trkpt lat="43.94944" lon="7.45606">
        <ele>1718</ele>
        <time>2017-08-28T09:44:34Z</time>
      </trkpt>
      <trkpt lat="43.94943" lon="7.45606">
        <ele>1717.4</ele>
        <time>2017-08-28T09:44:35Z</time>
      </trkpt>
      <trkpt lat="43.94938" lon="7.45606">
        <ele>1714.4</ele>
        <time>2017-08-28T09:44:43Z</time>
      </trkpt>
      <trkpt lat="43.94937" lon="7.45606">
        <ele>1714.3</ele>
        <time>2017-08-28T09:44:44Z</time>
      </trkpt>
      <trkpt lat="43.94934" lon="7.4561">
        <ele>1714.1</ele>
        <time>2017-08-28T09:44:49Z</time>
      </trkpt>
      <trkpt lat="43.94928" lon="7.45614">
        <ele>1713.1</ele>
        <time>2017-08-28T09:44:54Z</time>
      </trkpt>
      <trkpt lat="43.94924" lon="7.45617">
        <ele>1713.1</ele>
        <time>2017-08-28T09:44:58Z</time>
      </trkpt>
      <trkpt lat="43.94918" lon="7.45624">
        <ele>1714.3</ele>
        <time>2017-08-28T09:45:04Z</time>
      </trkpt>
      <trkpt lat="43.94917" lon="7.45625">
        <ele>1714.3</ele>
        <time>2017-08-28T09:45:05Z</time>
      </trkpt>
      <trkpt lat="43.94912" lon="7.45627">
        <ele>1714.2</ele>
        <time>2017-08-28T09:45:11Z</time>
      </trkpt>
      <trkpt lat="43.94898" lon="7.45627">
        <ele>1710.5</ele>
        <time>2017-08-28T09:45:23Z</time>
      </trkpt>
      <trkpt lat="43.94897" lon="7.4563">
        <ele>1711.9</ele>
        <time>2017-08-28T09:45:27Z</time>
      </trkpt>
      <trkpt lat="43.94887" lon="7.45638">
        <ele>1714.2</ele>
        <time>2017-08-28T09:45:36Z</time>
      </trkpt>
      <trkpt lat="43.94885" lon="7.45639">
        <ele>1714.8</ele>
        <time>2017-08-28T09:45:38Z</time>
      </trkpt>
      <trkpt lat="43.94878" lon="7.45639">
        <ele>1714.2</ele>
        <time>2017-08-28T09:45:44Z</time>
      </trkpt>
      <trkpt lat="43.94867" lon="7.45635">
        <ele>1710.1</ele>
        <time>2017-08-28T09:45:52Z</time>
      </trkpt>
      <trkpt lat="43.94861" lon="7.45634">
        <ele>1708.8</ele>
        <time>2017-08-28T09:45:59Z</time>
      </trkpt>
      <trkpt lat="43.94856" lon="7.45634">
        <ele>1707.7</ele>
        <time>2017-08-28T09:46:04Z</time>
      </trkpt>
      <trkpt lat="43.94849" lon="7.45627">
        <ele>1701.9</ele>
        <time>2017-08-28T09:46:10Z</time>
      </trkpt>
      <trkpt lat="43.9484" lon="7.45624">
        <ele>1697.9</ele>
        <time>2017-08-28T09:46:19Z</time>
      </trkpt>
      <trkpt lat="43.94833" lon="7.45629">
        <ele>1699.9</ele>
        <time>2017-08-28T09:46:23Z</time>
      </trkpt>
      <trkpt lat="43.94829" lon="7.45638">
        <ele>1703.9</ele>
        <time>2017-08-28T09:46:27Z</time>
      </trkpt>
      <trkpt lat="43.94813" lon="7.45658">
        <ele>1713.1</ele>
        <time>2017-08-28T09:46:39Z</time>
      </trkpt>
      <trkpt lat="43.94791" lon="7.4565">
        <ele>1709.8</ele>
        <time>2017-08-28T09:46:50Z</time>
      </trkpt>
      <trkpt lat="43.94773" lon="7.45632">
        <ele>1702.9</ele>
        <time>2017-08-28T09:46:57Z</time>
      </trkpt>
      <trkpt lat="43.94761" lon="7.45624">
        <ele>1699.8</ele>
        <time>2017-08-28T09:47:01Z</time>
      </trkpt>
      <trkpt lat="43.94737" lon="7.45613">
        <ele>1694</ele>
        <time>2017-08-28T09:47:13Z</time>
      </trkpt>
      <trkpt lat="43.94718" lon="7.4562">
        <ele>1696.9</ele>
        <time>2017-08-28T09:47:26Z</time>
      </trkpt>
      <trkpt lat="43.947" lon="7.45636">
        <ele>1700.3</ele>
        <time>2017-08-28T09:47:40Z</time>
      </trkpt>
      <trkpt lat="43.9468" lon="7.45653">
        <ele>1700.3</ele>
        <time>2017-08-28T09:47:54Z</time>
      </trkpt>
      <trkpt lat="43.94671" lon="7.45662">
        <ele>1700.5</ele>
        <time>2017-08-28T09:48:01Z</time>
      </trkpt>
      <trkpt lat="43.94661" lon="7.45667">
        <ele>1700.6</ele>
        <time>2017-08-28T09:48:06Z</time>
      </trkpt>
      <trkpt lat="43.94638" lon="7.45678">
        <ele>1703.9</ele>
        <time>2017-08-28T09:48:21Z</time>
      </trkpt>
      <trkpt lat="43.94615" lon="7.45678">
        <ele>1703.6</ele>
        <time>2017-08-28T09:48:36Z</time>
      </trkpt>
      <trkpt lat="43.94591" lon="7.4568">
        <ele>1702.7</ele>
        <time>2017-08-28T09:48:51Z</time>
      </trkpt>
      <trkpt lat="43.94578" lon="7.45687">
        <ele>1704.4</ele>
        <time>2017-08-28T09:49:08Z</time>
      </trkpt>
      <trkpt lat="43.94575" lon="7.4569">
        <ele>1704.9</ele>
        <time>2017-08-28T09:49:21Z</time>
      </trkpt>
      <trkpt lat="43.94575" lon="7.4569">
        <ele>1704.9</ele>
        <time>2017-08-28T09:49:48Z</time>
      </trkpt>
      <trkpt lat="43.94575" lon="7.4569">
        <ele>1704.9</ele>
        <time>2017-08-28T09:50:16Z</time>
      </trkpt>
      <trkpt lat="43.94575" lon="7.4569">
        <ele>1704.9</ele>
        <time>2017-08-28T09:50:47Z</time>
      </trkpt>
      <trkpt lat="43.94575" lon="7.4569">
        <ele>1704.9</ele>
        <time>2017-08-28T09:51:23Z</time>
      </trkpt>
      <trkpt lat="43.94575" lon="7.4569">
        <ele>1704.9</ele>
        <time>2017-08-28T09:51:54Z</time>
      </trkpt>
      <trkpt lat="43.94575" lon="7.4569">
        <ele>1705.1</ele>
        <time>2017-08-28T09:52:02Z</time>
      </trkpt>
      <trkpt lat="43.94575" lon="7.45685">
        <ele>1703.6</ele>
        <time>2017-08-28T10:17:09Z</time>
      </trkpt>
      <trkpt lat="43.94574" lon="7.45685">
        <ele>1703.5</ele>
        <time>2017-08-28T10:17:10Z</time>
      </trkpt>
      <trkpt lat="43.94569" lon="7.45685">
        <ele>1703.1</ele>
        <time>2017-08-28T10:17:16Z</time>
      </trkpt>
      <trkpt lat="43.94566" lon="7.45683">
        <ele>1702.5</ele>
        <time>2017-08-28T10:17:20Z</time>
      </trkpt>
      <trkpt lat="43.94546" lon="7.45679">
        <ele>1701.1</ele>
        <time>2017-08-28T10:17:37Z</time>
      </trkpt>
      <trkpt lat="43.9453" lon="7.45682">
        <ele>1702.4</ele>
        <time>2017-08-28T10:17:49Z</time>
      </trkpt>
      <trkpt lat="43.94512" lon="7.45678">
        <ele>1703</ele>
        <time>2017-08-28T10:18:03Z</time>
      </trkpt>
      <trkpt lat="43.94492" lon="7.45666">
        <ele>1703.1</ele>
        <time>2017-08-28T10:18:21Z</time>
      </trkpt>
      <trkpt lat="43.94477" lon="7.45649">
        <ele>1698.8</ele>
        <time>2017-08-28T10:18:37Z</time>
      </trkpt>
      <trkpt lat="43.94453" lon="7.45645">
        <ele>1699.6</ele>
        <time>2017-08-28T10:18:55Z</time>
      </trkpt>
      <trkpt lat="43.94441" lon="7.45644">
        <ele>1700.2</ele>
        <time>2017-08-28T10:19:07Z</time>
      </trkpt>
      <trkpt lat="43.94419" lon="7.45638">
        <ele>1700.3</ele>
        <time>2017-08-28T10:19:26Z</time>
      </trkpt>
      <trkpt lat="43.94398" lon="7.45632">
        <ele>1699.3</ele>
        <time>2017-08-28T10:19:44Z</time>
      </trkpt>
      <trkpt lat="43.94385" lon="7.45623">
        <ele>1695</ele>
        <time>2017-08-28T10:19:57Z</time>
      </trkpt>
      <trkpt lat="43.94371" lon="7.45614">
        <ele>1692.2</ele>
        <time>2017-08-28T10:20:12Z</time>
      </trkpt>
      <trkpt lat="43.94358" lon="7.45611">
        <ele>1693.3</ele>
        <time>2017-08-28T10:20:26Z</time>
      </trkpt>
      <trkpt lat="43.94354" lon="7.45609">
        <ele>1692.1</ele>
        <time>2017-08-28T10:20:30Z</time>
      </trkpt>
      <trkpt lat="43.94337" lon="7.45603">
        <ele>1691.1</ele>
        <time>2017-08-28T10:20:46Z</time>
      </trkpt>
      <trkpt lat="43.94327" lon="7.456">
        <ele>1691.2</ele>
        <time>2017-08-28T10:20:58Z</time>
      </trkpt>
      <trkpt lat="43.94323" lon="7.45598">
        <ele>1691.7</ele>
        <time>2017-08-28T10:21:04Z</time>
      </trkpt>
      <trkpt lat="43.94321" lon="7.45597">
        <ele>1691.9</ele>
        <time>2017-08-28T10:21:07Z</time>
      </trkpt>
      <trkpt lat="43.9431" lon="7.45594">
        <ele>1693.7</ele>
        <time>2017-08-28T10:21:23Z</time>
      </trkpt>
      <trkpt lat="43.94297" lon="7.45584">
        <ele>1693.5</ele>
        <time>2017-08-28T10:21:38Z</time>
      </trkpt>
      <trkpt lat="43.94291" lon="7.45573">
        <ele>1689.9</ele>
        <time>2017-08-28T10:21:53Z</time>
      </trkpt>
      <trkpt lat="43.94285" lon="7.45566">
        <ele>1688.6</ele>
        <time>2017-08-28T10:21:59Z</time>
      </trkpt>
      <trkpt lat="43.94272" lon="7.45554">
        <ele>1688.8</ele>
        <time>2017-08-28T10:22:14Z</time>
      </trkpt>
      <trkpt lat="43.94259" lon="7.45543">
        <ele>1692.1</ele>
        <time>2017-08-28T10:22:30Z</time>
      </trkpt>
      <trkpt lat="43.94256" lon="7.45539">
        <ele>1692.2</ele>
        <time>2017-08-28T10:22:34Z</time>
      </trkpt>
      <trkpt lat="43.94251" lon="7.4552">
        <ele>1689.4</ele>
        <time>2017-08-28T10:22:47Z</time>
      </trkpt>
      <trkpt lat="43.94245" lon="7.45498">
        <ele>1686</ele>
        <time>2017-08-28T10:23:01Z</time>
      </trkpt>
      <trkpt lat="43.9424" lon="7.45473">
        <ele>1678.6</ele>
        <time>2017-08-28T10:23:17Z</time>
      </trkpt>
      <trkpt lat="43.94239" lon="7.45471">
        <ele>1678.1</ele>
        <time>2017-08-28T10:23:18Z</time>
      </trkpt>
      <trkpt lat="43.94237" lon="7.4547">
        <ele>1678.1</ele>
        <time>2017-08-28T10:23:20Z</time>
      </trkpt>
      <trkpt lat="43.94234" lon="7.45469">
        <ele>1679</ele>
        <time>2017-08-28T10:23:23Z</time>
      </trkpt>
      <trkpt lat="43.94214" lon="7.45477">
        <ele>1684.8</ele>
        <time>2017-08-28T10:23:40Z</time>
      </trkpt>
      <trkpt lat="43.94195" lon="7.45487">
        <ele>1687</ele>
        <time>2017-08-28T10:23:57Z</time>
      </trkpt>
      <trkpt lat="43.94181" lon="7.45487">
        <ele>1686</ele>
        <time>2017-08-28T10:24:10Z</time>
      </trkpt>
      <trkpt lat="43.94164" lon="7.45481">
        <ele>1681.5</ele>
        <time>2017-08-28T10:24:26Z</time>
      </trkpt>
      <trkpt lat="43.94146" lon="7.45483">
        <ele>1682.9</ele>
        <time>2017-08-28T10:24:42Z</time>
      </trkpt>
      <trkpt lat="43.94138" lon="7.45485">
        <ele>1684.9</ele>
        <time>2017-08-28T10:24:50Z</time>
      </trkpt>
      <trkpt lat="43.9413" lon="7.45484">
        <ele>1684.7</ele>
        <time>2017-08-28T10:24:57Z</time>
      </trkpt>
      <trkpt lat="43.94114" lon="7.45475">
        <ele>1680.6</ele>
        <time>2017-08-28T10:25:14Z</time>
      </trkpt>
      <trkpt lat="43.94106" lon="7.45476">
        <ele>1681.8</ele>
        <time>2017-08-28T10:25:23Z</time>
      </trkpt>
      <trkpt lat="43.941" lon="7.45479">
        <ele>1684.5</ele>
        <time>2017-08-28T10:25:32Z</time>
      </trkpt>
      <trkpt lat="43.94098" lon="7.45479">
        <ele>1684.3</ele>
        <time>2017-08-28T10:25:34Z</time>
      </trkpt>
      <trkpt lat="43.94091" lon="7.45476">
        <ele>1683.3</ele>
        <time>2017-08-28T10:25:46Z</time>
      </trkpt>
      <trkpt lat="43.94084" lon="7.45474">
        <ele>1682.9</ele>
        <time>2017-08-28T10:25:53Z</time>
      </trkpt>
      <trkpt lat="43.9407" lon="7.45459">
        <ele>1677.7</ele>
        <time>2017-08-28T10:26:13Z</time>
      </trkpt>
      <trkpt lat="43.94061" lon="7.45448">
        <ele>1675.6</ele>
        <time>2017-08-28T10:26:28Z</time>
      </trkpt>
      <trkpt lat="43.94055" lon="7.45433">
        <ele>1672</ele>
        <time>2017-08-28T10:26:41Z</time>
      </trkpt>
      <trkpt lat="43.94055" lon="7.45431">
        <ele>1671.5</ele>
        <time>2017-08-28T10:26:46Z</time>
      </trkpt>
      <trkpt lat="43.94054" lon="7.45428">
        <ele>1670.6</ele>
        <time>2017-08-28T10:26:49Z</time>
      </trkpt>
      <trkpt lat="43.94048" lon="7.45404">
        <ele>1666.6</ele>
        <time>2017-08-28T10:27:05Z</time>
      </trkpt>
      <trkpt lat="43.94046" lon="7.45389">
        <ele>1663</ele>
        <time>2017-08-28T10:27:21Z</time>
      </trkpt>
      <trkpt lat="43.94038" lon="7.45384">
        <ele>1667.3</ele>
        <time>2017-08-28T10:27:29Z</time>
      </trkpt>
      <trkpt lat="43.94025" lon="7.45382">
        <ele>1674.8</ele>
        <time>2017-08-28T10:27:45Z</time>
      </trkpt>
      <trkpt lat="43.94008" lon="7.45379">
        <ele>1679.9</ele>
        <time>2017-08-28T10:28:01Z</time>
      </trkpt>
      <trkpt lat="43.93994" lon="7.45372">
        <ele>1680.4</ele>
        <time>2017-08-28T10:28:17Z</time>
      </trkpt>
      <trkpt lat="43.93987" lon="7.45369">
        <ele>1680.5</ele>
        <time>2017-08-28T10:28:25Z</time>
      </trkpt>
      <trkpt lat="43.93972" lon="7.45359">
        <ele>1680.3</ele>
        <time>2017-08-28T10:28:40Z</time>
      </trkpt>
      <trkpt lat="43.93963" lon="7.45354">
        <ele>1681.5</ele>
        <time>2017-08-28T10:28:55Z</time>
      </trkpt>
      <trkpt lat="43.93963" lon="7.45353">
        <ele>1681.3</ele>
        <time>2017-08-28T10:28:56Z</time>
      </trkpt>
      <trkpt lat="43.93951" lon="7.45333">
        <ele>1677.3</ele>
        <time>2017-08-28T10:29:13Z</time>
      </trkpt>
      <trkpt lat="43.93942" lon="7.45311">
        <ele>1672.9</ele>
        <time>2017-08-28T10:29:29Z</time>
      </trkpt>
      <trkpt lat="43.9394" lon="7.45296">
        <ele>1669.3</ele>
        <time>2017-08-28T10:29:41Z</time>
      </trkpt>
      <trkpt lat="43.93933" lon="7.45274">
        <ele>1667.4</ele>
        <time>2017-08-28T10:29:57Z</time>
      </trkpt>
      <trkpt lat="43.93928" lon="7.45257">
        <ele>1666.8</ele>
        <time>2017-08-28T10:30:12Z</time>
      </trkpt>
      <trkpt lat="43.93926" lon="7.45243">
        <ele>1664.3</ele>
        <time>2017-08-28T10:30:24Z</time>
      </trkpt>
      <trkpt lat="43.93917" lon="7.4522">
        <ele>1664.2</ele>
        <time>2017-08-28T10:30:41Z</time>
      </trkpt>
      <trkpt lat="43.93905" lon="7.4521">
        <ele>1668.6</ele>
        <time>2017-08-28T10:30:54Z</time>
      </trkpt>
      <trkpt lat="43.93898" lon="7.45203">
        <ele>1671.1</ele>
        <time>2017-08-28T10:31:08Z</time>
      </trkpt>
      <trkpt lat="43.93888" lon="7.45195">
        <ele>1673.6</ele>
        <time>2017-08-28T10:31:22Z</time>
      </trkpt>
      <trkpt lat="43.93878" lon="7.45184">
        <ele>1675.9</ele>
        <time>2017-08-28T10:31:35Z</time>
      </trkpt>
      <trkpt lat="43.93878" lon="7.45183">
        <ele>1676</ele>
        <time>2017-08-28T10:31:36Z</time>
      </trkpt>
      <trkpt lat="43.93879" lon="7.45176">
        <ele>1673.8</ele>
        <time>2017-08-28T10:31:41Z</time>
      </trkpt>
      <trkpt lat="43.93879" lon="7.45173">
        <ele>1672.9</ele>
        <time>2017-08-28T10:31:43Z</time>
      </trkpt>
      <trkpt lat="43.93878" lon="7.4517">
        <ele>1672.6</ele>
        <time>2017-08-28T10:31:45Z</time>
      </trkpt>
      <trkpt lat="43.93871" lon="7.45146">
        <ele>1669.6</ele>
        <time>2017-08-28T10:32:01Z</time>
      </trkpt>
      <trkpt lat="43.93867" lon="7.45136">
        <ele>1669.7</ele>
        <time>2017-08-28T10:32:17Z</time>
      </trkpt>
      <trkpt lat="43.93866" lon="7.4511">
        <ele>1666</ele>
        <time>2017-08-28T10:32:31Z</time>
      </trkpt>
      <trkpt lat="43.93866" lon="7.4509">
        <ele>1666.3</ele>
        <time>2017-08-28T10:32:45Z</time>
      </trkpt>
      <trkpt lat="43.93867" lon="7.45088">
        <ele>1665.7</ele>
        <time>2017-08-28T10:32:46Z</time>
      </trkpt>
      <trkpt lat="43.93868" lon="7.45068">
        <ele>1667.3</ele>
        <time>2017-08-28T10:32:59Z</time>
      </trkpt>
      <trkpt lat="43.93871" lon="7.4505">
        <ele>1667.7</ele>
        <time>2017-08-28T10:33:12Z</time>
      </trkpt>
      <trkpt lat="43.93874" lon="7.45028">
        <ele>1668.9</ele>
        <time>2017-08-28T10:33:26Z</time>
      </trkpt>
      <trkpt lat="43.93875" lon="7.44998">
        <ele>1668.2</ele>
        <time>2017-08-28T10:33:40Z</time>
      </trkpt>
      <trkpt lat="43.93874" lon="7.44972">
        <ele>1665.7</ele>
        <time>2017-08-28T10:33:55Z</time>
      </trkpt>
      <trkpt lat="43.93869" lon="7.44953">
        <ele>1667.4</ele>
        <time>2017-08-28T10:34:09Z</time>
      </trkpt>
      <trkpt lat="43.93877" lon="7.44937">
        <ele>1661.9</ele>
        <time>2017-08-28T10:34:24Z</time>
      </trkpt>
      <trkpt lat="43.93879" lon="7.44934">
        <ele>1661</ele>
        <time>2017-08-28T10:34:28Z</time>
      </trkpt>
      <trkpt lat="43.93889" lon="7.44923">
        <ele>1657</ele>
        <time>2017-08-28T10:34:42Z</time>
      </trkpt>
      <trkpt lat="43.9389" lon="7.44922">
        <ele>1656.8</ele>
        <time>2017-08-28T10:34:45Z</time>
      </trkpt>
      <trkpt lat="43.93893" lon="7.44918">
        <ele>1655.4</ele>
        <time>2017-08-28T10:34:48Z</time>
      </trkpt>
      <trkpt lat="43.93902" lon="7.44897">
        <ele>1656.7</ele>
        <time>2017-08-28T10:35:01Z</time>
      </trkpt>
      <trkpt lat="43.93906" lon="7.44866">
        <ele>1663.9</ele>
        <time>2017-08-28T10:35:18Z</time>
      </trkpt>
      <trkpt lat="43.93913" lon="7.44853">
        <ele>1663.8</ele>
        <time>2017-08-28T10:35:32Z</time>
      </trkpt>
      <trkpt lat="43.93922" lon="7.44838">
        <ele>1662.9</ele>
        <time>2017-08-28T10:35:46Z</time>
      </trkpt>
      <trkpt lat="43.93938" lon="7.44825">
        <ele>1657.3</ele>
        <time>2017-08-28T10:36:02Z</time>
      </trkpt>
      <trkpt lat="43.93945" lon="7.44813">
        <ele>1657.4</ele>
        <time>2017-08-28T10:36:16Z</time>
      </trkpt>
      <trkpt lat="43.93946" lon="7.4481">
        <ele>1657.4</ele>
        <time>2017-08-28T10:36:17Z</time>
      </trkpt>
      <trkpt lat="43.93957" lon="7.4479">
        <ele>1656.8</ele>
        <time>2017-08-28T10:36:31Z</time>
      </trkpt>
      <trkpt lat="43.93964" lon="7.4477">
        <ele>1656.5</ele>
        <time>2017-08-28T10:36:45Z</time>
      </trkpt>
      <trkpt lat="43.93966" lon="7.4476">
        <ele>1657</ele>
        <time>2017-08-28T10:36:50Z</time>
      </trkpt>
      <trkpt lat="43.93971" lon="7.44733">
        <ele>1653.8</ele>
        <time>2017-08-28T10:37:06Z</time>
      </trkpt>
      <trkpt lat="43.93962" lon="7.44713">
        <ele>1652.3</ele>
        <time>2017-08-28T10:37:21Z</time>
      </trkpt>
      <trkpt lat="43.93945" lon="7.447">
        <ele>1652.4</ele>
        <time>2017-08-28T10:37:36Z</time>
      </trkpt>
      <trkpt lat="43.93928" lon="7.44684">
        <ele>1650.1</ele>
        <time>2017-08-28T10:37:53Z</time>
      </trkpt>
      <trkpt lat="43.93915" lon="7.44675">
        <ele>1649.5</ele>
        <time>2017-08-28T10:38:05Z</time>
      </trkpt>
      <trkpt lat="43.93908" lon="7.44672">
        <ele>1651.2</ele>
        <time>2017-08-28T10:38:11Z</time>
      </trkpt>
      <trkpt lat="43.93896" lon="7.44665">
        <ele>1653.4</ele>
        <time>2017-08-28T10:38:26Z</time>
      </trkpt>
      <trkpt lat="43.93893" lon="7.44662">
        <ele>1653.1</ele>
        <time>2017-08-28T10:38:29Z</time>
      </trkpt>
      <trkpt lat="43.93885" lon="7.44644">
        <ele>1649.5</ele>
        <time>2017-08-28T10:38:44Z</time>
      </trkpt>
      <trkpt lat="43.9388" lon="7.44627">
        <ele>1644.1</ele>
        <time>2017-08-28T10:38:58Z</time>
      </trkpt>
      <trkpt lat="43.93872" lon="7.4461">
        <ele>1641.7</ele>
        <time>2017-08-28T10:39:13Z</time>
      </trkpt>
      <trkpt lat="43.93862" lon="7.44595">
        <ele>1641.8</ele>
        <time>2017-08-28T10:39:29Z</time>
      </trkpt>
      <trkpt lat="43.93862" lon="7.44595">
        <ele>1642</ele>
        <time>2017-08-28T10:39:57Z</time>
      </trkpt>
      <trkpt lat="43.93862" lon="7.44595">
        <ele>1641.9</ele>
        <time>2017-08-28T10:40:32Z</time>
      </trkpt>
      <trkpt lat="43.93863" lon="7.44595">
        <ele>1641.6</ele>
        <time>2017-08-28T10:40:50Z</time>
      </trkpt>
      <trkpt lat="43.93863" lon="7.44595">
        <ele>1641.6</ele>
        <time>2017-08-28T10:41:01Z</time>
      </trkpt>
      <trkpt lat="43.93855" lon="7.44583">
        <ele>1641.5</ele>
        <time>2017-08-28T10:41:12Z</time>
      </trkpt>
      <trkpt lat="43.93848" lon="7.44568">
        <ele>1641.4</ele>
        <time>2017-08-28T10:41:21Z</time>
      </trkpt>
      <trkpt lat="43.93841" lon="7.44554">
        <ele>1641</ele>
        <time>2017-08-28T10:41:30Z</time>
      </trkpt>
      <trkpt lat="43.93835" lon="7.44544">
        <ele>1641.8</ele>
        <time>2017-08-28T10:41:36Z</time>
      </trkpt>
      <trkpt lat="43.93826" lon="7.44517">
        <ele>1638.6</ele>
        <time>2017-08-28T10:41:53Z</time>
      </trkpt>
      <trkpt lat="43.93818" lon="7.44494">
        <ele>1636.3</ele>
        <time>2017-08-28T10:42:06Z</time>
      </trkpt>
      <trkpt lat="43.93806" lon="7.44464">
        <ele>1634.3</ele>
        <time>2017-08-28T10:42:22Z</time>
      </trkpt>
      <trkpt lat="43.93797" lon="7.44446">
        <ele>1633.1</ele>
        <time>2017-08-28T10:42:35Z</time>
      </trkpt>
      <trkpt lat="43.93783" lon="7.44428">
        <ele>1635.1</ele>
        <time>2017-08-28T10:42:49Z</time>
      </trkpt>
      <trkpt lat="43.93781" lon="7.44425">
        <ele>1635.2</ele>
        <time>2017-08-28T10:42:51Z</time>
      </trkpt>
      <trkpt lat="43.93777" lon="7.4442">
        <ele>1635.8</ele>
        <time>2017-08-28T10:42:55Z</time>
      </trkpt>
      <trkpt lat="43.93773" lon="7.44414">
        <ele>1635.1</ele>
        <time>2017-08-28T10:43:00Z</time>
      </trkpt>
      <trkpt lat="43.93757" lon="7.44391">
        <ele>1633.8</ele>
        <time>2017-08-28T10:43:14Z</time>
      </trkpt>
      <trkpt lat="43.93738" lon="7.44367">
        <ele>1631.7</ele>
        <time>2017-08-28T10:43:30Z</time>
      </trkpt>
      <trkpt lat="43.93726" lon="7.44356">
        <ele>1631.7</ele>
        <time>2017-08-28T10:43:40Z</time>
      </trkpt>
      <trkpt lat="43.93714" lon="7.44381">
        <ele>1635</ele>
        <time>2017-08-28T10:43:54Z</time>
      </trkpt>
      <trkpt lat="43.93699" lon="7.44412">
        <ele>1635.2</ele>
        <time>2017-08-28T10:44:11Z</time>
      </trkpt>
      <trkpt lat="43.93687" lon="7.44437">
        <ele>1632.1</ele>
        <time>2017-08-28T10:44:26Z</time>
      </trkpt>
      <trkpt lat="43.93678" lon="7.44463">
        <ele>1630.4</ele>
        <time>2017-08-28T10:44:40Z</time>
      </trkpt>
      <trkpt lat="43.93673" lon="7.44488">
        <ele>1630.4</ele>
        <time>2017-08-28T10:44:55Z</time>
      </trkpt>
      <trkpt lat="43.93661" lon="7.44523">
        <ele>1626.4</ele>
        <time>2017-08-28T10:45:13Z</time>
      </trkpt>
      <trkpt lat="43.93652" lon="7.44556">
        <ele>1622.9</ele>
        <time>2017-08-28T10:45:30Z</time>
      </trkpt>
      <trkpt lat="43.93648" lon="7.4459">
        <ele>1621.3</ele>
        <time>2017-08-28T10:45:46Z</time>
      </trkpt>
      <trkpt lat="43.93645" lon="7.44623">
        <ele>1618.8</ele>
        <time>2017-08-28T10:46:02Z</time>
      </trkpt>
      <trkpt lat="43.93642" lon="7.44657">
        <ele>1616.7</ele>
        <time>2017-08-28T10:46:18Z</time>
      </trkpt>
      <trkpt lat="43.93636" lon="7.44685">
        <ele>1613.9</ele>
        <time>2017-08-28T10:46:31Z</time>
      </trkpt>
      <trkpt lat="43.93627" lon="7.44704">
        <ele>1611.1</ele>
        <time>2017-08-28T10:46:41Z</time>
      </trkpt>
      <trkpt lat="43.93615" lon="7.44724">
        <ele>1609</ele>
        <time>2017-08-28T10:46:53Z</time>
      </trkpt>
      <trkpt lat="43.93601" lon="7.44746">
        <ele>1612.9</ele>
        <time>2017-08-28T10:47:08Z</time>
      </trkpt>
      <trkpt lat="43.93594" lon="7.44744">
        <ele>1611.7</ele>
        <time>2017-08-28T10:47:13Z</time>
      </trkpt>
      <trkpt lat="43.9357" lon="7.44729">
        <ele>1604.5</ele>
        <time>2017-08-28T10:47:30Z</time>
      </trkpt>
      <trkpt lat="43.93546" lon="7.44723">
        <ele>1601</ele>
        <time>2017-08-28T10:47:47Z</time>
      </trkpt>
      <trkpt lat="43.93525" lon="7.44723">
        <ele>1600</ele>
        <time>2017-08-28T10:48:02Z</time>
      </trkpt>
      <trkpt lat="43.93504" lon="7.44721">
        <ele>1596.7</ele>
        <time>2017-08-28T10:48:17Z</time>
      </trkpt>
      <trkpt lat="43.93484" lon="7.44721">
        <ele>1597.1</ele>
        <time>2017-08-28T10:48:32Z</time>
      </trkpt>
      <trkpt lat="43.93465" lon="7.44715">
        <ele>1596.9</ele>
        <time>2017-08-28T10:48:48Z</time>
      </trkpt>
      <trkpt lat="43.93448" lon="7.44694">
        <ele>1591.9</ele>
        <time>2017-08-28T10:49:06Z</time>
      </trkpt>
      <trkpt lat="43.93433" lon="7.44675">
        <ele>1588.3</ele>
        <time>2017-08-28T10:49:22Z</time>
      </trkpt>
      <trkpt lat="43.93416" lon="7.44659">
        <ele>1584.6</ele>
        <time>2017-08-28T10:49:38Z</time>
      </trkpt>
      <trkpt lat="43.93403" lon="7.44649">
        <ele>1583.8</ele>
        <time>2017-08-28T10:49:52Z</time>
      </trkpt>
      <trkpt lat="43.93392" lon="7.44643">
        <ele>1585</ele>
        <time>2017-08-28T10:50:01Z</time>
      </trkpt>
      <trkpt lat="43.93382" lon="7.44625">
        <ele>1581.6</ele>
        <time>2017-08-28T10:50:17Z</time>
      </trkpt>
      <trkpt lat="43.93374" lon="7.44608">
        <ele>1578.5</ele>
        <time>2017-08-28T10:50:31Z</time>
      </trkpt>
      <trkpt lat="43.9336" lon="7.4459">
        <ele>1577.2</ele>
        <time>2017-08-28T10:50:46Z</time>
      </trkpt>
      <trkpt lat="43.93343" lon="7.4457">
        <ele>1573.3</ele>
        <time>2017-08-28T10:51:01Z</time>
      </trkpt>
      <trkpt lat="43.93327" lon="7.44553">
        <ele>1568.9</ele>
        <time>2017-08-28T10:51:17Z</time>
      </trkpt>
      <trkpt lat="43.93326" lon="7.4455">
        <ele>1567.8</ele>
        <time>2017-08-28T10:51:19Z</time>
      </trkpt>
      <trkpt lat="43.93315" lon="7.44545">
        <ele>1567.5</ele>
        <time>2017-08-28T10:51:29Z</time>
      </trkpt>
      <trkpt lat="43.93311" lon="7.44542">
        <ele>1566.9</ele>
        <time>2017-08-28T10:51:33Z</time>
      </trkpt>
      <trkpt lat="43.93293" lon="7.44538">
        <ele>1568.5</ele>
        <time>2017-08-28T10:51:49Z</time>
      </trkpt>
      <trkpt lat="43.9329" lon="7.44535">
        <ele>1567.9</ele>
        <time>2017-08-28T10:51:53Z</time>
      </trkpt>
      <trkpt lat="43.93286" lon="7.44532">
        <ele>1567.3</ele>
        <time>2017-08-28T10:51:57Z</time>
      </trkpt>
      <trkpt lat="43.93282" lon="7.44531">
        <ele>1567.6</ele>
        <time>2017-08-28T10:52:01Z</time>
      </trkpt>
      <trkpt lat="43.93273" lon="7.44522">
        <ele>1565.5</ele>
        <time>2017-08-28T10:52:09Z</time>
      </trkpt>
      <trkpt lat="43.93255" lon="7.44508">
        <ele>1562.6</ele>
        <time>2017-08-28T10:52:27Z</time>
      </trkpt>
      <trkpt lat="43.9324" lon="7.44501">
        <ele>1564.8</ele>
        <time>2017-08-28T10:52:42Z</time>
      </trkpt>
      <trkpt lat="43.93235" lon="7.44496">
        <ele>1564.2</ele>
        <time>2017-08-28T10:52:47Z</time>
      </trkpt>
      <trkpt lat="43.93225" lon="7.44481">
        <ele>1561.5</ele>
        <time>2017-08-28T10:53:01Z</time>
      </trkpt>
      <trkpt lat="43.93218" lon="7.44462">
        <ele>1556.6</ele>
        <time>2017-08-28T10:53:16Z</time>
      </trkpt>
      <trkpt lat="43.93215" lon="7.44457">
        <ele>1555.6</ele>
        <time>2017-08-28T10:53:19Z</time>
      </trkpt>
      <trkpt lat="43.93198" lon="7.44435">
        <ele>1553.8</ele>
        <time>2017-08-28T10:53:35Z</time>
      </trkpt>
      <trkpt lat="43.93183" lon="7.44427">
        <ele>1557.9</ele>
        <time>2017-08-28T10:53:51Z</time>
      </trkpt>
      <trkpt lat="43.93179" lon="7.44421">
        <ele>1556.9</ele>
        <time>2017-08-28T10:54:00Z</time>
      </trkpt>
      <trkpt lat="43.93168" lon="7.44391">
        <ele>1548.7</ele>
        <time>2017-08-28T10:54:17Z</time>
      </trkpt>
      <trkpt lat="43.93159" lon="7.44367">
        <ele>1544.1</ele>
        <time>2017-08-28T10:54:33Z</time>
      </trkpt>
      <trkpt lat="43.93146" lon="7.44334">
        <ele>1539</ele>
        <time>2017-08-28T10:54:51Z</time>
      </trkpt>
      <trkpt lat="43.93132" lon="7.44311">
        <ele>1538.3</ele>
        <time>2017-08-28T10:55:06Z</time>
      </trkpt>
      <trkpt lat="43.93129" lon="7.44308">
        <ele>1538.7</ele>
        <time>2017-08-28T10:55:11Z</time>
      </trkpt>
      <trkpt lat="43.93112" lon="7.44296">
        <ele>1541.1</ele>
        <time>2017-08-28T10:55:27Z</time>
      </trkpt>
      <trkpt lat="43.93107" lon="7.44289">
        <ele>1541</ele>
        <time>2017-08-28T10:55:34Z</time>
      </trkpt>
      <trkpt lat="43.93099" lon="7.44272">
        <ele>1538.3</ele>
        <time>2017-08-28T10:55:48Z</time>
      </trkpt>
      <trkpt lat="43.93095" lon="7.44257">
        <ele>1534.4</ele>
        <time>2017-08-28T10:55:55Z</time>
      </trkpt>
      <trkpt lat="43.93087" lon="7.44229">
        <ele>1527.4</ele>
        <time>2017-08-28T10:56:11Z</time>
      </trkpt>
      <trkpt lat="43.93079" lon="7.44213">
        <ele>1527.8</ele>
        <time>2017-08-28T10:56:25Z</time>
      </trkpt>
      <trkpt lat="43.93068" lon="7.44199">
        <ele>1532.1</ele>
        <time>2017-08-28T10:56:40Z</time>
      </trkpt>
      <trkpt lat="43.93064" lon="7.44191">
        <ele>1532.6</ele>
        <time>2017-08-28T10:56:47Z</time>
      </trkpt>
      <trkpt lat="43.93061" lon="7.44179">
        <ele>1532.6</ele>
        <time>2017-08-28T10:56:51Z</time>
      </trkpt>
      <trkpt lat="43.93055" lon="7.44146">
        <ele>1532.2</ele>
        <time>2017-08-28T10:57:08Z</time>
      </trkpt>
      <trkpt lat="43.93055" lon="7.4412">
        <ele>1531.6</ele>
        <time>2017-08-28T10:57:23Z</time>
      </trkpt>
      <trkpt lat="43.93055" lon="7.44117">
        <ele>1531.6</ele>
        <time>2017-08-28T10:57:24Z</time>
      </trkpt>
      <trkpt lat="43.9306" lon="7.44088">
        <ele>1527.5</ele>
        <time>2017-08-28T10:57:41Z</time>
      </trkpt>
      <trkpt lat="43.93057" lon="7.44061">
        <ele>1526.8</ele>
        <time>2017-08-28T10:57:55Z</time>
      </trkpt>
      <trkpt lat="43.93047" lon="7.44038">
        <ele>1522.6</ele>
        <time>2017-08-28T10:58:10Z</time>
      </trkpt>
      <trkpt lat="43.93034" lon="7.44021">
        <ele>1523.7</ele>
        <time>2017-08-28T10:58:24Z</time>
      </trkpt>
      <trkpt lat="43.93028" lon="7.44005">
        <ele>1522.9</ele>
        <time>2017-08-28T10:58:34Z</time>
      </trkpt>
      <trkpt lat="43.93024" lon="7.43978">
        <ele>1517.7</ele>
        <time>2017-08-28T10:58:51Z</time>
      </trkpt>
      <trkpt lat="43.93018" lon="7.43949">
        <ele>1512.9</ele>
        <time>2017-08-28T10:59:08Z</time>
      </trkpt>
      <trkpt lat="43.93016" lon="7.43945">
        <ele>1512.5</ele>
        <time>2017-08-28T10:59:11Z</time>
      </trkpt>
      <trkpt lat="43.93014" lon="7.43919">
        <ele>1507.2</ele>
        <time>2017-08-28T10:59:27Z</time>
      </trkpt>
      <trkpt lat="43.93012" lon="7.43898">
        <ele>1503.1</ele>
        <time>2017-08-28T10:59:39Z</time>
      </trkpt>
      <trkpt lat="43.93018" lon="7.43866">
        <ele>1497</ele>
        <time>2017-08-28T10:59:54Z</time>
      </trkpt>
      <trkpt lat="43.93017" lon="7.43854">
        <ele>1495.7</ele>
        <time>2017-08-28T11:00:02Z</time>
      </trkpt>
      <trkpt lat="43.9302" lon="7.43846">
        <ele>1495.1</ele>
        <time>2017-08-28T11:00:08Z</time>
      </trkpt>
      <trkpt lat="43.93023" lon="7.43838">
        <ele>1494.8</ele>
        <time>2017-08-28T11:00:14Z</time>
      </trkpt>
      <trkpt lat="43.93024" lon="7.43831">
        <ele>1494.4</ele>
        <time>2017-08-28T11:00:18Z</time>
      </trkpt>
      <trkpt lat="43.93027" lon="7.43821">
        <ele>1494.4</ele>
        <time>2017-08-28T11:00:24Z</time>
      </trkpt>
      <trkpt lat="43.93029" lon="7.43796">
        <ele>1492.5</ele>
        <time>2017-08-28T11:00:39Z</time>
      </trkpt>
      <trkpt lat="43.93029" lon="7.4379">
        <ele>1491.6</ele>
        <time>2017-08-28T11:00:42Z</time>
      </trkpt>
      <trkpt lat="43.9303" lon="7.43781">
        <ele>1490.4</ele>
        <time>2017-08-28T11:00:47Z</time>
      </trkpt>
      <trkpt lat="43.93025" lon="7.43773">
        <ele>1488.8</ele>
        <time>2017-08-28T11:00:55Z</time>
      </trkpt>
      <trkpt lat="43.9302" lon="7.43771">
        <ele>1486.9</ele>
        <time>2017-08-28T11:00:59Z</time>
      </trkpt>
      <trkpt lat="43.93015" lon="7.43772">
        <ele>1485.5</ele>
        <time>2017-08-28T11:01:02Z</time>
      </trkpt>
      <trkpt lat="43.93012" lon="7.43776">
        <ele>1484.6</ele>
        <time>2017-08-28T11:01:07Z</time>
      </trkpt>
      <trkpt lat="43.93008" lon="7.43775">
        <ele>1483.2</ele>
        <time>2017-08-28T11:01:11Z</time>
      </trkpt>
      <trkpt lat="43.92997" lon="7.43774">
        <ele>1479.4</ele>
        <time>2017-08-28T11:01:24Z</time>
      </trkpt>
      <trkpt lat="43.92987" lon="7.43781">
        <ele>1476.7</ele>
        <time>2017-08-28T11:01:37Z</time>
      </trkpt>
      <trkpt lat="43.92985" lon="7.43776">
        <ele>1475.4</ele>
        <time>2017-08-28T11:01:41Z</time>
      </trkpt>
      <trkpt lat="43.92984" lon="7.43774">
        <ele>1474.7</ele>
        <time>2017-08-28T11:01:43Z</time>
      </trkpt>
      <trkpt lat="43.92983" lon="7.43757">
        <ele>1472</ele>
        <time>2017-08-28T11:01:51Z</time>
      </trkpt>
      <trkpt lat="43.92983" lon="7.43755">
        <ele>1471.8</ele>
        <time>2017-08-28T11:01:52Z</time>
      </trkpt>
      <trkpt lat="43.92983" lon="7.43749">
        <ele>1471</ele>
        <time>2017-08-28T11:01:56Z</time>
      </trkpt>
      <trkpt lat="43.92971" lon="7.43752">
        <ele>1466.8</ele>
        <time>2017-08-28T11:02:05Z</time>
      </trkpt>
      <trkpt lat="43.92964" lon="7.43754">
        <ele>1464.2</ele>
        <time>2017-08-28T11:02:11Z</time>
      </trkpt>
      <trkpt lat="43.92948" lon="7.43762">
        <ele>1459.6</ele>
        <time>2017-08-28T11:02:25Z</time>
      </trkpt>
      <trkpt lat="43.92936" lon="7.4377">
        <ele>1457.3</ele>
        <time>2017-08-28T11:02:35Z</time>
      </trkpt>
      <trkpt lat="43.92929" lon="7.4377">
        <ele>1455.7</ele>
        <time>2017-08-28T11:02:40Z</time>
      </trkpt>
      <trkpt lat="43.92923" lon="7.43773">
        <ele>1455.1</ele>
        <time>2017-08-28T11:02:44Z</time>
      </trkpt>
      <trkpt lat="43.92921" lon="7.43773">
        <ele>1454.6</ele>
        <time>2017-08-28T11:02:45Z</time>
      </trkpt>
      <trkpt lat="43.92919" lon="7.43774">
        <ele>1454.3</ele>
        <time>2017-08-28T11:02:47Z</time>
      </trkpt>
      <trkpt lat="43.92897" lon="7.4378">
        <ele>1451.5</ele>
        <time>2017-08-28T11:03:03Z</time>
      </trkpt>
      <trkpt lat="43.92879" lon="7.43778">
        <ele>1447.3</ele>
        <time>2017-08-28T11:03:16Z</time>
      </trkpt>
      <trkpt lat="43.92873" lon="7.43777">
        <ele>1445.8</ele>
        <time>2017-08-28T11:03:20Z</time>
      </trkpt>
      <trkpt lat="43.92852" lon="7.43774">
        <ele>1441.9</ele>
        <time>2017-08-28T11:03:36Z</time>
      </trkpt>
      <trkpt lat="43.92846" lon="7.4377">
        <ele>1440.1</ele>
        <time>2017-08-28T11:03:40Z</time>
      </trkpt>
      <trkpt lat="43.92836" lon="7.43769">
        <ele>1439.2</ele>
        <time>2017-08-28T11:03:46Z</time>
      </trkpt>
      <trkpt lat="43.92816" lon="7.43767">
        <ele>1435.2</ele>
        <time>2017-08-28T11:04:01Z</time>
      </trkpt>
      <trkpt lat="43.92807" lon="7.43764">
        <ele>1432.8</ele>
        <time>2017-08-28T11:04:09Z</time>
      </trkpt>
      <trkpt lat="43.92806" lon="7.43763">
        <ele>1432.1</ele>
        <time>2017-08-28T11:04:12Z</time>
      </trkpt>
      <trkpt lat="43.92804" lon="7.43762">
        <ele>1431.4</ele>
        <time>2017-08-28T11:04:14Z</time>
      </trkpt>
      <trkpt lat="43.92798" lon="7.4376">
        <ele>1429.6</ele>
        <time>2017-08-28T11:04:19Z</time>
      </trkpt>
      <trkpt lat="43.92793" lon="7.43759">
        <ele>1428.4</ele>
        <time>2017-08-28T11:04:22Z</time>
      </trkpt>
      <trkpt lat="43.92775" lon="7.43755">
        <ele>1423.6</ele>
        <time>2017-08-28T11:04:35Z</time>
      </trkpt>
      <trkpt lat="43.92757" lon="7.43751">
        <ele>1419.6</ele>
        <time>2017-08-28T11:04:48Z</time>
      </trkpt>
      <trkpt lat="43.92745" lon="7.4375">
        <ele>1417</ele>
        <time>2017-08-28T11:04:58Z</time>
      </trkpt>
      <trkpt lat="43.9274" lon="7.4375">
        <ele>1416</ele>
        <time>2017-08-28T11:05:02Z</time>
      </trkpt>
      <trkpt lat="43.92735" lon="7.43751">
        <ele>1415.4</ele>
        <time>2017-08-28T11:05:07Z</time>
      </trkpt>
      <trkpt lat="43.92727" lon="7.43751">
        <ele>1413.6</ele>
        <time>2017-08-28T11:05:14Z</time>
      </trkpt>
      <trkpt lat="43.92706" lon="7.43754">
        <ele>1410.1</ele>
        <time>2017-08-28T11:05:26Z</time>
      </trkpt>
      <trkpt lat="43.92688" lon="7.43761">
        <ele>1409.8</ele>
        <time>2017-08-28T11:05:39Z</time>
      </trkpt>
      <trkpt lat="43.92674" lon="7.43762">
        <ele>1408.1</ele>
        <time>2017-08-28T11:05:49Z</time>
      </trkpt>
      <trkpt lat="43.92657" lon="7.43764">
        <ele>1406.3</ele>
        <time>2017-08-28T11:06:03Z</time>
      </trkpt>
      <trkpt lat="43.92641" lon="7.43765">
        <ele>1404.1</ele>
        <time>2017-08-28T11:06:16Z</time>
      </trkpt>
      <trkpt lat="43.9264" lon="7.43765">
        <ele>1404</ele>
        <time>2017-08-28T11:06:17Z</time>
      </trkpt>
      <trkpt lat="43.92637" lon="7.43764">
        <ele>1403.4</ele>
        <time>2017-08-28T11:06:19Z</time>
      </trkpt>
      <trkpt lat="43.9262" lon="7.43765">
        <ele>1402</ele>
        <time>2017-08-28T11:06:29Z</time>
      </trkpt>
      <trkpt lat="43.92614" lon="7.4377">
        <ele>1404.2</ele>
        <time>2017-08-28T11:06:35Z</time>
      </trkpt>
      <trkpt lat="43.92601" lon="7.4377">
        <ele>1403</ele>
        <time>2017-08-28T11:06:44Z</time>
      </trkpt>
      <trkpt lat="43.92598" lon="7.43769">
        <ele>1402.5</ele>
        <time>2017-08-28T11:06:46Z</time>
      </trkpt>
      <trkpt lat="43.9259" lon="7.43772">
        <ele>1403.2</ele>
        <time>2017-08-28T11:06:54Z</time>
      </trkpt>
      <trkpt lat="43.9258" lon="7.43769">
        <ele>1400.5</ele>
        <time>2017-08-28T11:07:03Z</time>
      </trkpt>
      <trkpt lat="43.9256" lon="7.43768">
        <ele>1397.4</ele>
        <time>2017-08-28T11:07:15Z</time>
      </trkpt>
      <trkpt lat="43.9254" lon="7.43763">
        <ele>1392.2</ele>
        <time>2017-08-28T11:07:30Z</time>
      </trkpt>
      <trkpt lat="43.92537" lon="7.43762">
        <ele>1391.3</ele>
        <time>2017-08-28T11:07:34Z</time>
      </trkpt>
      <trkpt lat="43.92521" lon="7.43759">
        <ele>1387</ele>
        <time>2017-08-28T11:07:47Z</time>
      </trkpt>
      <trkpt lat="43.9252" lon="7.4376">
        <ele>1387.4</ele>
        <time>2017-08-28T11:07:50Z</time>
      </trkpt>
      <trkpt lat="43.92516" lon="7.43761">
        <ele>1387.4</ele>
        <time>2017-08-28T11:07:54Z</time>
      </trkpt>
      <trkpt lat="43.92514" lon="7.43761">
        <ele>1387.6</ele>
        <time>2017-08-28T11:07:56Z</time>
      </trkpt>
      <trkpt lat="43.92502" lon="7.43763">
        <ele>1386.2</ele>
        <time>2017-08-28T11:08:05Z</time>
      </trkpt>
      <trkpt lat="43.92494" lon="7.43763">
        <ele>1384.4</ele>
        <time>2017-08-28T11:08:11Z</time>
      </trkpt>
      <trkpt lat="43.92489" lon="7.43765">
        <ele>1384.9</ele>
        <time>2017-08-28T11:08:17Z</time>
      </trkpt>
      <trkpt lat="43.92484" lon="7.43764">
        <ele>1383.2</ele>
        <time>2017-08-28T11:08:21Z</time>
      </trkpt>
      <trkpt lat="43.92477" lon="7.43763">
        <ele>1381.1</ele>
        <time>2017-08-28T11:08:25Z</time>
      </trkpt>
      <trkpt lat="43.92475" lon="7.43764">
        <ele>1381.2</ele>
        <time>2017-08-28T11:08:27Z</time>
      </trkpt>
      <trkpt lat="43.92472" lon="7.43765">
        <ele>1381.1</ele>
        <time>2017-08-28T11:08:29Z</time>
      </trkpt>
      <trkpt lat="43.92468" lon="7.43765">
        <ele>1380.4</ele>
        <time>2017-08-28T11:08:31Z</time>
      </trkpt>
      <trkpt lat="43.92447" lon="7.43777">
        <ele>1381.3</ele>
        <time>2017-08-28T11:08:46Z</time>
      </trkpt>
      <trkpt lat="43.9243" lon="7.43786">
        <ele>1381.6</ele>
        <time>2017-08-28T11:08:59Z</time>
      </trkpt>
      <trkpt lat="43.92429" lon="7.43786">
        <ele>1381.3</ele>
        <time>2017-08-28T11:09:00Z</time>
      </trkpt>
      <trkpt lat="43.92414" lon="7.43786">
        <ele>1379.2</ele>
        <time>2017-08-28T11:09:12Z</time>
      </trkpt>
      <trkpt lat="43.92392" lon="7.43778">
        <ele>1377.1</ele>
        <time>2017-08-28T11:09:28Z</time>
      </trkpt>
      <trkpt lat="43.92376" lon="7.4377">
        <ele>1374.8</ele>
        <time>2017-08-28T11:09:41Z</time>
      </trkpt>
      <trkpt lat="43.9236" lon="7.43768">
        <ele>1373.8</ele>
        <time>2017-08-28T11:09:55Z</time>
      </trkpt>
      <trkpt lat="43.92358" lon="7.43768">
        <ele>1373.5</ele>
        <time>2017-08-28T11:09:57Z</time>
      </trkpt>
      <trkpt lat="43.92353" lon="7.43784">
        <ele>1370.7</ele>
        <time>2017-08-28T11:10:15Z</time>
      </trkpt>
      <trkpt lat="43.92353" lon="7.43784">
        <ele>1370.7</ele>
        <time>2017-08-28T11:10:37Z</time>
      </trkpt>
      <trkpt lat="43.92353" lon="7.43784">
        <ele>1370.7</ele>
        <time>2017-08-28T11:10:56Z</time>
      </trkpt>
      <trkpt lat="43.92353" lon="7.43785">
        <ele>1370.7</ele>
        <time>2017-08-28T11:11:19Z</time>
      </trkpt>
      <trkpt lat="43.92352" lon="7.4379">
        <ele>1369.1</ele>
        <time>2017-08-28T11:11:43Z</time>
      </trkpt>
      <trkpt lat="43.92354" lon="7.43787">
        <ele>1370</ele>
        <time>2017-08-28T11:12:03Z</time>
      </trkpt>
      <trkpt lat="43.92354" lon="7.43787">
        <ele>1370</ele>
        <time>2017-08-28T11:12:31Z</time>
      </trkpt>
      <trkpt lat="43.92353" lon="7.43787">
        <ele>1370.1</ele>
        <time>2017-08-28T11:13:08Z</time>
      </trkpt>
      <trkpt lat="43.92354" lon="7.43781">
        <ele>1371.5</ele>
        <time>2017-08-28T11:13:13Z</time>
      </trkpt>
      <trkpt lat="43.9234" lon="7.43771">
        <ele>1370.4</ele>
        <time>2017-08-28T11:13:26Z</time>
      </trkpt>
      <trkpt lat="43.92326" lon="7.43762">
        <ele>1369.2</ele>
        <time>2017-08-28T11:13:37Z</time>
      </trkpt>
      <trkpt lat="43.92323" lon="7.43762">
        <ele>1368.7</ele>
        <time>2017-08-28T11:13:39Z</time>
      </trkpt>
      <trkpt lat="43.92319" lon="7.43761">
        <ele>1368.3</ele>
        <time>2017-08-28T11:13:42Z</time>
      </trkpt>
      <trkpt lat="43.92317" lon="7.43758">
        <ele>1368.5</ele>
        <time>2017-08-28T11:13:44Z</time>
      </trkpt>
      <trkpt lat="43.92305" lon="7.43745">
        <ele>1369.4</ele>
        <time>2017-08-28T11:13:59Z</time>
      </trkpt>
      <trkpt lat="43.92302" lon="7.43743">
        <ele>1368.8</ele>
        <time>2017-08-28T11:14:02Z</time>
      </trkpt>
      <trkpt lat="43.92296" lon="7.43739">
        <ele>1367.8</ele>
        <time>2017-08-28T11:14:08Z</time>
      </trkpt>
      <trkpt lat="43.92294" lon="7.43736">
        <ele>1367.7</ele>
        <time>2017-08-28T11:14:10Z</time>
      </trkpt>
      <trkpt lat="43.92285" lon="7.43728">
        <ele>1367.2</ele>
        <time>2017-08-28T11:14:18Z</time>
      </trkpt>
      <trkpt lat="43.92272" lon="7.43718">
        <ele>1365</ele>
        <time>2017-08-28T11:14:28Z</time>
      </trkpt>
      <trkpt lat="43.92271" lon="7.43717">
        <ele>1364.6</ele>
        <time>2017-08-28T11:14:29Z</time>
      </trkpt>
      <trkpt lat="43.92265" lon="7.43714">
        <ele>1362.8</ele>
        <time>2017-08-28T11:14:34Z</time>
      </trkpt>
      <trkpt lat="43.9226" lon="7.43712">
        <ele>1361.3</ele>
        <time>2017-08-28T11:14:39Z</time>
      </trkpt>
      <trkpt lat="43.92255" lon="7.4371">
        <ele>1360</ele>
        <time>2017-08-28T11:14:43Z</time>
      </trkpt>
      <trkpt lat="43.9225" lon="7.43711">
        <ele>1358.3</ele>
        <time>2017-08-28T11:14:47Z</time>
      </trkpt>
      <trkpt lat="43.92234" lon="7.43702">
        <ele>1354.5</ele>
        <time>2017-08-28T11:15:01Z</time>
      </trkpt>
      <trkpt lat="43.92231" lon="7.437">
        <ele>1354</ele>
        <time>2017-08-28T11:15:03Z</time>
      </trkpt>
      <trkpt lat="43.92226" lon="7.43698">
        <ele>1353.1</ele>
        <time>2017-08-28T11:15:08Z</time>
      </trkpt>
      <trkpt lat="43.92211" lon="7.4368">
        <ele>1350.6</ele>
        <time>2017-08-28T11:15:21Z</time>
      </trkpt>
      <trkpt lat="43.92207" lon="7.43681">
        <ele>1349.7</ele>
        <time>2017-08-28T11:15:25Z</time>
      </trkpt>
      <trkpt lat="43.92195" lon="7.43679">
        <ele>1347.4</ele>
        <time>2017-08-28T11:15:32Z</time>
      </trkpt>
      <trkpt lat="43.92189" lon="7.43681">
        <ele>1345.7</ele>
        <time>2017-08-28T11:15:36Z</time>
      </trkpt>
      <trkpt lat="43.92181" lon="7.43683">
        <ele>1343.1</ele>
        <time>2017-08-28T11:15:42Z</time>
      </trkpt>
      <trkpt lat="43.92158" lon="7.43674">
        <ele>1340.3</ele>
        <time>2017-08-28T11:15:57Z</time>
      </trkpt>
      <trkpt lat="43.92152" lon="7.43666">
        <ele>1341.5</ele>
        <time>2017-08-28T11:16:04Z</time>
      </trkpt>
      <trkpt lat="43.92146" lon="7.43666">
        <ele>1340.5</ele>
        <time>2017-08-28T11:16:08Z</time>
      </trkpt>
      <trkpt lat="43.9214" lon="7.43663">
        <ele>1339.8</ele>
        <time>2017-08-28T11:16:14Z</time>
      </trkpt>
      <trkpt lat="43.92124" lon="7.4366">
        <ele>1337.6</ele>
        <time>2017-08-28T11:16:30Z</time>
      </trkpt>
      <trkpt lat="43.92118" lon="7.43657">
        <ele>1337.5</ele>
        <time>2017-08-28T11:16:38Z</time>
      </trkpt>
      <trkpt lat="43.9211" lon="7.43659">
        <ele>1335.7</ele>
        <time>2017-08-28T11:16:46Z</time>
      </trkpt>
      <trkpt lat="43.92104" lon="7.43657">
        <ele>1335.6</ele>
        <time>2017-08-28T11:16:50Z</time>
      </trkpt>
      <trkpt lat="43.921" lon="7.43654">
        <ele>1336.7</ele>
        <time>2017-08-28T11:16:54Z</time>
      </trkpt>
      <trkpt lat="43.9209" lon="7.4365">
        <ele>1337.5</ele>
        <time>2017-08-28T11:17:03Z</time>
      </trkpt>
      <trkpt lat="43.92075" lon="7.43649">
        <ele>1337</ele>
        <time>2017-08-28T11:17:17Z</time>
      </trkpt>
      <trkpt lat="43.92068" lon="7.4365">
        <ele>1335.9</ele>
        <time>2017-08-28T11:17:28Z</time>
      </trkpt>
      <trkpt lat="43.92061" lon="7.43652">
        <ele>1334.4</ele>
        <time>2017-08-28T11:17:33Z</time>
      </trkpt>
      <trkpt lat="43.92053" lon="7.43655">
        <ele>1331.9</ele>
        <time>2017-08-28T11:17:39Z</time>
      </trkpt>
      <trkpt lat="43.92046" lon="7.4366">
        <ele>1328.9</ele>
        <time>2017-08-28T11:17:46Z</time>
      </trkpt>
      <trkpt lat="43.92038" lon="7.43658">
        <ele>1329.3</ele>
        <time>2017-08-28T11:17:52Z</time>
      </trkpt>
      <trkpt lat="43.92032" lon="7.43658">
        <ele>1328.5</ele>
        <time>2017-08-28T11:17:59Z</time>
      </trkpt>
      <trkpt lat="43.92029" lon="7.43658">
        <ele>1328</ele>
        <time>2017-08-28T11:18:01Z</time>
      </trkpt>
      <trkpt lat="43.92017" lon="7.4366">
        <ele>1325.2</ele>
        <time>2017-08-28T11:18:12Z</time>
      </trkpt>
      <trkpt lat="43.92013" lon="7.43662">
        <ele>1323.7</ele>
        <time>2017-08-28T11:18:15Z</time>
      </trkpt>
      <trkpt lat="43.92009" lon="7.43665">
        <ele>1321.3</ele>
        <time>2017-08-28T11:18:19Z</time>
      </trkpt>
      <trkpt lat="43.91998" lon="7.4367">
        <ele>1317.1</ele>
        <time>2017-08-28T11:18:31Z</time>
      </trkpt>
      <trkpt lat="43.91992" lon="7.43671">
        <ele>1315.5</ele>
        <time>2017-08-28T11:18:36Z</time>
      </trkpt>
      <trkpt lat="43.91978" lon="7.43676">
        <ele>1311.3</ele>
        <time>2017-08-28T11:18:47Z</time>
      </trkpt>
      <trkpt lat="43.91976" lon="7.43677">
        <ele>1310.6</ele>
        <time>2017-08-28T11:18:49Z</time>
      </trkpt>
      <trkpt lat="43.91969" lon="7.43681">
        <ele>1307.8</ele>
        <time>2017-08-28T11:18:55Z</time>
      </trkpt>
      <trkpt lat="43.91968" lon="7.43681">
        <ele>1307.6</ele>
        <time>2017-08-28T11:18:56Z</time>
      </trkpt>
      <trkpt lat="43.91963" lon="7.43683">
        <ele>1305.9</ele>
        <time>2017-08-28T11:19:01Z</time>
      </trkpt>
      <trkpt lat="43.91951" lon="7.43684">
        <ele>1304.3</ele>
        <time>2017-08-28T11:19:10Z</time>
      </trkpt>
      <trkpt lat="43.91943" lon="7.43685">
        <ele>1302.3</ele>
        <time>2017-08-28T11:19:15Z</time>
      </trkpt>
      <trkpt lat="43.91927" lon="7.43688">
        <ele>1298.8</ele>
        <time>2017-08-28T11:19:29Z</time>
      </trkpt>
      <trkpt lat="43.91916" lon="7.43687">
        <ele>1297.7</ele>
        <time>2017-08-28T11:19:40Z</time>
      </trkpt>
      <trkpt lat="43.91902" lon="7.43688">
        <ele>1295</ele>
        <time>2017-08-28T11:19:52Z</time>
      </trkpt>
      <trkpt lat="43.91898" lon="7.43687">
        <ele>1294.4</ele>
        <time>2017-08-28T11:19:55Z</time>
      </trkpt>
      <trkpt lat="43.91894" lon="7.43688">
        <ele>1293.4</ele>
        <time>2017-08-28T11:19:58Z</time>
      </trkpt>
      <trkpt lat="43.91877" lon="7.43691">
        <ele>1289.2</ele>
        <time>2017-08-28T11:20:10Z</time>
      </trkpt>
      <trkpt lat="43.91866" lon="7.43692">
        <ele>1286.8</ele>
        <time>2017-08-28T11:20:17Z</time>
      </trkpt>
      <trkpt lat="43.91861" lon="7.43693">
        <ele>1286</ele>
        <time>2017-08-28T11:20:21Z</time>
      </trkpt>
      <trkpt lat="43.91858" lon="7.43692">
        <ele>1285.7</ele>
        <time>2017-08-28T11:20:23Z</time>
      </trkpt>
      <trkpt lat="43.91847" lon="7.43694">
        <ele>1283.4</ele>
        <time>2017-08-28T11:20:32Z</time>
      </trkpt>
      <trkpt lat="43.91834" lon="7.437">
        <ele>1278.8</ele>
        <time>2017-08-28T11:20:42Z</time>
      </trkpt>
      <trkpt lat="43.91816" lon="7.43702">
        <ele>1275.1</ele>
        <time>2017-08-28T11:20:56Z</time>
      </trkpt>
      <trkpt lat="43.91803" lon="7.43703">
        <ele>1272.7</ele>
        <time>2017-08-28T11:21:07Z</time>
      </trkpt>
      <trkpt lat="43.91798" lon="7.43703">
        <ele>1271.4</ele>
        <time>2017-08-28T11:21:11Z</time>
      </trkpt>
      <trkpt lat="43.91789" lon="7.43705">
        <ele>1269.2</ele>
        <time>2017-08-28T11:21:17Z</time>
      </trkpt>
      <trkpt lat="43.91787" lon="7.43703">
        <ele>1269.4</ele>
        <time>2017-08-28T11:21:19Z</time>
      </trkpt>
      <trkpt lat="43.91785" lon="7.43701">
        <ele>1270.3</ele>
        <time>2017-08-28T11:21:22Z</time>
      </trkpt>
      <trkpt lat="43.91769" lon="7.43701">
        <ele>1267.2</ele>
        <time>2017-08-28T11:21:37Z</time>
      </trkpt>
      <trkpt lat="43.91758" lon="7.43702">
        <ele>1264.2</ele>
        <time>2017-08-28T11:21:46Z</time>
      </trkpt>
      <trkpt lat="43.91752" lon="7.43701">
        <ele>1263.4</ele>
        <time>2017-08-28T11:21:54Z</time>
      </trkpt>
      <trkpt lat="43.91749" lon="7.43701">
        <ele>1262.6</ele>
        <time>2017-08-28T11:21:56Z</time>
      </trkpt>
      <trkpt lat="43.91744" lon="7.43702">
        <ele>1260.8</ele>
        <time>2017-08-28T11:22:00Z</time>
      </trkpt>
      <trkpt lat="43.91741" lon="7.43702">
        <ele>1260.4</ele>
        <time>2017-08-28T11:22:02Z</time>
      </trkpt>
      <trkpt lat="43.91735" lon="7.43701">
        <ele>1259.2</ele>
        <time>2017-08-28T11:22:07Z</time>
      </trkpt>
      <trkpt lat="43.91718" lon="7.43709">
        <ele>1251.6</ele>
        <time>2017-08-28T11:22:19Z</time>
      </trkpt>
      <trkpt lat="43.91712" lon="7.43712">
        <ele>1248.6</ele>
        <time>2017-08-28T11:22:24Z</time>
      </trkpt>
      <trkpt lat="43.9171" lon="7.43712">
        <ele>1248</ele>
        <time>2017-08-28T11:22:26Z</time>
      </trkpt>
      <trkpt lat="43.91706" lon="7.4371">
        <ele>1247.8</ele>
        <time>2017-08-28T11:22:29Z</time>
      </trkpt>
      <trkpt lat="43.91696" lon="7.437">
        <ele>1249.2</ele>
        <time>2017-08-28T11:22:39Z</time>
      </trkpt>
      <trkpt lat="43.91692" lon="7.43698">
        <ele>1248.4</ele>
        <time>2017-08-28T11:22:42Z</time>
      </trkpt>
      <trkpt lat="43.91681" lon="7.43693">
        <ele>1246.1</ele>
        <time>2017-08-28T11:22:54Z</time>
      </trkpt>
      <trkpt lat="43.91679" lon="7.43692">
        <ele>1245.8</ele>
        <time>2017-08-28T11:22:56Z</time>
      </trkpt>
      <trkpt lat="43.91671" lon="7.43687">
        <ele>1244.9</ele>
        <time>2017-08-28T11:23:04Z</time>
      </trkpt>
      <trkpt lat="43.9167" lon="7.43685">
        <ele>1245.5</ele>
        <time>2017-08-28T11:23:06Z</time>
      </trkpt>
      <trkpt lat="43.91665" lon="7.43677">
        <ele>1247.2</ele>
        <time>2017-08-28T11:23:13Z</time>
      </trkpt>
      <trkpt lat="43.9165" lon="7.43669">
        <ele>1244.8</ele>
        <time>2017-08-28T11:23:26Z</time>
      </trkpt>
      <trkpt lat="43.9164" lon="7.43668">
        <ele>1241.2</ele>
        <time>2017-08-28T11:23:34Z</time>
      </trkpt>
      <trkpt lat="43.91635" lon="7.43666">
        <ele>1239.9</ele>
        <time>2017-08-28T11:23:38Z</time>
      </trkpt>
      <trkpt lat="43.91633" lon="7.43666">
        <ele>1239.2</ele>
        <time>2017-08-28T11:23:39Z</time>
      </trkpt>
      <trkpt lat="43.91626" lon="7.43663">
        <ele>1238.5</ele>
        <time>2017-08-28T11:23:45Z</time>
      </trkpt>
      <trkpt lat="43.91621" lon="7.4366">
        <ele>1238.1</ele>
        <time>2017-08-28T11:23:49Z</time>
      </trkpt>
      <trkpt lat="43.91619" lon="7.43659">
        <ele>1237.6</ele>
        <time>2017-08-28T11:23:51Z</time>
      </trkpt>
      <trkpt lat="43.91606" lon="7.43656">
        <ele>1234.9</ele>
        <time>2017-08-28T11:24:03Z</time>
      </trkpt>
      <trkpt lat="43.91601" lon="7.43654">
        <ele>1233.9</ele>
        <time>2017-08-28T11:24:08Z</time>
      </trkpt>
      <trkpt lat="43.91595" lon="7.43653">
        <ele>1232.4</ele>
        <time>2017-08-28T11:24:13Z</time>
      </trkpt>
      <trkpt lat="43.91593" lon="7.43652">
        <ele>1232.1</ele>
        <time>2017-08-28T11:24:15Z</time>
      </trkpt>
      <trkpt lat="43.91589" lon="7.43651">
        <ele>1231.4</ele>
        <time>2017-08-28T11:24:18Z</time>
      </trkpt>
      <trkpt lat="43.91586" lon="7.43647">
        <ele>1231.8</ele>
        <time>2017-08-28T11:24:21Z</time>
      </trkpt>
      <trkpt lat="43.91585" lon="7.43647">
        <ele>1231.5</ele>
        <time>2017-08-28T11:24:23Z</time>
      </trkpt>
      <trkpt lat="43.91577" lon="7.43646">
        <ele>1229.3</ele>
        <time>2017-08-28T11:24:28Z</time>
      </trkpt>
      <trkpt lat="43.91563" lon="7.43642">
        <ele>1226.2</ele>
        <time>2017-08-28T11:24:40Z</time>
      </trkpt>
      <trkpt lat="43.91549" lon="7.43644">
        <ele>1220.6</ele>
        <time>2017-08-28T11:24:52Z</time>
      </trkpt>
      <trkpt lat="43.91542" lon="7.43644">
        <ele>1218.8</ele>
        <time>2017-08-28T11:24:57Z</time>
      </trkpt>
      <trkpt lat="43.91536" lon="7.43643">
        <ele>1216.9</ele>
        <time>2017-08-28T11:25:03Z</time>
      </trkpt>
      <trkpt lat="43.91521" lon="7.43639">
        <ele>1214.1</ele>
        <time>2017-08-28T11:25:15Z</time>
      </trkpt>
      <trkpt lat="43.91514" lon="7.43638">
        <ele>1213.1</ele>
        <time>2017-08-28T11:25:20Z</time>
      </trkpt>
      <trkpt lat="43.9151" lon="7.43636">
        <ele>1213.1</ele>
        <time>2017-08-28T11:25:23Z</time>
      </trkpt>
      <trkpt lat="43.91496" lon="7.43635">
        <ele>1210.1</ele>
        <time>2017-08-28T11:25:33Z</time>
      </trkpt>
      <trkpt lat="43.9148" lon="7.43632">
        <ele>1206.9</ele>
        <time>2017-08-28T11:25:48Z</time>
      </trkpt>
      <trkpt lat="43.91475" lon="7.43634">
        <ele>1205</ele>
        <time>2017-08-28T11:25:52Z</time>
      </trkpt>
      <trkpt lat="43.91468" lon="7.43638">
        <ele>1201.1</ele>
        <time>2017-08-28T11:25:57Z</time>
      </trkpt>
      <trkpt lat="43.91456" lon="7.43644">
        <ele>1195.3</ele>
        <time>2017-08-28T11:26:08Z</time>
      </trkpt>
      <trkpt lat="43.91451" lon="7.43644">
        <ele>1193.7</ele>
        <time>2017-08-28T11:26:12Z</time>
      </trkpt>
      <trkpt lat="43.91441" lon="7.4364">
        <ele>1192.3</ele>
        <time>2017-08-28T11:26:20Z</time>
      </trkpt>
      <trkpt lat="43.91422" lon="7.43632">
        <ele>1188.5</ele>
        <time>2017-08-28T11:26:35Z</time>
      </trkpt>
      <trkpt lat="43.91406" lon="7.43627">
        <ele>1185.7</ele>
        <time>2017-08-28T11:26:48Z</time>
      </trkpt>
      <trkpt lat="43.91397" lon="7.43627">
        <ele>1183.1</ele>
        <time>2017-08-28T11:26:56Z</time>
      </trkpt>
      <trkpt lat="43.91396" lon="7.43626">
        <ele>1182.8</ele>
        <time>2017-08-28T11:26:57Z</time>
      </trkpt>
      <trkpt lat="43.91389" lon="7.43625">
        <ele>1181.7</ele>
        <time>2017-08-28T11:27:02Z</time>
      </trkpt>
      <trkpt lat="43.91383" lon="7.43626">
        <ele>1180.2</ele>
        <time>2017-08-28T11:27:09Z</time>
      </trkpt>
      <trkpt lat="43.91377" lon="7.43631">
        <ele>1176.4</ele>
        <time>2017-08-28T11:27:14Z</time>
      </trkpt>
      <trkpt lat="43.91372" lon="7.43635">
        <ele>1173.2</ele>
        <time>2017-08-28T11:27:18Z</time>
      </trkpt>
      <trkpt lat="43.9137" lon="7.43637">
        <ele>1171.8</ele>
        <time>2017-08-28T11:27:20Z</time>
      </trkpt>
      <trkpt lat="43.91362" lon="7.43638">
        <ele>1169.7</ele>
        <time>2017-08-28T11:27:25Z</time>
      </trkpt>
      <trkpt lat="43.91357" lon="7.43638">
        <ele>1169.2</ele>
        <time>2017-08-28T11:27:29Z</time>
      </trkpt>
      <trkpt lat="43.91342" lon="7.43641">
        <ele>1167.2</ele>
        <time>2017-08-28T11:27:42Z</time>
      </trkpt>
      <trkpt lat="43.91322" lon="7.43643">
        <ele>1165.9</ele>
        <time>2017-08-28T11:27:57Z</time>
      </trkpt>
      <trkpt lat="43.91308" lon="7.43645">
        <ele>1164.7</ele>
        <time>2017-08-28T11:28:06Z</time>
      </trkpt>
      <trkpt lat="43.91297" lon="7.43644">
        <ele>1165</ele>
        <time>2017-08-28T11:28:13Z</time>
      </trkpt>
      <trkpt lat="43.91289" lon="7.43647">
        <ele>1163.4</ele>
        <time>2017-08-28T11:28:20Z</time>
      </trkpt>
      <trkpt lat="43.91276" lon="7.43654">
        <ele>1159.8</ele>
        <time>2017-08-28T11:28:33Z</time>
      </trkpt>
      <trkpt lat="43.91259" lon="7.43668">
        <ele>1152.1</ele>
        <time>2017-08-28T11:28:46Z</time>
      </trkpt>
      <trkpt lat="43.91258" lon="7.43668">
        <ele>1151.9</ele>
        <time>2017-08-28T11:28:47Z</time>
      </trkpt>
      <trkpt lat="43.91252" lon="7.43671">
        <ele>1150.2</ele>
        <time>2017-08-28T11:28:51Z</time>
      </trkpt>
      <trkpt lat="43.91243" lon="7.43677">
        <ele>1145.4</ele>
        <time>2017-08-28T11:28:57Z</time>
      </trkpt>
      <trkpt lat="43.91242" lon="7.43678">
        <ele>1144.7</ele>
        <time>2017-08-28T11:28:58Z</time>
      </trkpt>
      <trkpt lat="43.91227" lon="7.43676">
        <ele>1142</ele>
        <time>2017-08-28T11:29:11Z</time>
      </trkpt>
      <trkpt lat="43.91224" lon="7.43676">
        <ele>1141.5</ele>
        <time>2017-08-28T11:29:14Z</time>
      </trkpt>
      <trkpt lat="43.9122" lon="7.43678">
        <ele>1139.6</ele>
        <time>2017-08-28T11:29:17Z</time>
      </trkpt>
      <trkpt lat="43.9121" lon="7.43678">
        <ele>1136.5</ele>
        <time>2017-08-28T11:29:26Z</time>
      </trkpt>
      <trkpt lat="43.91202" lon="7.43676">
        <ele>1134.6</ele>
        <time>2017-08-28T11:29:33Z</time>
      </trkpt>
      <trkpt lat="43.912" lon="7.43676">
        <ele>1133.9</ele>
        <time>2017-08-28T11:29:35Z</time>
      </trkpt>
      <trkpt lat="43.91195" lon="7.43676">
        <ele>1132.3</ele>
        <time>2017-08-28T11:29:38Z</time>
      </trkpt>
      <trkpt lat="43.91186" lon="7.43674">
        <ele>1130.4</ele>
        <time>2017-08-28T11:29:45Z</time>
      </trkpt>
      <trkpt lat="43.91176" lon="7.43669">
        <ele>1128.9</ele>
        <time>2017-08-28T11:29:56Z</time>
      </trkpt>
      <trkpt lat="43.91172" lon="7.4367">
        <ele>1127.2</ele>
        <time>2017-08-28T11:30:12Z</time>
      </trkpt>
      <trkpt lat="43.91171" lon="7.4367">
        <ele>1127.2</ele>
        <time>2017-08-28T11:30:34Z</time>
      </trkpt>
      <trkpt lat="43.9117" lon="7.43669">
        <ele>1127.2</ele>
        <time>2017-08-28T11:30:50Z</time>
      </trkpt>
      <trkpt lat="43.9117" lon="7.43669">
        <ele>1127.2</ele>
        <time>2017-08-28T11:31:16Z</time>
      </trkpt>
      <trkpt lat="43.91167" lon="7.43666">
        <ele>1127</ele>
        <time>2017-08-28T11:31:36Z</time>
      </trkpt>
      <trkpt lat="43.91163" lon="7.43664">
        <ele>1125.1</ele>
        <time>2017-08-28T11:31:41Z</time>
      </trkpt>
      <trkpt lat="43.91156" lon="7.43666">
        <ele>1122.3</ele>
        <time>2017-08-28T11:31:49Z</time>
      </trkpt>
      <trkpt lat="43.91152" lon="7.43665">
        <ele>1120.5</ele>
        <time>2017-08-28T11:31:53Z</time>
      </trkpt>
      <trkpt lat="43.91151" lon="7.43664">
        <ele>1119.9</ele>
        <time>2017-08-28T11:31:56Z</time>
      </trkpt>
      <trkpt lat="43.91151" lon="7.43662">
        <ele>1119.6</ele>
        <time>2017-08-28T11:31:58Z</time>
      </trkpt>
      <trkpt lat="43.91144" lon="7.43656">
        <ele>1115.9</ele>
        <time>2017-08-28T11:32:11Z</time>
      </trkpt>
      <trkpt lat="43.91138" lon="7.43677">
        <ele>1112.6</ele>
        <time>2017-08-28T11:32:28Z</time>
      </trkpt>
      <trkpt lat="43.91137" lon="7.43683">
        <ele>1111.1</ele>
        <time>2017-08-28T11:32:38Z</time>
      </trkpt>
      <trkpt lat="43.91129" lon="7.4368">
        <ele>1109.2</ele>
        <time>2017-08-28T11:32:46Z</time>
      </trkpt>
      <trkpt lat="43.91126" lon="7.43678">
        <ele>1108.5</ele>
        <time>2017-08-28T11:32:49Z</time>
      </trkpt>
      <trkpt lat="43.91123" lon="7.43677">
        <ele>1107.5</ele>
        <time>2017-08-28T11:32:55Z</time>
      </trkpt>
      <trkpt lat="43.91119" lon="7.43675">
        <ele>1106.2</ele>
        <time>2017-08-28T11:32:59Z</time>
      </trkpt>
      <trkpt lat="43.91117" lon="7.43678">
        <ele>1105.4</ele>
        <time>2017-08-28T11:33:03Z</time>
      </trkpt>
      <trkpt lat="43.91115" lon="7.43682">
        <ele>1104.6</ele>
        <time>2017-08-28T11:33:09Z</time>
      </trkpt>
      <trkpt lat="43.91113" lon="7.43687">
        <ele>1103.9</ele>
        <time>2017-08-28T11:33:13Z</time>
      </trkpt>
      <trkpt lat="43.91124" lon="7.43696">
        <ele>1105</ele>
        <time>2017-08-28T11:33:26Z</time>
      </trkpt>
      <trkpt lat="43.9113" lon="7.43708">
        <ele>1099.9</ele>
        <time>2017-08-28T11:33:39Z</time>
      </trkpt>
      <trkpt lat="43.91138" lon="7.43716">
        <ele>1096.9</ele>
        <time>2017-08-28T11:33:51Z</time>
      </trkpt>
      <trkpt lat="43.91138" lon="7.4372">
        <ele>1094.9</ele>
        <time>2017-08-28T11:33:55Z</time>
      </trkpt>
      <trkpt lat="43.91138" lon="7.43723">
        <ele>1093.6</ele>
        <time>2017-08-28T11:33:59Z</time>
      </trkpt>
      <trkpt lat="43.91138" lon="7.43723">
        <ele>1093.5</ele>
        <time>2017-08-28T11:34:17Z</time>
      </trkpt>
      <trkpt lat="43.91138" lon="7.43723">
        <ele>1093.5</ele>
        <time>2017-08-28T11:34:39Z</time>
      </trkpt>
      <trkpt lat="43.91138" lon="7.43724">
        <ele>1093.1</ele>
        <time>2017-08-28T11:35:03Z</time>
      </trkpt>
      <trkpt lat="43.91139" lon="7.43725">
        <ele>1093</ele>
        <time>2017-08-28T11:35:07Z</time>
      </trkpt>
      <trkpt lat="43.91144" lon="7.43725">
        <ele>1094.6</ele>
        <time>2017-08-28T11:35:11Z</time>
      </trkpt>
      <trkpt lat="43.91148" lon="7.43733">
        <ele>1092.3</ele>
        <time>2017-08-28T11:35:17Z</time>
      </trkpt>
      <trkpt lat="43.91149" lon="7.43738">
        <ele>1090.5</ele>
        <time>2017-08-28T11:35:20Z</time>
      </trkpt>
      <trkpt lat="43.91149" lon="7.43741">
        <ele>1089.3</ele>
        <time>2017-08-28T11:35:25Z</time>
      </trkpt>
      <trkpt lat="43.91144" lon="7.43741">
        <ele>1087.6</ele>
        <time>2017-08-28T11:35:30Z</time>
      </trkpt>
      <trkpt lat="43.91139" lon="7.43743">
        <ele>1085.1</ele>
        <time>2017-08-28T11:35:35Z</time>
      </trkpt>
      <trkpt lat="43.9113" lon="7.43745">
        <ele>1082.5</ele>
        <time>2017-08-28T11:35:44Z</time>
      </trkpt>
      <trkpt lat="43.91116" lon="7.43746">
        <ele>1079.1</ele>
        <time>2017-08-28T11:35:57Z</time>
      </trkpt>
      <trkpt lat="43.91109" lon="7.43746">
        <ele>1077.8</ele>
        <time>2017-08-28T11:36:03Z</time>
      </trkpt>
      <trkpt lat="43.91094" lon="7.43746">
        <ele>1075</ele>
        <time>2017-08-28T11:36:18Z</time>
      </trkpt>
      <trkpt lat="43.9109" lon="7.43747">
        <ele>1074.2</ele>
        <time>2017-08-28T11:36:22Z</time>
      </trkpt>
      <trkpt lat="43.91088" lon="7.43749">
        <ele>1073</ele>
        <time>2017-08-28T11:36:34Z</time>
      </trkpt>
      <trkpt lat="43.91084" lon="7.4375">
        <ele>1072.1</ele>
        <time>2017-08-28T11:36:37Z</time>
      </trkpt>
      <trkpt lat="43.91079" lon="7.43749">
        <ele>1071.4</ele>
        <time>2017-08-28T11:36:41Z</time>
      </trkpt>
      <trkpt lat="43.91074" lon="7.43749">
        <ele>1070.2</ele>
        <time>2017-08-28T11:36:45Z</time>
      </trkpt>
      <trkpt lat="43.91066" lon="7.43749">
        <ele>1068.4</ele>
        <time>2017-08-28T11:36:52Z</time>
      </trkpt>
      <trkpt lat="43.91063" lon="7.4375">
        <ele>1067.7</ele>
        <time>2017-08-28T11:36:55Z</time>
      </trkpt>
      <trkpt lat="43.91057" lon="7.4375">
        <ele>1066.3</ele>
        <time>2017-08-28T11:37:01Z</time>
      </trkpt>
      <trkpt lat="43.91048" lon="7.43747">
        <ele>1063.9</ele>
        <time>2017-08-28T11:37:11Z</time>
      </trkpt>
      <trkpt lat="43.91039" lon="7.43745">
        <ele>1061.2</ele>
        <time>2017-08-28T11:37:20Z</time>
      </trkpt>
      <trkpt lat="43.91037" lon="7.43745">
        <ele>1060.4</ele>
        <time>2017-08-28T11:37:23Z</time>
      </trkpt>
      <trkpt lat="43.91032" lon="7.43746">
        <ele>1058.8</ele>
        <time>2017-08-28T11:37:28Z</time>
      </trkpt>
      <trkpt lat="43.91021" lon="7.43745">
        <ele>1055.1</ele>
        <time>2017-08-28T11:37:40Z</time>
      </trkpt>
      <trkpt lat="43.91012" lon="7.43744">
        <ele>1051.8</ele>
        <time>2017-08-28T11:37:53Z</time>
      </trkpt>
      <trkpt lat="43.91007" lon="7.43744">
        <ele>1050</ele>
        <time>2017-08-28T11:37:59Z</time>
      </trkpt>
      <trkpt lat="43.91002" lon="7.43743">
        <ele>1047.9</ele>
        <time>2017-08-28T11:38:04Z</time>
      </trkpt>
      <trkpt lat="43.91002" lon="7.43743">
        <ele>1047.7</ele>
        <time>2017-08-28T11:38:22Z</time>
      </trkpt>
      <trkpt lat="43.90997" lon="7.43746">
        <ele>1046.6</ele>
        <time>2017-08-28T11:38:32Z</time>
      </trkpt>
      <trkpt lat="43.90985" lon="7.4375">
        <ele>1041.8</ele>
        <time>2017-08-28T11:38:43Z</time>
      </trkpt>
      <trkpt lat="43.90976" lon="7.43749">
        <ele>1037.6</ele>
        <time>2017-08-28T11:38:49Z</time>
      </trkpt>
      <trkpt lat="43.90973" lon="7.43755">
        <ele>1036.7</ele>
        <time>2017-08-28T11:38:54Z</time>
      </trkpt>
      <trkpt lat="43.90972" lon="7.43756">
        <ele>1036.5</ele>
        <time>2017-08-28T11:38:55Z</time>
      </trkpt>
      <trkpt lat="43.90965" lon="7.43761">
        <ele>1034.3</ele>
        <time>2017-08-28T11:39:03Z</time>
      </trkpt>
      <trkpt lat="43.90955" lon="7.43767">
        <ele>1031.6</ele>
        <time>2017-08-28T11:39:12Z</time>
      </trkpt>
      <trkpt lat="43.90939" lon="7.43778">
        <ele>1028.2</ele>
        <time>2017-08-28T11:39:27Z</time>
      </trkpt>
      <trkpt lat="43.9093" lon="7.43784">
        <ele>1023.8</ele>
        <time>2017-08-28T11:39:36Z</time>
      </trkpt>
      <trkpt lat="43.90926" lon="7.43793">
        <ele>1022.7</ele>
        <time>2017-08-28T11:39:51Z</time>
      </trkpt>
      <trkpt lat="43.90922" lon="7.43797">
        <ele>1021.4</ele>
        <time>2017-08-28T11:39:59Z</time>
      </trkpt>
      <trkpt lat="43.90917" lon="7.43804">
        <ele>1020.7</ele>
        <time>2017-08-28T11:40:06Z</time>
      </trkpt>
      <trkpt lat="43.90909" lon="7.43819">
        <ele>1017.4</ele>
        <time>2017-08-28T11:40:20Z</time>
      </trkpt>
      <trkpt lat="43.90908" lon="7.43819">
        <ele>1017</ele>
        <time>2017-08-28T11:40:21Z</time>
      </trkpt>
      <trkpt lat="43.90901" lon="7.43826">
        <ele>1014.3</ele>
        <time>2017-08-28T11:40:29Z</time>
      </trkpt>
      <trkpt lat="43.909" lon="7.43831">
        <ele>1014.4</ele>
        <time>2017-08-28T11:40:33Z</time>
      </trkpt>
      <trkpt lat="43.90901" lon="7.43832">
        <ele>1014.7</ele>
        <time>2017-08-28T11:40:34Z</time>
      </trkpt>
      <trkpt lat="43.90908" lon="7.43841">
        <ele>1014.9</ele>
        <time>2017-08-28T11:40:46Z</time>
      </trkpt>
      <trkpt lat="43.90908" lon="7.43846">
        <ele>1013</ele>
        <time>2017-08-28T11:41:00Z</time>
      </trkpt>
      <trkpt lat="43.90908" lon="7.43846">
        <ele>1012.9</ele>
        <time>2017-08-28T11:41:20Z</time>
      </trkpt>
      <trkpt lat="43.90908" lon="7.43847">
        <ele>1012.8</ele>
        <time>2017-08-28T11:41:40Z</time>
      </trkpt>
      <trkpt lat="43.90908" lon="7.43847">
        <ele>1012.8</ele>
        <time>2017-08-28T11:42:05Z</time>
      </trkpt>
      <trkpt lat="43.90908" lon="7.43846">
        <ele>1012.8</ele>
        <time>2017-08-28T11:42:37Z</time>
      </trkpt>
      <trkpt lat="43.90908" lon="7.43846">
        <ele>1012.9</ele>
        <time>2017-08-28T11:43:01Z</time>
      </trkpt>
      <trkpt lat="43.90903" lon="7.43848">
        <ele>1011.2</ele>
        <time>2017-08-28T11:43:15Z</time>
      </trkpt>
      <trkpt lat="43.90897" lon="7.43852">
        <ele>1009.2</ele>
        <time>2017-08-28T11:43:21Z</time>
      </trkpt>
      <trkpt lat="43.90886" lon="7.43856">
        <ele>1006.3</ele>
        <time>2017-08-28T11:43:32Z</time>
      </trkpt>
      <trkpt lat="43.90875" lon="7.43865">
        <ele>1002.1</ele>
        <time>2017-08-28T11:43:44Z</time>
      </trkpt>
      <trkpt lat="43.9087" lon="7.43867">
        <ele>1000.4</ele>
        <time>2017-08-28T11:43:49Z</time>
      </trkpt>
      <trkpt lat="43.90862" lon="7.43868">
        <ele>998.7</ele>
        <time>2017-08-28T11:43:57Z</time>
      </trkpt>
      <trkpt lat="43.90853" lon="7.43869">
        <ele>996.3</ele>
        <time>2017-08-28T11:44:04Z</time>
      </trkpt>
      <trkpt lat="43.90847" lon="7.43873">
        <ele>993.7</ele>
        <time>2017-08-28T11:44:11Z</time>
      </trkpt>
      <trkpt lat="43.90841" lon="7.43879">
        <ele>991.5</ele>
        <time>2017-08-28T11:44:17Z</time>
      </trkpt>
      <trkpt lat="43.90835" lon="7.4388">
        <ele>990.2</ele>
        <time>2017-08-28T11:44:22Z</time>
      </trkpt>
      <trkpt lat="43.90834" lon="7.43881">
        <ele>990</ele>
        <time>2017-08-28T11:44:23Z</time>
      </trkpt>
      <trkpt lat="43.90831" lon="7.43882">
        <ele>989.2</ele>
        <time>2017-08-28T11:44:26Z</time>
      </trkpt>
      <trkpt lat="43.90822" lon="7.43886">
        <ele>987.2</ele>
        <time>2017-08-28T11:44:34Z</time>
      </trkpt>
      <trkpt lat="43.90812" lon="7.43886">
        <ele>985.3</ele>
        <time>2017-08-28T11:44:42Z</time>
      </trkpt>
      <trkpt lat="43.90802" lon="7.43886">
        <ele>983.7</ele>
        <time>2017-08-28T11:44:51Z</time>
      </trkpt>
      <trkpt lat="43.90794" lon="7.43877">
        <ele>983</ele>
        <time>2017-08-28T11:45:05Z</time>
      </trkpt>
      <trkpt lat="43.90782" lon="7.43876">
        <ele>981.5</ele>
        <time>2017-08-28T11:45:20Z</time>
      </trkpt>
      <trkpt lat="43.9078" lon="7.43875">
        <ele>981.3</ele>
        <time>2017-08-28T11:45:22Z</time>
      </trkpt>
      <trkpt lat="43.90767" lon="7.43869">
        <ele>979.1</ele>
        <time>2017-08-28T11:45:34Z</time>
      </trkpt>
      <trkpt lat="43.90766" lon="7.43864">
        <ele>978.8</ele>
        <time>2017-08-28T11:45:38Z</time>
      </trkpt>
      <trkpt lat="43.90761" lon="7.43862">
        <ele>978</ele>
        <time>2017-08-28T11:45:42Z</time>
      </trkpt>
      <trkpt lat="43.90752" lon="7.43864">
        <ele>976.3</ele>
        <time>2017-08-28T11:45:49Z</time>
      </trkpt>
      <trkpt lat="43.90749" lon="7.43867">
        <ele>975.9</ele>
        <time>2017-08-28T11:45:52Z</time>
      </trkpt>
      <trkpt lat="43.90744" lon="7.43868">
        <ele>974.9</ele>
        <time>2017-08-28T11:45:57Z</time>
      </trkpt>
      <trkpt lat="43.90732" lon="7.43868">
        <ele>972.7</ele>
        <time>2017-08-28T11:46:06Z</time>
      </trkpt>
      <trkpt lat="43.9072" lon="7.43869">
        <ele>970.7</ele>
        <time>2017-08-28T11:46:16Z</time>
      </trkpt>
      <trkpt lat="43.90716" lon="7.43872">
        <ele>970.1</ele>
        <time>2017-08-28T11:46:20Z</time>
      </trkpt>
      <trkpt lat="43.90702" lon="7.43874">
        <ele>968.3</ele>
        <time>2017-08-28T11:46:31Z</time>
      </trkpt>
      <trkpt lat="43.90692" lon="7.43878">
        <ele>967.7</ele>
        <time>2017-08-28T11:46:39Z</time>
      </trkpt>
      <trkpt lat="43.90683" lon="7.43882">
        <ele>967.7</ele>
        <time>2017-08-28T11:46:48Z</time>
      </trkpt>
      <trkpt lat="43.90674" lon="7.4388">
        <ele>966.8</ele>
        <time>2017-08-28T11:46:56Z</time>
      </trkpt>
      <trkpt lat="43.9066" lon="7.43888">
        <ele>966.8</ele>
        <time>2017-08-28T11:47:09Z</time>
      </trkpt>
      <trkpt lat="43.90649" lon="7.43891">
        <ele>964.8</ele>
        <time>2017-08-28T11:47:22Z</time>
      </trkpt>
      <trkpt lat="43.90649" lon="7.43891">
        <ele>964.8</ele>
        <time>2017-08-28T11:47:56Z</time>
      </trkpt>
      <trkpt lat="43.90649" lon="7.43892">
        <ele>964.7</ele>
        <time>2017-08-28T11:48:15Z</time>
      </trkpt>
      <trkpt lat="43.90649" lon="7.43892">
        <ele>964.6</ele>
        <time>2017-08-28T11:48:52Z</time>
      </trkpt>
      <trkpt lat="43.9065" lon="7.43893">
        <ele>964.5</ele>
        <time>2017-08-28T11:49:26Z</time>
      </trkpt>
      <trkpt lat="43.9065" lon="7.43893">
        <ele>964.4</ele>
        <time>2017-08-28T11:49:45Z</time>
      </trkpt>
      <trkpt lat="43.9065" lon="7.43893">
        <ele>964.4</ele>
        <time>2017-08-28T11:50:11Z</time>
      </trkpt>
      <trkpt lat="43.90641" lon="7.43895">
        <ele>963.1</ele>
        <time>2017-08-28T11:50:27Z</time>
      </trkpt>
      <trkpt lat="43.90631" lon="7.43892">
        <ele>961.4</ele>
        <time>2017-08-28T11:50:35Z</time>
      </trkpt>
      <trkpt lat="43.90627" lon="7.4389">
        <ele>960.4</ele>
        <time>2017-08-28T11:50:38Z</time>
      </trkpt>
      <trkpt lat="43.90611" lon="7.43901">
        <ele>956</ele>
        <time>2017-08-28T11:50:53Z</time>
      </trkpt>
      <trkpt lat="43.90608" lon="7.43918">
        <ele>954.7</ele>
        <time>2017-08-28T11:51:05Z</time>
      </trkpt>
      <trkpt lat="43.90601" lon="7.43922">
        <ele>951.3</ele>
        <time>2017-08-28T11:51:14Z</time>
      </trkpt>
      <trkpt lat="43.90598" lon="7.43927">
        <ele>949.3</ele>
        <time>2017-08-28T11:51:18Z</time>
      </trkpt>
      <trkpt lat="43.90595" lon="7.43929">
        <ele>948.1</ele>
        <time>2017-08-28T11:51:20Z</time>
      </trkpt>
      <trkpt lat="43.90593" lon="7.43942">
        <ele>945.5</ele>
        <time>2017-08-28T11:51:28Z</time>
      </trkpt>
      <trkpt lat="43.90594" lon="7.4395">
        <ele>943.6</ele>
        <time>2017-08-28T11:51:37Z</time>
      </trkpt>
      <trkpt lat="43.90595" lon="7.43961">
        <ele>940.8</ele>
        <time>2017-08-28T11:51:46Z</time>
      </trkpt>
      <trkpt lat="43.90594" lon="7.43964">
        <ele>939.9</ele>
        <time>2017-08-28T11:51:49Z</time>
      </trkpt>
      <trkpt lat="43.90593" lon="7.43968">
        <ele>938.5</ele>
        <time>2017-08-28T11:51:56Z</time>
      </trkpt>
      <trkpt lat="43.9059" lon="7.43973">
        <ele>936.9</ele>
        <time>2017-08-28T11:52:02Z</time>
      </trkpt>
      <trkpt lat="43.90575" lon="7.43986">
        <ele>931.2</ele>
        <time>2017-08-28T11:52:15Z</time>
      </trkpt>
      <trkpt lat="43.90571" lon="7.43988">
        <ele>929.8</ele>
        <time>2017-08-28T11:52:19Z</time>
      </trkpt>
      <trkpt lat="43.90561" lon="7.43993">
        <ele>926.8</ele>
        <time>2017-08-28T11:52:29Z</time>
      </trkpt>
      <trkpt lat="43.9056" lon="7.44">
        <ele>925.6</ele>
        <time>2017-08-28T11:52:34Z</time>
      </trkpt>
      <trkpt lat="43.90549" lon="7.44015">
        <ele>920.3</ele>
        <time>2017-08-28T11:52:47Z</time>
      </trkpt>
      <trkpt lat="43.90541" lon="7.4403">
        <ele>916.6</ele>
        <time>2017-08-28T11:52:59Z</time>
      </trkpt>
      <trkpt lat="43.90532" lon="7.44046">
        <ele>914.2</ele>
        <time>2017-08-28T11:53:11Z</time>
      </trkpt>
      <trkpt lat="43.90527" lon="7.44063">
        <ele>912.7</ele>
        <time>2017-08-28T11:53:23Z</time>
      </trkpt>
      <trkpt lat="43.90527" lon="7.44072">
        <ele>911.3</ele>
        <time>2017-08-28T11:53:28Z</time>
      </trkpt>
      <trkpt lat="43.90525" lon="7.44078">
        <ele>910</ele>
        <time>2017-08-28T11:53:32Z</time>
      </trkpt>
      <trkpt lat="43.90518" lon="7.44089">
        <ele>906.4</ele>
        <time>2017-08-28T11:53:45Z</time>
      </trkpt>
      <trkpt lat="43.90514" lon="7.44095">
        <ele>904.5</ele>
        <time>2017-08-28T11:53:50Z</time>
      </trkpt>
      <trkpt lat="43.90511" lon="7.441">
        <ele>903.1</ele>
        <time>2017-08-28T11:53:56Z</time>
      </trkpt>
      <trkpt lat="43.90508" lon="7.44106">
        <ele>901.4</ele>
        <time>2017-08-28T11:54:02Z</time>
      </trkpt>
      <trkpt lat="43.90504" lon="7.4411">
        <ele>900.5</ele>
        <time>2017-08-28T11:54:06Z</time>
      </trkpt>
      <trkpt lat="43.90502" lon="7.44118">
        <ele>898.1</ele>
        <time>2017-08-28T11:54:12Z</time>
      </trkpt>
      <trkpt lat="43.90498" lon="7.44118">
        <ele>897</ele>
        <time>2017-08-28T11:54:17Z</time>
      </trkpt>
      <trkpt lat="43.90496" lon="7.44117">
        <ele>896.4</ele>
        <time>2017-08-28T11:54:19Z</time>
      </trkpt>
      <trkpt lat="43.9049" lon="7.44124">
        <ele>892.6</ele>
        <time>2017-08-28T11:54:26Z</time>
      </trkpt>
      <trkpt lat="43.90493" lon="7.44138">
        <ele>890.4</ele>
        <time>2017-08-28T11:54:35Z</time>
      </trkpt>
      <trkpt lat="43.90489" lon="7.44162">
        <ele>887.5</ele>
        <time>2017-08-28T11:54:50Z</time>
      </trkpt>
      <trkpt lat="43.90473" lon="7.44176">
        <ele>889.8</ele>
        <time>2017-08-28T11:55:06Z</time>
      </trkpt>
      <trkpt lat="43.90465" lon="7.44186">
        <ele>890.4</ele>
        <time>2017-08-28T11:55:19Z</time>
      </trkpt>
      <trkpt lat="43.90445" lon="7.44185">
        <ele>888.7</ele>
        <time>2017-08-28T11:55:34Z</time>
      </trkpt>
      <trkpt lat="43.90428" lon="7.44189">
        <ele>888.1</ele>
        <time>2017-08-28T11:55:48Z</time>
      </trkpt>
      <trkpt lat="43.90416" lon="7.44191">
        <ele>887.5</ele>
        <time>2017-08-28T11:55:58Z</time>
      </trkpt>
      <trkpt lat="43.90407" lon="7.4419">
        <ele>886.7</ele>
        <time>2017-08-28T11:56:06Z</time>
      </trkpt>
      <trkpt lat="43.90389" lon="7.44189">
        <ele>885.6</ele>
        <time>2017-08-28T11:56:20Z</time>
      </trkpt>
      <trkpt lat="43.90369" lon="7.44182">
        <ele>883.9</ele>
        <time>2017-08-28T11:56:36Z</time>
      </trkpt>
      <trkpt lat="43.90367" lon="7.44182">
        <ele>883.8</ele>
        <time>2017-08-28T11:56:38Z</time>
      </trkpt>
      <trkpt lat="43.90346" lon="7.44179">
        <ele>882.3</ele>
        <time>2017-08-28T11:56:55Z</time>
      </trkpt>
      <trkpt lat="43.90333" lon="7.4417">
        <ele>882.5</ele>
        <time>2017-08-28T11:57:08Z</time>
      </trkpt>
      <trkpt lat="43.90313" lon="7.44161">
        <ele>880.4</ele>
        <time>2017-08-28T11:57:23Z</time>
      </trkpt>
      <trkpt lat="43.90294" lon="7.44149">
        <ele>878</ele>
        <time>2017-08-28T11:57:40Z</time>
      </trkpt>
      <trkpt lat="43.90285" lon="7.44147">
        <ele>877.1</ele>
        <time>2017-08-28T11:57:46Z</time>
      </trkpt>
      <trkpt lat="43.90265" lon="7.44145">
        <ele>874.6</ele>
        <time>2017-08-28T11:58:00Z</time>
      </trkpt>
      <trkpt lat="43.90248" lon="7.44149">
        <ele>871.6</ele>
        <time>2017-08-28T11:58:13Z</time>
      </trkpt>
      <trkpt lat="43.90236" lon="7.44152">
        <ele>869.5</ele>
        <time>2017-08-28T11:58:22Z</time>
      </trkpt>
      <trkpt lat="43.90232" lon="7.44153">
        <ele>869</ele>
        <time>2017-08-28T11:58:25Z</time>
      </trkpt>
      <trkpt lat="43.90226" lon="7.44155">
        <ele>867.9</ele>
        <time>2017-08-28T11:58:30Z</time>
      </trkpt>
      <trkpt lat="43.90221" lon="7.44157">
        <ele>867.1</ele>
        <time>2017-08-28T11:58:34Z</time>
      </trkpt>
      <trkpt lat="43.90216" lon="7.44157">
        <ele>866.3</ele>
        <time>2017-08-28T11:58:38Z</time>
      </trkpt>
      <trkpt lat="43.90207" lon="7.44159">
        <ele>865</ele>
        <time>2017-08-28T11:58:45Z</time>
      </trkpt>
      <trkpt lat="43.90191" lon="7.44167">
        <ele>863.6</ele>
        <time>2017-08-28T11:58:57Z</time>
      </trkpt>
      <trkpt lat="43.90169" lon="7.44176">
        <ele>860.5</ele>
        <time>2017-08-28T11:59:12Z</time>
      </trkpt>
      <trkpt lat="43.90145" lon="7.4418">
        <ele>857.6</ele>
        <time>2017-08-28T11:59:29Z</time>
      </trkpt>
      <trkpt lat="43.90129" lon="7.44185">
        <ele>856</ele>
        <time>2017-08-28T11:59:41Z</time>
      </trkpt>
      <trkpt lat="43.90114" lon="7.4419">
        <ele>854.7</ele>
        <time>2017-08-28T11:59:53Z</time>
      </trkpt>
      <trkpt lat="43.90105" lon="7.44197">
        <ele>852.9</ele>
        <time>2017-08-28T12:00:02Z</time>
      </trkpt>
      <trkpt lat="43.90102" lon="7.44205">
        <ele>851.1</ele>
        <time>2017-08-28T12:00:07Z</time>
      </trkpt>
      <trkpt lat="43.90099" lon="7.44208">
        <ele>850.1</ele>
        <time>2017-08-28T12:00:10Z</time>
      </trkpt>
      <trkpt lat="43.90095" lon="7.44213">
        <ele>848.9</ele>
        <time>2017-08-28T12:00:15Z</time>
      </trkpt>
      <trkpt lat="43.90077" lon="7.44219">
        <ele>845.1</ele>
        <time>2017-08-28T12:00:29Z</time>
      </trkpt>
      <trkpt lat="43.90069" lon="7.4423">
        <ele>842.1</ele>
        <time>2017-08-28T12:00:39Z</time>
      </trkpt>
      <trkpt lat="43.90062" lon="7.44239">
        <ele>840.1</ele>
        <time>2017-08-28T12:00:47Z</time>
      </trkpt>
      <trkpt lat="43.90048" lon="7.44241">
        <ele>836.3</ele>
        <time>2017-08-28T12:00:58Z</time>
      </trkpt>
      <trkpt lat="43.90044" lon="7.44248">
        <ele>835</ele>
        <time>2017-08-28T12:01:05Z</time>
      </trkpt>
      <trkpt lat="43.90046" lon="7.44252">
        <ele>835.6</ele>
        <time>2017-08-28T12:01:08Z</time>
      </trkpt>
      <trkpt lat="43.90039" lon="7.44263">
        <ele>832</ele>
        <time>2017-08-28T12:01:21Z</time>
      </trkpt>
      <trkpt lat="43.90038" lon="7.44266">
        <ele>831.6</ele>
        <time>2017-08-28T12:01:23Z</time>
      </trkpt>
      <trkpt lat="43.90035" lon="7.4427">
        <ele>830.5</ele>
        <time>2017-08-28T12:01:29Z</time>
      </trkpt>
      <trkpt lat="43.90027" lon="7.44276">
        <ele>828.8</ele>
        <time>2017-08-28T12:01:40Z</time>
      </trkpt>
      <trkpt lat="43.90021" lon="7.44276">
        <ele>827.7</ele>
        <time>2017-08-28T12:01:48Z</time>
      </trkpt>
      <trkpt lat="43.90015" lon="7.44275">
        <ele>826.6</ele>
        <time>2017-08-28T12:01:54Z</time>
      </trkpt>
      <trkpt lat="43.90005" lon="7.44281">
        <ele>824</ele>
        <time>2017-08-28T12:02:07Z</time>
      </trkpt>
      <trkpt lat="43.89991" lon="7.44288">
        <ele>820</ele>
        <time>2017-08-28T12:02:20Z</time>
      </trkpt>
      <trkpt lat="43.89977" lon="7.44294">
        <ele>816.6</ele>
        <time>2017-08-28T12:02:33Z</time>
      </trkpt>
      <trkpt lat="43.8996" lon="7.4429">
        <ele>813.1</ele>
        <time>2017-08-28T12:02:49Z</time>
      </trkpt>
      <trkpt lat="43.89958" lon="7.44286">
        <ele>812.9</ele>
        <time>2017-08-28T12:02:53Z</time>
      </trkpt>
      <trkpt lat="43.89958" lon="7.44282">
        <ele>813.1</ele>
        <time>2017-08-28T12:02:56Z</time>
      </trkpt>
      <trkpt lat="43.89963" lon="7.44274">
        <ele>813.7</ele>
        <time>2017-08-28T12:03:08Z</time>
      </trkpt>
      <trkpt lat="43.89959" lon="7.44275">
        <ele>812.7</ele>
        <time>2017-08-28T12:03:12Z</time>
      </trkpt>
      <trkpt lat="43.89945" lon="7.44275">
        <ele>809.4</ele>
        <time>2017-08-28T12:03:25Z</time>
      </trkpt>
      <trkpt lat="43.89944" lon="7.44276">
        <ele>809.3</ele>
        <time>2017-08-28T12:03:26Z</time>
      </trkpt>
      <trkpt lat="43.89941" lon="7.44277">
        <ele>808.9</ele>
        <time>2017-08-28T12:03:29Z</time>
      </trkpt>
      <trkpt lat="43.89929" lon="7.44281">
        <ele>806</ele>
        <time>2017-08-28T12:03:42Z</time>
      </trkpt>
      <trkpt lat="43.89922" lon="7.44288">
        <ele>803.8</ele>
        <time>2017-08-28T12:03:54Z</time>
      </trkpt>
      <trkpt lat="43.89916" lon="7.44293">
        <ele>802.3</ele>
        <time>2017-08-28T12:04:00Z</time>
      </trkpt>
      <trkpt lat="43.89904" lon="7.44289">
        <ele>799.3</ele>
        <time>2017-08-28T12:04:12Z</time>
      </trkpt>
      <trkpt lat="43.89895" lon="7.44285">
        <ele>797</ele>
        <time>2017-08-28T12:04:20Z</time>
      </trkpt>
      <trkpt lat="43.89884" lon="7.44282">
        <ele>793.9</ele>
        <time>2017-08-28T12:04:34Z</time>
      </trkpt>
      <trkpt lat="43.89875" lon="7.44281">
        <ele>791.7</ele>
        <time>2017-08-28T12:04:41Z</time>
      </trkpt>
      <trkpt lat="43.89873" lon="7.44288">
        <ele>791.6</ele>
        <time>2017-08-28T12:04:53Z</time>
      </trkpt>
      <trkpt lat="43.89874" lon="7.44292">
        <ele>792.3</ele>
        <time>2017-08-28T12:04:56Z</time>
      </trkpt>
      <trkpt lat="43.8988" lon="7.443">
        <ele>794.2</ele>
        <time>2017-08-28T12:05:04Z</time>
      </trkpt>
      <trkpt lat="43.89892" lon="7.44322">
        <ele>791.7</ele>
        <time>2017-08-28T12:05:19Z</time>
      </trkpt>
      <trkpt lat="43.89888" lon="7.44327">
        <ele>789.6</ele>
        <time>2017-08-28T12:05:26Z</time>
      </trkpt>
      <trkpt lat="43.89877" lon="7.44327">
        <ele>788.3</ele>
        <time>2017-08-28T12:05:38Z</time>
      </trkpt>
      <trkpt lat="43.89861" lon="7.44322">
        <ele>787.3</ele>
        <time>2017-08-28T12:05:51Z</time>
      </trkpt>
      <trkpt lat="43.8986" lon="7.44322">
        <ele>787</ele>
        <time>2017-08-28T12:05:52Z</time>
      </trkpt>
      <trkpt lat="43.89854" lon="7.44324">
        <ele>785.6</ele>
        <time>2017-08-28T12:05:57Z</time>
      </trkpt>
      <trkpt lat="43.89851" lon="7.44323">
        <ele>785.2</ele>
        <time>2017-08-28T12:05:59Z</time>
      </trkpt>
      <trkpt lat="43.89846" lon="7.4432">
        <ele>784.7</ele>
        <time>2017-08-28T12:06:03Z</time>
      </trkpt>
      <trkpt lat="43.89831" lon="7.44321">
        <ele>781.1</ele>
        <time>2017-08-28T12:06:16Z</time>
      </trkpt>
      <trkpt lat="43.8982" lon="7.44326">
        <ele>776.4</ele>
        <time>2017-08-28T12:06:26Z</time>
      </trkpt>
      <trkpt lat="43.89809" lon="7.44329">
        <ele>772.5</ele>
        <time>2017-08-28T12:06:38Z</time>
      </trkpt>
      <trkpt lat="43.89803" lon="7.44328">
        <ele>770.2</ele>
        <time>2017-08-28T12:06:46Z</time>
      </trkpt>
      <trkpt lat="43.89797" lon="7.44328">
        <ele>766.8</ele>
        <time>2017-08-28T12:06:53Z</time>
      </trkpt>
      <trkpt lat="43.89795" lon="7.4432">
        <ele>766.4</ele>
        <time>2017-08-28T12:07:00Z</time>
      </trkpt>
      <trkpt lat="43.89794" lon="7.44314">
        <ele>766.2</ele>
        <time>2017-08-28T12:07:04Z</time>
      </trkpt>
      <trkpt lat="43.8979" lon="7.44312">
        <ele>764.7</ele>
        <time>2017-08-28T12:07:08Z</time>
      </trkpt>
      <trkpt lat="43.89787" lon="7.44316">
        <ele>762.7</ele>
        <time>2017-08-28T12:07:13Z</time>
      </trkpt>
      <trkpt lat="43.89787" lon="7.44335">
        <ele>760.6</ele>
        <time>2017-08-28T12:07:26Z</time>
      </trkpt>
      <trkpt lat="43.89785" lon="7.44352">
        <ele>758.3</ele>
        <time>2017-08-28T12:07:38Z</time>
      </trkpt>
      <trkpt lat="43.89784" lon="7.44369">
        <ele>756.3</ele>
        <time>2017-08-28T12:07:50Z</time>
      </trkpt>
      <trkpt lat="43.89782" lon="7.44381">
        <ele>754.2</ele>
        <time>2017-08-28T12:07:58Z</time>
      </trkpt>
      <trkpt lat="43.89778" lon="7.4439">
        <ele>752</ele>
        <time>2017-08-28T12:08:05Z</time>
      </trkpt>
      <trkpt lat="43.89777" lon="7.4441">
        <ele>749.6</ele>
        <time>2017-08-28T12:08:18Z</time>
      </trkpt>
      <trkpt lat="43.89777" lon="7.44412">
        <ele>749</ele>
        <time>2017-08-28T12:08:20Z</time>
      </trkpt>
      <trkpt lat="43.89773" lon="7.4442">
        <ele>747.3</ele>
        <time>2017-08-28T12:08:28Z</time>
      </trkpt>
      <trkpt lat="43.89768" lon="7.44432">
        <ele>746</ele>
        <time>2017-08-28T12:08:40Z</time>
      </trkpt>
      <trkpt lat="43.89765" lon="7.44437">
        <ele>745.6</ele>
        <time>2017-08-28T12:08:47Z</time>
      </trkpt>
      <trkpt lat="43.89757" lon="7.44439">
        <ele>744.7</ele>
        <time>2017-08-28T12:09:03Z</time>
      </trkpt>
      <trkpt lat="43.8975" lon="7.44442">
        <ele>744.3</ele>
        <time>2017-08-28T12:09:09Z</time>
      </trkpt>
      <trkpt lat="43.89747" lon="7.44441">
        <ele>743.6</ele>
        <time>2017-08-28T12:09:11Z</time>
      </trkpt>
      <trkpt lat="43.89737" lon="7.44442">
        <ele>741.1</ele>
        <time>2017-08-28T12:09:19Z</time>
      </trkpt>
      <trkpt lat="43.89733" lon="7.44445">
        <ele>740.9</ele>
        <time>2017-08-28T12:09:23Z</time>
      </trkpt>
      <trkpt lat="43.89729" lon="7.44448">
        <ele>740.9</ele>
        <time>2017-08-28T12:09:26Z</time>
      </trkpt>
      <trkpt lat="43.8971" lon="7.44459">
        <ele>739</ele>
        <time>2017-08-28T12:09:42Z</time>
      </trkpt>
      <trkpt lat="43.897" lon="7.44466">
        <ele>738.2</ele>
        <time>2017-08-28T12:09:52Z</time>
      </trkpt>
      <trkpt lat="43.89684" lon="7.4448">
        <ele>736.3</ele>
        <time>2017-08-28T12:10:06Z</time>
      </trkpt>
      <trkpt lat="43.89672" lon="7.4449">
        <ele>734.7</ele>
        <time>2017-08-28T12:10:17Z</time>
      </trkpt>
      <trkpt lat="43.89666" lon="7.44497">
        <ele>734.1</ele>
        <time>2017-08-28T12:10:23Z</time>
      </trkpt>
      <trkpt lat="43.89652" lon="7.44515">
        <ele>731.8</ele>
        <time>2017-08-28T12:10:38Z</time>
      </trkpt>
      <trkpt lat="43.89644" lon="7.44524">
        <ele>730.1</ele>
        <time>2017-08-28T12:10:46Z</time>
      </trkpt>
      <trkpt lat="43.89631" lon="7.44542">
        <ele>726.5</ele>
        <time>2017-08-28T12:11:00Z</time>
      </trkpt>
      <trkpt lat="43.89628" lon="7.44548">
        <ele>725.4</ele>
        <time>2017-08-28T12:11:04Z</time>
      </trkpt>
      <trkpt lat="43.89617" lon="7.44568">
        <ele>723</ele>
        <time>2017-08-28T12:11:18Z</time>
      </trkpt>
      <trkpt lat="43.89608" lon="7.44586">
        <ele>721.7</ele>
        <time>2017-08-28T12:11:30Z</time>
      </trkpt>
      <trkpt lat="43.89596" lon="7.44602">
        <ele>720</ele>
        <time>2017-08-28T12:11:44Z</time>
      </trkpt>
      <trkpt lat="43.89592" lon="7.44607">
        <ele>719.1</ele>
        <time>2017-08-28T12:11:48Z</time>
      </trkpt>
      <trkpt lat="43.8959" lon="7.44603">
        <ele>716.2</ele>
        <time>2017-08-28T12:11:52Z</time>
      </trkpt>
      <trkpt lat="43.89594" lon="7.44595">
        <ele>715.5</ele>
        <time>2017-08-28T12:11:59Z</time>
      </trkpt>
      <trkpt lat="43.896" lon="7.44584">
        <ele>715.5</ele>
        <time>2017-08-28T12:12:07Z</time>
      </trkpt>
      <trkpt lat="43.896" lon="7.44581">
        <ele>715</ele>
        <time>2017-08-28T12:12:09Z</time>
      </trkpt>
      <trkpt lat="43.89605" lon="7.44574">
        <ele>715.9</ele>
        <time>2017-08-28T12:12:14Z</time>
      </trkpt>
      <trkpt lat="43.8961" lon="7.44558">
        <ele>714.8</ele>
        <time>2017-08-28T12:12:23Z</time>
      </trkpt>
      <trkpt lat="43.89611" lon="7.44556">
        <ele>715.2</ele>
        <time>2017-08-28T12:12:25Z</time>
      </trkpt>
      <trkpt lat="43.89613" lon="7.44548">
        <ele>714.5</ele>
        <time>2017-08-28T12:12:29Z</time>
      </trkpt>
      <trkpt lat="43.89617" lon="7.44524">
        <ele>710.9</ele>
        <time>2017-08-28T12:12:44Z</time>
      </trkpt>
      <trkpt lat="43.89617" lon="7.44523">
        <ele>710.9</ele>
        <time>2017-08-28T12:12:45Z</time>
      </trkpt>
      <trkpt lat="43.89622" lon="7.44516">
        <ele>712.2</ele>
        <time>2017-08-28T12:12:50Z</time>
      </trkpt>
      <trkpt lat="43.89624" lon="7.44508">
        <ele>711.3</ele>
        <time>2017-08-28T12:12:55Z</time>
      </trkpt>
      <trkpt lat="43.89622" lon="7.44506">
        <ele>709.3</ele>
        <time>2017-08-28T12:12:57Z</time>
      </trkpt>
      <trkpt lat="43.8961" lon="7.44517">
        <ele>704.8</ele>
        <time>2017-08-28T12:13:09Z</time>
      </trkpt>
      <trkpt lat="43.89599" lon="7.44534">
        <ele>701.7</ele>
        <time>2017-08-28T12:13:24Z</time>
      </trkpt>
      <trkpt lat="43.89597" lon="7.44538">
        <ele>701.3</ele>
        <time>2017-08-28T12:13:27Z</time>
      </trkpt>
      <trkpt lat="43.89593" lon="7.44547">
        <ele>701.1</ele>
        <time>2017-08-28T12:13:33Z</time>
      </trkpt>
      <trkpt lat="43.89591" lon="7.44551">
        <ele>701.1</ele>
        <time>2017-08-28T12:13:36Z</time>
      </trkpt>
      <trkpt lat="43.89583" lon="7.44571">
        <ele>700.7</ele>
        <time>2017-08-28T12:13:49Z</time>
      </trkpt>
      <trkpt lat="43.89573" lon="7.44585">
        <ele>699.8</ele>
        <time>2017-08-28T12:13:59Z</time>
      </trkpt>
      <trkpt lat="43.89569" lon="7.44589">
        <ele>700.1</ele>
        <time>2017-08-28T12:14:03Z</time>
      </trkpt>
      <trkpt lat="43.89568" lon="7.44596">
        <ele>702.4</ele>
        <time>2017-08-28T12:14:07Z</time>
      </trkpt>
      <trkpt lat="43.89566" lon="7.446">
        <ele>703.5</ele>
        <time>2017-08-28T12:14:10Z</time>
      </trkpt>
      <trkpt lat="43.89564" lon="7.44602">
        <ele>703.4</ele>
        <time>2017-08-28T12:14:12Z</time>
      </trkpt>
      <trkpt lat="43.89561" lon="7.44603">
        <ele>702.5</ele>
        <time>2017-08-28T12:14:15Z</time>
      </trkpt>
      <trkpt lat="43.89542" lon="7.446">
        <ele>695.9</ele>
        <time>2017-08-28T12:14:29Z</time>
      </trkpt>
      <trkpt lat="43.89527" lon="7.44589">
        <ele>686.8</ele>
        <time>2017-08-28T12:14:41Z</time>
      </trkpt>
      <trkpt lat="43.89521" lon="7.44593">
        <ele>686.8</ele>
        <time>2017-08-28T12:14:47Z</time>
      </trkpt>
      <trkpt lat="43.89515" lon="7.44595">
        <ele>686.3</ele>
        <time>2017-08-28T12:14:51Z</time>
      </trkpt>
      <trkpt lat="43.89508" lon="7.44602">
        <ele>687.5</ele>
        <time>2017-08-28T12:14:58Z</time>
      </trkpt>
      <trkpt lat="43.89489" lon="7.44606">
        <ele>681.7</ele>
        <time>2017-08-28T12:15:14Z</time>
      </trkpt>
      <trkpt lat="43.89486" lon="7.44606">
        <ele>680.4</ele>
        <time>2017-08-28T12:15:16Z</time>
      </trkpt>
      <trkpt lat="43.8948" lon="7.44609">
        <ele>679.1</ele>
        <time>2017-08-28T12:15:21Z</time>
      </trkpt>
      <trkpt lat="43.89475" lon="7.44615">
        <ele>678.7</ele>
        <time>2017-08-28T12:15:27Z</time>
      </trkpt>
      <trkpt lat="43.89465" lon="7.44635">
        <ele>678</ele>
        <time>2017-08-28T12:15:41Z</time>
      </trkpt>
      <trkpt lat="43.89461" lon="7.44646">
        <ele>677.7</ele>
        <time>2017-08-28T12:15:49Z</time>
      </trkpt>
      <trkpt lat="43.89451" lon="7.4467">
        <ele>675.6</ele>
        <time>2017-08-28T12:16:04Z</time>
      </trkpt>
      <trkpt lat="43.89445" lon="7.44687">
        <ele>677.1</ele>
        <time>2017-08-28T12:16:15Z</time>
      </trkpt>
      <trkpt lat="43.89444" lon="7.44688">
        <ele>676.6</ele>
        <time>2017-08-28T12:16:16Z</time>
      </trkpt>
      <trkpt lat="43.8944" lon="7.44689">
        <ele>674.5</ele>
        <time>2017-08-28T12:16:20Z</time>
      </trkpt>
      <trkpt lat="43.89432" lon="7.44696">
        <ele>673.8</ele>
        <time>2017-08-28T12:16:28Z</time>
      </trkpt>
      <trkpt lat="43.89421" lon="7.44708">
        <ele>675.1</ele>
        <time>2017-08-28T12:16:41Z</time>
      </trkpt>
      <trkpt lat="43.89422" lon="7.447">
        <ele>670.6</ele>
        <time>2017-08-28T12:16:47Z</time>
      </trkpt>
      <trkpt lat="43.89429" lon="7.44685">
        <ele>667.4</ele>
        <time>2017-08-28T12:16:58Z</time>
      </trkpt>
      <trkpt lat="43.89431" lon="7.44678">
        <ele>666.4</ele>
        <time>2017-08-28T12:17:03Z</time>
      </trkpt>
      <trkpt lat="43.89435" lon="7.44676">
        <ele>667.6</ele>
        <time>2017-08-28T12:17:07Z</time>
      </trkpt>
      <trkpt lat="43.89439" lon="7.44659">
        <ele>664.8</ele>
        <time>2017-08-28T12:17:18Z</time>
      </trkpt>
      <trkpt lat="43.89437" lon="7.44657">
        <ele>663.1</ele>
        <time>2017-08-28T12:17:22Z</time>
      </trkpt>
      <trkpt lat="43.89424" lon="7.44676">
        <ele>661.9</ele>
        <time>2017-08-28T12:17:38Z</time>
      </trkpt>
      <trkpt lat="43.89418" lon="7.4468">
        <ele>660.7</ele>
        <time>2017-08-28T12:17:43Z</time>
      </trkpt>
      <trkpt lat="43.89406" lon="7.44685">
        <ele>661.1</ele>
        <time>2017-08-28T12:17:53Z</time>
      </trkpt>
      <trkpt lat="43.89398" lon="7.44682">
        <ele>659.1</ele>
        <time>2017-08-28T12:17:59Z</time>
      </trkpt>
      <trkpt lat="43.89389" lon="7.44675">
        <ele>655.5</ele>
        <time>2017-08-28T12:18:08Z</time>
      </trkpt>
      <trkpt lat="43.89381" lon="7.44678">
        <ele>658</ele>
        <time>2017-08-28T12:18:15Z</time>
      </trkpt>
      <trkpt lat="43.89374" lon="7.44681">
        <ele>660.4</ele>
        <time>2017-08-28T12:18:21Z</time>
      </trkpt>
      <trkpt lat="43.89362" lon="7.44676">
        <ele>659.8</ele>
        <time>2017-08-28T12:18:31Z</time>
      </trkpt>
      <trkpt lat="43.89356" lon="7.44666">
        <ele>658</ele>
        <time>2017-08-28T12:18:38Z</time>
      </trkpt>
      <trkpt lat="43.89356" lon="7.44647">
        <ele>652.4</ele>
        <time>2017-08-28T12:18:51Z</time>
      </trkpt>
      <trkpt lat="43.89357" lon="7.44644">
        <ele>651.3</ele>
        <time>2017-08-28T12:18:53Z</time>
      </trkpt>
      <trkpt lat="43.89354" lon="7.44637">
        <ele>650</ele>
        <time>2017-08-28T12:18:58Z</time>
      </trkpt>
      <trkpt lat="43.89345" lon="7.44615">
        <ele>647</ele>
        <time>2017-08-28T12:19:13Z</time>
      </trkpt>
      <trkpt lat="43.89332" lon="7.44607">
        <ele>647.9</ele>
        <time>2017-08-28T12:19:24Z</time>
      </trkpt>
      <trkpt lat="43.89312" lon="7.44601">
        <ele>648.3</ele>
        <time>2017-08-28T12:19:41Z</time>
      </trkpt>
      <trkpt lat="43.89309" lon="7.44598">
        <ele>647.8</ele>
        <time>2017-08-28T12:19:54Z</time>
      </trkpt>
      <trkpt lat="43.89309" lon="7.44598">
        <ele>647.8</ele>
        <time>2017-08-28T12:20:17Z</time>
      </trkpt>
      <trkpt lat="43.89305" lon="7.44599">
        <ele>648.7</ele>
        <time>2017-08-28T12:20:30Z</time>
      </trkpt>
      <trkpt lat="43.89295" lon="7.44606">
        <ele>651.4</ele>
        <time>2017-08-28T12:20:35Z</time>
      </trkpt>
      <trkpt lat="43.89289" lon="7.44607">
        <ele>652.5</ele>
        <time>2017-08-28T12:20:39Z</time>
      </trkpt>
      <trkpt lat="43.89279" lon="7.44602">
        <ele>651.5</ele>
        <time>2017-08-28T12:20:49Z</time>
      </trkpt>
      <trkpt lat="43.89276" lon="7.44597">
        <ele>650.2</ele>
        <time>2017-08-28T12:20:53Z</time>
      </trkpt>
      <trkpt lat="43.89271" lon="7.4459">
        <ele>648.4</ele>
        <time>2017-08-28T12:20:59Z</time>
      </trkpt>
      <trkpt lat="43.89254" lon="7.44569">
        <ele>645</ele>
        <time>2017-08-28T12:21:15Z</time>
      </trkpt>
      <trkpt lat="43.89245" lon="7.44551">
        <ele>641.5</ele>
        <time>2017-08-28T12:21:27Z</time>
      </trkpt>
      <trkpt lat="43.89232" lon="7.4453">
        <ele>638.4</ele>
        <time>2017-08-28T12:21:44Z</time>
      </trkpt>
      <trkpt lat="43.89222" lon="7.4452">
        <ele>638.5</ele>
        <time>2017-08-28T12:21:53Z</time>
      </trkpt>
      <trkpt lat="43.89204" lon="7.44517">
        <ele>635.3</ele>
        <time>2017-08-28T12:22:06Z</time>
      </trkpt>
      <trkpt lat="43.892" lon="7.44519">
        <ele>634.9</ele>
        <time>2017-08-28T12:22:09Z</time>
      </trkpt>
      <trkpt lat="43.89195" lon="7.44527">
        <ele>635</ele>
        <time>2017-08-28T12:22:16Z</time>
      </trkpt>
      <trkpt lat="43.89188" lon="7.44555">
        <ele>633.3</ele>
        <time>2017-08-28T12:22:33Z</time>
      </trkpt>
      <trkpt lat="43.89181" lon="7.44575">
        <ele>631</ele>
        <time>2017-08-28T12:22:46Z</time>
      </trkpt>
      <trkpt lat="43.89178" lon="7.44582">
        <ele>630.3</ele>
        <time>2017-08-28T12:22:50Z</time>
      </trkpt>
      <trkpt lat="43.89176" lon="7.4459">
        <ele>630.6</ele>
        <time>2017-08-28T12:22:54Z</time>
      </trkpt>
      <trkpt lat="43.89172" lon="7.446">
        <ele>630.1</ele>
        <time>2017-08-28T12:23:03Z</time>
      </trkpt>
      <trkpt lat="43.89175" lon="7.44584">
        <ele>628.7</ele>
        <time>2017-08-28T12:23:14Z</time>
      </trkpt>
      <trkpt lat="43.89179" lon="7.44561">
        <ele>628.1</ele>
        <time>2017-08-28T12:23:28Z</time>
      </trkpt>
      <trkpt lat="43.8918" lon="7.44541">
        <ele>627.1</ele>
        <time>2017-08-28T12:23:41Z</time>
      </trkpt>
      <trkpt lat="43.89175" lon="7.4454">
        <ele>623.6</ele>
        <time>2017-08-28T12:23:53Z</time>
      </trkpt>
      <trkpt lat="43.89174" lon="7.44551">
        <ele>623.4</ele>
        <time>2017-08-28T12:24:03Z</time>
      </trkpt>
      <trkpt lat="43.89171" lon="7.44559">
        <ele>622.6</ele>
        <time>2017-08-28T12:24:09Z</time>
      </trkpt>
      <trkpt lat="43.89166" lon="7.44581">
        <ele>622.1</ele>
        <time>2017-08-28T12:24:24Z</time>
      </trkpt>
      <trkpt lat="43.89153" lon="7.44601">
        <ele>618.5</ele>
        <time>2017-08-28T12:24:39Z</time>
      </trkpt>
      <trkpt lat="43.89135" lon="7.44613">
        <ele>611.4</ele>
        <time>2017-08-28T12:24:55Z</time>
      </trkpt>
      <trkpt lat="43.89127" lon="7.44619">
        <ele>608.4</ele>
        <time>2017-08-28T12:25:02Z</time>
      </trkpt>
      <trkpt lat="43.89123" lon="7.44622">
        <ele>606.9</ele>
        <time>2017-08-28T12:25:06Z</time>
      </trkpt>
      <trkpt lat="43.89121" lon="7.4464">
        <ele>608</ele>
        <time>2017-08-28T12:25:18Z</time>
      </trkpt>
      <trkpt lat="43.89123" lon="7.44645">
        <ele>608</ele>
        <time>2017-08-28T12:25:22Z</time>
      </trkpt>
      <trkpt lat="43.89125" lon="7.44651">
        <ele>608</ele>
        <time>2017-08-28T12:25:26Z</time>
      </trkpt>
      <trkpt lat="43.89127" lon="7.44654">
        <ele>608.4</ele>
        <time>2017-08-28T12:25:28Z</time>
      </trkpt>
      <trkpt lat="43.89135" lon="7.44676">
        <ele>607.7</ele>
        <time>2017-08-28T12:25:43Z</time>
      </trkpt>
      <trkpt lat="43.89138" lon="7.44683">
        <ele>607.5</ele>
        <time>2017-08-28T12:25:48Z</time>
      </trkpt>
      <trkpt lat="43.89143" lon="7.4469">
        <ele>608.1</ele>
        <time>2017-08-28T12:25:53Z</time>
      </trkpt>
      <trkpt lat="43.89137" lon="7.44691">
        <ele>604</ele>
        <time>2017-08-28T12:26:01Z</time>
      </trkpt>
      <trkpt lat="43.89135" lon="7.44687">
        <ele>604.2</ele>
        <time>2017-08-28T12:26:04Z</time>
      </trkpt>
      <trkpt lat="43.89124" lon="7.44674">
        <ele>602.5</ele>
        <time>2017-08-28T12:26:16Z</time>
      </trkpt>
      <trkpt lat="43.8911" lon="7.44658">
        <ele>598.6</ele>
        <time>2017-08-28T12:26:30Z</time>
      </trkpt>
      <trkpt lat="43.89103" lon="7.44652">
        <ele>596.9</ele>
        <time>2017-08-28T12:26:37Z</time>
      </trkpt>
      <trkpt lat="43.89092" lon="7.44645">
        <ele>593.6</ele>
        <time>2017-08-28T12:26:47Z</time>
      </trkpt>
      <trkpt lat="43.89077" lon="7.44633">
        <ele>589.5</ele>
        <time>2017-08-28T12:27:00Z</time>
      </trkpt>
      <trkpt lat="43.89076" lon="7.44633">
        <ele>589.1</ele>
        <time>2017-08-28T12:27:01Z</time>
      </trkpt>
      <trkpt lat="43.89064" lon="7.44617">
        <ele>584.8</ele>
        <time>2017-08-28T12:27:15Z</time>
      </trkpt>
      <trkpt lat="43.89066" lon="7.44611">
        <ele>585.3</ele>
        <time>2017-08-28T12:27:23Z</time>
      </trkpt>
      <trkpt lat="43.89075" lon="7.44604">
        <ele>586.1</ele>
        <time>2017-08-28T12:27:34Z</time>
      </trkpt>
      <trkpt lat="43.89085" lon="7.44597">
        <ele>587.6</ele>
        <time>2017-08-28T12:27:44Z</time>
      </trkpt>
      <trkpt lat="43.89081" lon="7.44588">
        <ele>583.8</ele>
        <time>2017-08-28T12:27:51Z</time>
      </trkpt>
      <trkpt lat="43.89064" lon="7.4459">
        <ele>578.7</ele>
        <time>2017-08-28T12:28:05Z</time>
      </trkpt>
      <trkpt lat="43.89053" lon="7.44594">
        <ele>576</ele>
        <time>2017-08-28T12:28:14Z</time>
      </trkpt>
      <trkpt lat="43.89049" lon="7.44602">
        <ele>576.2</ele>
        <time>2017-08-28T12:28:20Z</time>
      </trkpt>
      <trkpt lat="43.89046" lon="7.44631">
        <ele>576.6</ele>
        <time>2017-08-28T12:28:37Z</time>
      </trkpt>
      <trkpt lat="43.89046" lon="7.44633">
        <ele>576.6</ele>
        <time>2017-08-28T12:28:38Z</time>
      </trkpt>
      <trkpt lat="43.89049" lon="7.44641">
        <ele>577.2</ele>
        <time>2017-08-28T12:28:43Z</time>
      </trkpt>
      <trkpt lat="43.89045" lon="7.44642">
        <ele>574.9</ele>
        <time>2017-08-28T12:28:49Z</time>
      </trkpt>
      <trkpt lat="43.89042" lon="7.44619">
        <ele>575.1</ele>
        <time>2017-08-28T12:29:03Z</time>
      </trkpt>
      <trkpt lat="43.89041" lon="7.44609">
        <ele>573.9</ele>
        <time>2017-08-28T12:29:10Z</time>
      </trkpt>
      <trkpt lat="43.89036" lon="7.44586">
        <ele>567.7</ele>
        <time>2017-08-28T12:29:24Z</time>
      </trkpt>
      <trkpt lat="43.89037" lon="7.44585">
        <ele>567.5</ele>
        <time>2017-08-28T12:29:25Z</time>
      </trkpt>
      <trkpt lat="43.89036" lon="7.44582">
        <ele>566.5</ele>
        <time>2017-08-28T12:29:27Z</time>
      </trkpt>
      <trkpt lat="43.89029" lon="7.44596">
        <ele>566.1</ele>
        <time>2017-08-28T12:29:38Z</time>
      </trkpt>
      <trkpt lat="43.89034" lon="7.4461">
        <ele>570.9</ele>
        <time>2017-08-28T12:29:48Z</time>
      </trkpt>
      <trkpt lat="43.89034" lon="7.44613">
        <ele>571.2</ele>
        <time>2017-08-28T12:29:50Z</time>
      </trkpt>
      <trkpt lat="43.89034" lon="7.44616">
        <ele>570.7</ele>
        <time>2017-08-28T12:29:52Z</time>
      </trkpt>
      <trkpt lat="43.89021" lon="7.44628">
        <ele>564.1</ele>
        <time>2017-08-28T12:30:10Z</time>
      </trkpt>
      <trkpt lat="43.89022" lon="7.44624">
        <ele>564.5</ele>
        <time>2017-08-28T12:30:22Z</time>
      </trkpt>
      <trkpt lat="43.89025" lon="7.44614">
        <ele>566.4</ele>
        <time>2017-08-28T12:30:29Z</time>
      </trkpt>
      <trkpt lat="43.89018" lon="7.44599">
        <ele>561.4</ele>
        <time>2017-08-28T12:30:43Z</time>
      </trkpt>
      <trkpt lat="43.89014" lon="7.44591">
        <ele>558.6</ele>
        <time>2017-08-28T12:30:50Z</time>
      </trkpt>
      <trkpt lat="43.89012" lon="7.44585">
        <ele>557.3</ele>
        <time>2017-08-28T12:30:54Z</time>
      </trkpt>
      <trkpt lat="43.8901" lon="7.44581">
        <ele>555.8</ele>
        <time>2017-08-28T12:30:57Z</time>
      </trkpt>
      <trkpt lat="43.89013" lon="7.44573">
        <ele>555.1</ele>
        <time>2017-08-28T12:31:03Z</time>
      </trkpt>
      <trkpt lat="43.89012" lon="7.44569">
        <ele>553.6</ele>
        <time>2017-08-28T12:31:06Z</time>
      </trkpt>
      <trkpt lat="43.89011" lon="7.44569">
        <ele>553.2</ele>
        <time>2017-08-28T12:31:07Z</time>
      </trkpt>
      <trkpt lat="43.89001" lon="7.44571">
        <ele>550.3</ele>
        <time>2017-08-28T12:31:16Z</time>
      </trkpt>
      <trkpt lat="43.88995" lon="7.44566">
        <ele>546.9</ele>
        <time>2017-08-28T12:31:22Z</time>
      </trkpt>
      <trkpt lat="43.88993" lon="7.44567">
        <ele>546.4</ele>
        <time>2017-08-28T12:31:25Z</time>
      </trkpt>
      <trkpt lat="43.88991" lon="7.44564">
        <ele>545.3</ele>
        <time>2017-08-28T12:31:28Z</time>
      </trkpt>
      <trkpt lat="43.88987" lon="7.44563">
        <ele>543.5</ele>
        <time>2017-08-28T12:31:40Z</time>
      </trkpt>
      <trkpt lat="43.88987" lon="7.44563">
        <ele>543.6</ele>
        <time>2017-08-28T12:31:51Z</time>
      </trkpt>
      <trkpt lat="43.8899" lon="7.44574">
        <ele>546</ele>
        <time>2017-08-28T12:32:00Z</time>
      </trkpt>
      <trkpt lat="43.88992" lon="7.4458">
        <ele>547.9</ele>
        <time>2017-08-28T12:32:04Z</time>
      </trkpt>
      <trkpt lat="43.88994" lon="7.44589">
        <ele>549.5</ele>
        <time>2017-08-28T12:32:12Z</time>
      </trkpt>
      <trkpt lat="43.8898" lon="7.44578">
        <ele>542.1</ele>
        <time>2017-08-28T12:32:28Z</time>
      </trkpt>
      <trkpt lat="43.88974" lon="7.44566">
        <ele>538.9</ele>
        <time>2017-08-28T12:32:37Z</time>
      </trkpt>
      <trkpt lat="43.88972" lon="7.44553">
        <ele>537.4</ele>
        <time>2017-08-28T12:32:50Z</time>
      </trkpt>
      <trkpt lat="43.88974" lon="7.44544">
        <ele>535.9</ele>
        <time>2017-08-28T12:32:56Z</time>
      </trkpt>
      <trkpt lat="43.88975" lon="7.4454">
        <ele>535.5</ele>
        <time>2017-08-28T12:32:59Z</time>
      </trkpt>
      <trkpt lat="43.8897" lon="7.44538">
        <ele>533.5</ele>
        <time>2017-08-28T12:33:04Z</time>
      </trkpt>
      <trkpt lat="43.88964" lon="7.44559">
        <ele>534.1</ele>
        <time>2017-08-28T12:33:21Z</time>
      </trkpt>
      <trkpt lat="43.88961" lon="7.44575">
        <ele>533.3</ele>
        <time>2017-08-28T12:33:34Z</time>
      </trkpt>
      <trkpt lat="43.88959" lon="7.44553">
        <ele>531.2</ele>
        <time>2017-08-28T12:33:49Z</time>
      </trkpt>
      <trkpt lat="43.88958" lon="7.44548">
        <ele>530.2</ele>
        <time>2017-08-28T12:33:52Z</time>
      </trkpt>
      <trkpt lat="43.88958" lon="7.44545">
        <ele>529.6</ele>
        <time>2017-08-28T12:33:54Z</time>
      </trkpt>
      <trkpt lat="43.88958" lon="7.44534">
        <ele>527.5</ele>
        <time>2017-08-28T12:34:02Z</time>
      </trkpt>
      <trkpt lat="43.88959" lon="7.44527">
        <ele>526.7</ele>
        <time>2017-08-28T12:34:06Z</time>
      </trkpt>
      <trkpt lat="43.88959" lon="7.4452">
        <ele>526</ele>
        <time>2017-08-28T12:34:10Z</time>
      </trkpt>
      <trkpt lat="43.88956" lon="7.4452">
        <ele>524.7</ele>
        <time>2017-08-28T12:34:12Z</time>
      </trkpt>
      <trkpt lat="43.8895" lon="7.44535">
        <ele>524.5</ele>
        <time>2017-08-28T12:34:26Z</time>
      </trkpt>
      <trkpt lat="43.88947" lon="7.44554">
        <ele>525.8</ele>
        <time>2017-08-28T12:34:37Z</time>
      </trkpt>
      <trkpt lat="43.88945" lon="7.44563">
        <ele>525.7</ele>
        <time>2017-08-28T12:34:44Z</time>
      </trkpt>
      <trkpt lat="43.88942" lon="7.44569">
        <ele>525.2</ele>
        <time>2017-08-28T12:34:52Z</time>
      </trkpt>
      <trkpt lat="43.88941" lon="7.44564">
        <ele>524.9</ele>
        <time>2017-08-28T12:34:56Z</time>
      </trkpt>
      <trkpt lat="43.88942" lon="7.44543">
        <ele>522.8</ele>
        <time>2017-08-28T12:35:11Z</time>
      </trkpt>
      <trkpt lat="43.88941" lon="7.44533">
        <ele>521</ele>
        <time>2017-08-28T12:35:19Z</time>
      </trkpt>
      <trkpt lat="43.88935" lon="7.44513">
        <ele>516.9</ele>
        <time>2017-08-28T12:35:32Z</time>
      </trkpt>
      <trkpt lat="43.88932" lon="7.44504">
        <ele>514.9</ele>
        <time>2017-08-28T12:35:38Z</time>
      </trkpt>
      <trkpt lat="43.88932" lon="7.44489">
        <ele>514.5</ele>
        <time>2017-08-28T12:35:48Z</time>
      </trkpt>
      <trkpt lat="43.88927" lon="7.44494">
        <ele>512.8</ele>
        <time>2017-08-28T12:35:54Z</time>
      </trkpt>
      <trkpt lat="43.88923" lon="7.44512">
        <ele>513.7</ele>
        <time>2017-08-28T12:36:07Z</time>
      </trkpt>
      <trkpt lat="43.8892" lon="7.44515">
        <ele>513.6</ele>
        <time>2017-08-28T12:36:10Z</time>
      </trkpt>
      <trkpt lat="43.88918" lon="7.44517">
        <ele>513.3</ele>
        <time>2017-08-28T12:36:12Z</time>
      </trkpt>
      <trkpt lat="43.88905" lon="7.44511">
        <ele>511.9</ele>
        <time>2017-08-28T12:36:27Z</time>
      </trkpt>
      <trkpt lat="43.88904" lon="7.44509">
        <ele>511.5</ele>
        <time>2017-08-28T12:36:29Z</time>
      </trkpt>
      <trkpt lat="43.8889" lon="7.44494">
        <ele>506.8</ele>
        <time>2017-08-28T12:36:43Z</time>
      </trkpt>
      <trkpt lat="43.88877" lon="7.44486">
        <ele>505.1</ele>
        <time>2017-08-28T12:36:55Z</time>
      </trkpt>
      <trkpt lat="43.88872" lon="7.44484">
        <ele>504.6</ele>
        <time>2017-08-28T12:36:58Z</time>
      </trkpt>
      <trkpt lat="43.88863" lon="7.44479">
        <ele>502.6</ele>
        <time>2017-08-28T12:37:06Z</time>
      </trkpt>
      <trkpt lat="43.88842" lon="7.44479">
        <ele>504.3</ele>
        <time>2017-08-28T12:37:21Z</time>
      </trkpt>
      <trkpt lat="43.88835" lon="7.44475">
        <ele>503.2</ele>
        <time>2017-08-28T12:37:27Z</time>
      </trkpt>
      <trkpt lat="43.88832" lon="7.44472">
        <ele>502</ele>
        <time>2017-08-28T12:37:30Z</time>
      </trkpt>
      <trkpt lat="43.88815" lon="7.44465">
        <ele>500.9</ele>
        <time>2017-08-28T12:37:44Z</time>
      </trkpt>
      <trkpt lat="43.88809" lon="7.4446">
        <ele>499.6</ele>
        <time>2017-08-28T12:37:49Z</time>
      </trkpt>
      <trkpt lat="43.88791" lon="7.44459">
        <ele>500.3</ele>
        <time>2017-08-28T12:38:04Z</time>
      </trkpt>
      <trkpt lat="43.88772" lon="7.44456">
        <ele>500.6</ele>
        <time>2017-08-28T12:38:18Z</time>
      </trkpt>
      <trkpt lat="43.88756" lon="7.44449">
        <ele>499.1</ele>
        <time>2017-08-28T12:38:34Z</time>
      </trkpt>
      <trkpt lat="43.88751" lon="7.44445">
        <ele>498.2</ele>
        <time>2017-08-28T12:38:40Z</time>
      </trkpt>
      <trkpt lat="43.88737" lon="7.4443">
        <ele>493.3</ele>
        <time>2017-08-28T12:38:54Z</time>
      </trkpt>
      <trkpt lat="43.88721" lon="7.44421">
        <ele>490.7</ele>
        <time>2017-08-28T12:39:08Z</time>
      </trkpt>
      <trkpt lat="43.88712" lon="7.44415">
        <ele>487.5</ele>
        <time>2017-08-28T12:39:16Z</time>
      </trkpt>
      <trkpt lat="43.88706" lon="7.44413">
        <ele>485.8</ele>
        <time>2017-08-28T12:39:21Z</time>
      </trkpt>
      <trkpt lat="43.88696" lon="7.44413">
        <ele>485.1</ele>
        <time>2017-08-28T12:39:34Z</time>
      </trkpt>
      <trkpt lat="43.88698" lon="7.44412">
        <ele>484.6</ele>
        <time>2017-08-28T12:39:38Z</time>
      </trkpt>
      <trkpt lat="43.88715" lon="7.4441">
        <ele>485</ele>
        <time>2017-08-28T12:39:53Z</time>
      </trkpt>
      <trkpt lat="43.88726" lon="7.44406">
        <ele>483.8</ele>
        <time>2017-08-28T12:40:05Z</time>
      </trkpt>
      <trkpt lat="43.88726" lon="7.44404">
        <ele>482.9</ele>
        <time>2017-08-28T12:40:07Z</time>
      </trkpt>
      <trkpt lat="43.8872" lon="7.44402">
        <ele>482</ele>
        <time>2017-08-28T12:40:13Z</time>
      </trkpt>
      <trkpt lat="43.88709" lon="7.44397">
        <ele>478.3</ele>
        <time>2017-08-28T12:40:24Z</time>
      </trkpt>
      <trkpt lat="43.88698" lon="7.44396">
        <ele>476.4</ele>
        <time>2017-08-28T12:40:34Z</time>
      </trkpt>
      <trkpt lat="43.88695" lon="7.44399">
        <ele>477.6</ele>
        <time>2017-08-28T12:40:37Z</time>
      </trkpt>
      <trkpt lat="43.88689" lon="7.44401">
        <ele>477.3</ele>
        <time>2017-08-28T12:40:42Z</time>
      </trkpt>
      <trkpt lat="43.88687" lon="7.44402">
        <ele>477.2</ele>
        <time>2017-08-28T12:40:44Z</time>
      </trkpt>
      <trkpt lat="43.88676" lon="7.44405">
        <ele>477</ele>
        <time>2017-08-28T12:40:54Z</time>
      </trkpt>
      <trkpt lat="43.8867" lon="7.44409">
        <ele>477.9</ele>
        <time>2017-08-28T12:41:05Z</time>
      </trkpt>
      <trkpt lat="43.88667" lon="7.44409">
        <ele>477.2</ele>
        <time>2017-08-28T12:41:17Z</time>
      </trkpt>
      <trkpt lat="43.88664" lon="7.44409">
        <ele>477.3</ele>
        <time>2017-08-28T12:41:34Z</time>
      </trkpt>
      <trkpt lat="43.88657" lon="7.44409">
        <ele>476.6</ele>
        <time>2017-08-28T12:41:40Z</time>
      </trkpt>
      <trkpt lat="43.88652" lon="7.44409">
        <ele>476.1</ele>
        <time>2017-08-28T12:41:43Z</time>
      </trkpt>
      <trkpt lat="43.88636" lon="7.44401">
        <ele>469.8</ele>
        <time>2017-08-28T12:41:56Z</time>
      </trkpt>
      <trkpt lat="43.88632" lon="7.44399">
        <ele>469.1</ele>
        <time>2017-08-28T12:41:59Z</time>
      </trkpt>
      <trkpt lat="43.88619" lon="7.44395">
        <ele>467</ele>
        <time>2017-08-28T12:42:12Z</time>
      </trkpt>
      <trkpt lat="43.88615" lon="7.44392">
        <ele>465.4</ele>
        <time>2017-08-28T12:42:16Z</time>
      </trkpt>
      <trkpt lat="43.88602" lon="7.44385">
        <ele>463.1</ele>
        <time>2017-08-28T12:42:26Z</time>
      </trkpt>
      <trkpt lat="43.88599" lon="7.44385">
        <ele>463.5</ele>
        <time>2017-08-28T12:42:29Z</time>
      </trkpt>
      <trkpt lat="43.88581" lon="7.44379">
        <ele>462.7</ele>
        <time>2017-08-28T12:42:43Z</time>
      </trkpt>
      <trkpt lat="43.88579" lon="7.4438">
        <ele>462.9</ele>
        <time>2017-08-28T12:42:45Z</time>
      </trkpt>
      <trkpt lat="43.88564" lon="7.44371">
        <ele>460.8</ele>
        <time>2017-08-28T12:43:00Z</time>
      </trkpt>
      <trkpt lat="43.88558" lon="7.44369">
        <ele>460.5</ele>
        <time>2017-08-28T12:43:05Z</time>
      </trkpt>
      <trkpt lat="43.88539" lon="7.4437">
        <ele>459.9</ele>
        <time>2017-08-28T12:43:22Z</time>
      </trkpt>
      <trkpt lat="43.88536" lon="7.4437">
        <ele>459.7</ele>
        <time>2017-08-28T12:43:25Z</time>
      </trkpt>
      <trkpt lat="43.88531" lon="7.44369">
        <ele>459.1</ele>
        <time>2017-08-28T12:43:29Z</time>
      </trkpt>
      <trkpt lat="43.8852" lon="7.44369">
        <ele>457.6</ele>
        <time>2017-08-28T12:43:45Z</time>
      </trkpt>
      <trkpt lat="43.88519" lon="7.44369">
        <ele>457.4</ele>
        <time>2017-08-28T12:43:51Z</time>
      </trkpt>
      <trkpt lat="43.88507" lon="7.44366">
        <ele>454.5</ele>
        <time>2017-08-28T12:44:00Z</time>
      </trkpt>
      <trkpt lat="43.885" lon="7.44367">
        <ele>454</ele>
        <time>2017-08-28T12:44:05Z</time>
      </trkpt>
      <trkpt lat="43.88494" lon="7.44367">
        <ele>453.1</ele>
        <time>2017-08-28T12:44:10Z</time>
      </trkpt>
      <trkpt lat="43.88474" lon="7.44365">
        <ele>448.8</ele>
        <time>2017-08-28T12:44:24Z</time>
      </trkpt>
      <trkpt lat="43.88467" lon="7.44369">
        <ele>448.8</ele>
        <time>2017-08-28T12:44:30Z</time>
      </trkpt>
      <trkpt lat="43.8845" lon="7.44378">
        <ele>448.9</ele>
        <time>2017-08-28T12:44:46Z</time>
      </trkpt>
      <trkpt lat="43.8843" lon="7.44375">
        <ele>444.8</ele>
        <time>2017-08-28T12:45:01Z</time>
      </trkpt>
      <trkpt lat="43.88428" lon="7.44375">
        <ele>444.5</ele>
        <time>2017-08-28T12:45:13Z</time>
      </trkpt>
      <trkpt lat="43.88428" lon="7.44375">
        <ele>444.5</ele>
        <time>2017-08-28T12:45:37Z</time>
      </trkpt>
      <trkpt lat="43.88428" lon="7.44376">
        <ele>444.6</ele>
        <time>2017-08-28T12:46:02Z</time>
      </trkpt>
      <trkpt lat="43.88429" lon="7.44376">
        <ele>444.9</ele>
        <time>2017-08-28T12:46:28Z</time>
      </trkpt>
      <trkpt lat="43.88429" lon="7.44376">
        <ele>444.9</ele>
        <time>2017-08-28T12:46:56Z</time>
      </trkpt>
      <trkpt lat="43.88429" lon="7.44378">
        <ele>445.3</ele>
        <time>2017-08-28T12:47:30Z</time>
      </trkpt>
      <trkpt lat="43.8843" lon="7.44379">
        <ele>445.7</ele>
        <time>2017-08-28T12:47:59Z</time>
      </trkpt>
      <trkpt lat="43.8843" lon="7.44379">
        <ele>445.9</ele>
        <time>2017-08-28T12:48:29Z</time>
      </trkpt>
      <trkpt lat="43.8843" lon="7.44379">
        <ele>445.9</ele>
        <time>2017-08-28T12:48:55Z</time>
      </trkpt>
      <trkpt lat="43.8843" lon="7.44379">
        <ele>446</ele>
        <time>2017-08-28T12:49:31Z</time>
      </trkpt>
      <trkpt lat="43.8843" lon="7.4438">
        <ele>446</ele>
        <time>2017-08-28T12:49:56Z</time>
      </trkpt>
      <trkpt lat="43.8843" lon="7.4438">
        <ele>446</ele>
        <time>2017-08-28T12:50:19Z</time>
      </trkpt>
      <trkpt lat="43.8843" lon="7.4438">
        <ele>446.1</ele>
        <time>2017-08-28T12:50:48Z</time>
      </trkpt>
      <trkpt lat="43.88429" lon="7.4438">
        <ele>446.1</ele>
        <time>2017-08-28T12:51:16Z</time>
      </trkpt>
      <trkpt lat="43.88429" lon="7.4438">
        <ele>446.1</ele>
        <time>2017-08-28T12:51:46Z</time>
      </trkpt>
      <trkpt lat="43.88429" lon="7.44381">
        <ele>446.2</ele>
        <time>2017-08-28T12:52:02Z</time>
      </trkpt>
      <trkpt lat="43.88419" lon="7.44382">
        <ele>444.7</ele>
        <time>2017-08-28T12:52:20Z</time>
      </trkpt>
      <trkpt lat="43.88412" lon="7.44383">
        <ele>443.4</ele>
        <time>2017-08-28T12:52:26Z</time>
      </trkpt>
      <trkpt lat="43.88398" lon="7.44393">
        <ele>441.7</ele>
        <time>2017-08-28T12:52:40Z</time>
      </trkpt>
      <trkpt lat="43.88387" lon="7.44413">
        <ele>439.8</ele>
        <time>2017-08-28T12:52:53Z</time>
      </trkpt>
      <trkpt lat="43.88386" lon="7.44419">
        <ele>439.6</ele>
        <time>2017-08-28T12:52:57Z</time>
      </trkpt>
      <trkpt lat="43.88387" lon="7.44422">
        <ele>439.6</ele>
        <time>2017-08-28T12:52:59Z</time>
      </trkpt>
      <trkpt lat="43.88394" lon="7.4444">
        <ele>442</ele>
        <time>2017-08-28T12:53:12Z</time>
      </trkpt>
      <trkpt lat="43.88395" lon="7.44441">
        <ele>442</ele>
        <time>2017-08-28T12:53:13Z</time>
      </trkpt>
      <trkpt lat="43.88399" lon="7.44459">
        <ele>441.8</ele>
        <time>2017-08-28T12:53:24Z</time>
      </trkpt>
      <trkpt lat="43.88399" lon="7.44466">
        <ele>440.6</ele>
        <time>2017-08-28T12:53:28Z</time>
      </trkpt>
      <trkpt lat="43.88401" lon="7.44501">
        <ele>436.9</ele>
        <time>2017-08-28T12:53:47Z</time>
      </trkpt>
      <trkpt lat="43.88401" lon="7.44522">
        <ele>436.2</ele>
        <time>2017-08-28T12:53:59Z</time>
      </trkpt>
      <trkpt lat="43.88398" lon="7.44543">
        <ele>435.3</ele>
        <time>2017-08-28T12:54:13Z</time>
      </trkpt>
      <trkpt lat="43.88397" lon="7.44546">
        <ele>435.2</ele>
        <time>2017-08-28T12:54:15Z</time>
      </trkpt>
      <trkpt lat="43.88377" lon="7.44543">
        <ele>427.1</ele>
        <time>2017-08-28T12:54:31Z</time>
      </trkpt>
      <trkpt lat="43.88358" lon="7.44527">
        <ele>417.5</ele>
        <time>2017-08-28T12:54:44Z</time>
      </trkpt>
      <trkpt lat="43.88339" lon="7.44517">
        <ele>412.8</ele>
        <time>2017-08-28T12:54:57Z</time>
      </trkpt>
      <trkpt lat="43.88322" lon="7.44513">
        <ele>410.9</ele>
        <time>2017-08-28T12:55:10Z</time>
      </trkpt>
      <trkpt lat="43.88313" lon="7.44512">
        <ele>410.6</ele>
        <time>2017-08-28T12:55:18Z</time>
      </trkpt>
      <trkpt lat="43.88296" lon="7.44512">
        <ele>411.8</ele>
        <time>2017-08-28T12:55:33Z</time>
      </trkpt>
      <trkpt lat="43.88282" lon="7.44508">
        <ele>411.5</ele>
        <time>2017-08-28T12:55:46Z</time>
      </trkpt>
      <trkpt lat="43.88265" lon="7.44504">
        <ele>411.3</ele>
        <time>2017-08-28T12:56:01Z</time>
      </trkpt>
      <trkpt lat="43.88243" lon="7.44498">
        <ele>410.2</ele>
        <time>2017-08-28T12:56:18Z</time>
      </trkpt>
      <trkpt lat="43.88224" lon="7.44504">
        <ele>411.2</ele>
        <time>2017-08-28T12:56:33Z</time>
      </trkpt>
      <trkpt lat="43.88209" lon="7.44514">
        <ele>410.2</ele>
        <time>2017-08-28T12:56:48Z</time>
      </trkpt>
      <trkpt lat="43.88191" lon="7.44523">
        <ele>408.9</ele>
        <time>2017-08-28T12:57:03Z</time>
      </trkpt>
      <trkpt lat="43.88186" lon="7.44524">
        <ele>408.2</ele>
        <time>2017-08-28T12:57:07Z</time>
      </trkpt>
      <trkpt lat="43.88178" lon="7.44526">
        <ele>407.4</ele>
        <time>2017-08-28T12:57:13Z</time>
      </trkpt>
      <trkpt lat="43.88155" lon="7.44528">
        <ele>403</ele>
        <time>2017-08-28T12:57:31Z</time>
      </trkpt>
      <trkpt lat="43.88134" lon="7.44542">
        <ele>400.4</ele>
        <time>2017-08-28T12:57:48Z</time>
      </trkpt>
      <trkpt lat="43.88123" lon="7.44564">
        <ele>400.9</ele>
        <time>2017-08-28T12:58:04Z</time>
      </trkpt>
      <trkpt lat="43.88106" lon="7.4458">
        <ele>398.2</ele>
        <time>2017-08-28T12:58:19Z</time>
      </trkpt>
      <trkpt lat="43.88088" lon="7.44605">
        <ele>394.3</ele>
        <time>2017-08-28T12:58:38Z</time>
      </trkpt>
      <trkpt lat="43.88082" lon="7.44619">
        <ele>393.6</ele>
        <time>2017-08-28T12:58:47Z</time>
      </trkpt>
      <trkpt lat="43.8808" lon="7.44625">
        <ele>393.8</ele>
        <time>2017-08-28T12:58:51Z</time>
      </trkpt>
      <trkpt lat="43.88066" lon="7.44645">
        <ele>392.3</ele>
        <time>2017-08-28T12:59:07Z</time>
      </trkpt>
      <trkpt lat="43.88049" lon="7.44663">
        <ele>389.3</ele>
        <time>2017-08-28T12:59:24Z</time>
      </trkpt>
      <trkpt lat="43.88029" lon="7.44676">
        <ele>384.4</ele>
        <time>2017-08-28T12:59:40Z</time>
      </trkpt>
      <trkpt lat="43.88008" lon="7.44697">
        <ele>381.1</ele>
        <time>2017-08-28T12:59:59Z</time>
      </trkpt>
      <trkpt lat="43.88002" lon="7.44702">
        <ele>379.5</ele>
        <time>2017-08-28T13:00:05Z</time>
      </trkpt>
      <trkpt lat="43.87993" lon="7.44712">
        <ele>377.6</ele>
        <time>2017-08-28T13:00:14Z</time>
      </trkpt>
      <trkpt lat="43.87988" lon="7.44717">
        <ele>376.6</ele>
        <time>2017-08-28T13:00:19Z</time>
      </trkpt>
      <trkpt lat="43.87986" lon="7.44719">
        <ele>376</ele>
        <time>2017-08-28T13:00:22Z</time>
      </trkpt>
      <trkpt lat="43.87968" lon="7.44734">
        <ele>371.5</ele>
        <time>2017-08-28T13:00:38Z</time>
      </trkpt>
      <trkpt lat="43.87953" lon="7.44744">
        <ele>367.3</ele>
        <time>2017-08-28T13:00:51Z</time>
      </trkpt>
      <trkpt lat="43.87938" lon="7.44758">
        <ele>363</ele>
        <time>2017-08-28T13:01:06Z</time>
      </trkpt>
      <trkpt lat="43.87926" lon="7.44764">
        <ele>359.1</ele>
        <time>2017-08-28T13:01:18Z</time>
      </trkpt>
      <trkpt lat="43.87921" lon="7.4476">
        <ele>357.7</ele>
        <time>2017-08-28T13:01:32Z</time>
      </trkpt>
      <trkpt lat="43.8792" lon="7.44753">
        <ele>357.9</ele>
        <time>2017-08-28T13:01:40Z</time>
      </trkpt>
      <trkpt lat="43.87926" lon="7.44726">
        <ele>360.6</ele>
        <time>2017-08-28T13:01:55Z</time>
      </trkpt>
      <trkpt lat="43.87927" lon="7.44705">
        <ele>360.6</ele>
        <time>2017-08-28T13:02:09Z</time>
      </trkpt>
      <trkpt lat="43.87929" lon="7.44689">
        <ele>360.7</ele>
        <time>2017-08-28T13:02:18Z</time>
      </trkpt>
      <trkpt lat="43.87933" lon="7.44661">
        <ele>359.8</ele>
        <time>2017-08-28T13:02:35Z</time>
      </trkpt>
      <trkpt lat="43.87942" lon="7.44639">
        <ele>359.4</ele>
        <time>2017-08-28T13:02:51Z</time>
      </trkpt>
      <trkpt lat="43.87957" lon="7.44624">
        <ele>359.5</ele>
        <time>2017-08-28T13:03:06Z</time>
      </trkpt>
      <trkpt lat="43.87957" lon="7.44624">
        <ele>359.6</ele>
        <time>2017-08-28T13:03:07Z</time>
      </trkpt>
      <trkpt lat="43.87964" lon="7.44621">
        <ele>360.2</ele>
        <time>2017-08-28T13:03:12Z</time>
      </trkpt>
      <trkpt lat="43.87963" lon="7.44618">
        <ele>359.2</ele>
        <time>2017-08-28T13:03:14Z</time>
      </trkpt>
      <trkpt lat="43.87961" lon="7.44616">
        <ele>358.4</ele>
        <time>2017-08-28T13:03:16Z</time>
      </trkpt>
      <trkpt lat="43.87952" lon="7.4462">
        <ele>357.7</ele>
        <time>2017-08-28T13:03:22Z</time>
      </trkpt>
      <trkpt lat="43.87936" lon="7.44629">
        <ele>356.3</ele>
        <time>2017-08-28T13:03:36Z</time>
      </trkpt>
      <trkpt lat="43.87923" lon="7.44635">
        <ele>354.2</ele>
        <time>2017-08-28T13:03:49Z</time>
      </trkpt>
      <trkpt lat="43.87921" lon="7.44636">
        <ele>353.7</ele>
        <time>2017-08-28T13:03:51Z</time>
      </trkpt>
      <trkpt lat="43.87908" lon="7.44643">
        <ele>351.4</ele>
        <time>2017-08-28T13:04:06Z</time>
      </trkpt>
      <trkpt lat="43.87889" lon="7.44658">
        <ele>347.8</ele>
        <time>2017-08-28T13:04:22Z</time>
      </trkpt>
      <trkpt lat="43.87881" lon="7.44661">
        <ele>346.1</ele>
        <time>2017-08-28T13:04:36Z</time>
      </trkpt>
      <trkpt lat="43.87867" lon="7.44677">
        <ele>343.5</ele>
        <time>2017-08-28T13:04:51Z</time>
      </trkpt>
      <trkpt lat="43.87856" lon="7.44701">
        <ele>342.4</ele>
        <time>2017-08-28T13:05:07Z</time>
      </trkpt>
      <trkpt lat="43.8785" lon="7.44715">
        <ele>341.5</ele>
        <time>2017-08-28T13:05:17Z</time>
      </trkpt>
      <trkpt lat="43.87847" lon="7.44725">
        <ele>341</ele>
        <time>2017-08-28T13:05:22Z</time>
      </trkpt>
      <trkpt lat="43.87842" lon="7.44733">
        <ele>340.3</ele>
        <time>2017-08-28T13:05:28Z</time>
      </trkpt>
      <trkpt lat="43.87824" lon="7.44731">
        <ele>341.3</ele>
        <time>2017-08-28T13:05:46Z</time>
      </trkpt>
      <trkpt lat="43.87822" lon="7.4473">
        <ele>341.8</ele>
        <time>2017-08-28T13:05:48Z</time>
      </trkpt>
      <trkpt lat="43.87815" lon="7.44729">
        <ele>343.4</ele>
        <time>2017-08-28T13:05:54Z</time>
      </trkpt>
      <trkpt lat="43.87808" lon="7.44727">
        <ele>345.2</ele>
        <time>2017-08-28T13:06:07Z</time>
      </trkpt>
      <trkpt lat="43.87802" lon="7.44729">
        <ele>346.3</ele>
        <time>2017-08-28T13:06:12Z</time>
      </trkpt>
      <trkpt lat="43.87796" lon="7.44728">
        <ele>347.5</ele>
        <time>2017-08-28T13:06:20Z</time>
      </trkpt>
      <trkpt lat="43.87792" lon="7.44731">
        <ele>348.2</ele>
        <time>2017-08-28T13:06:25Z</time>
      </trkpt>
      <trkpt lat="43.87785" lon="7.44737">
        <ele>349.1</ele>
        <time>2017-08-28T13:06:37Z</time>
      </trkpt>
      <trkpt lat="43.87785" lon="7.44737">
        <ele>349.1</ele>
        <time>2017-08-28T13:06:51Z</time>
      </trkpt>
      <trkpt lat="43.87782" lon="7.44732">
        <ele>349.8</ele>
        <time>2017-08-28T13:07:19Z</time>
      </trkpt>
      <trkpt lat="43.87776" lon="7.44732">
        <ele>350.8</ele>
        <time>2017-08-28T13:07:46Z</time>
      </trkpt>
      <trkpt lat="43.87776" lon="7.44732">
        <ele>350.8</ele>
        <time>2017-08-28T13:08:22Z</time>
      </trkpt>
      <trkpt lat="43.87776" lon="7.44736">
        <ele>350.7</ele>
        <time>2017-08-28T13:08:51Z</time>
      </trkpt>
      <trkpt lat="43.87777" lon="7.44737">
        <ele>350.6</ele>
        <time>2017-08-28T13:09:22Z</time>
      </trkpt>
      <trkpt lat="43.87773" lon="7.44744">
        <ele>350.7</ele>
        <time>2017-08-28T13:09:37Z</time>
      </trkpt>
      <trkpt lat="43.87771" lon="7.44747">
        <ele>350.8</ele>
        <time>2017-08-28T13:09:41Z</time>
      </trkpt>
      <trkpt lat="43.87769" lon="7.44747">
        <ele>351</ele>
        <time>2017-08-28T13:09:43Z</time>
      </trkpt>
      <trkpt lat="43.87769" lon="7.44748">
        <ele>351.1</ele>
        <time>2017-08-28T13:09:44Z</time>
      </trkpt>
      <trkpt lat="43.87769" lon="7.44749">
        <ele>351</ele>
        <time>2017-08-28T13:09:45Z</time>
      </trkpt>
      <trkpt lat="43.87769" lon="7.4475">
        <ele>351</ele>
        <time>2017-08-28T13:09:46Z</time>
      </trkpt>
      <trkpt lat="43.87769" lon="7.44752">
        <ele>350.9</ele>
        <time>2017-08-28T13:09:49Z</time>
      </trkpt>
      <trkpt lat="43.87769" lon="7.44752">
        <ele>350.9</ele>
        <time>2017-08-28T13:09:50Z</time>
      </trkpt>
      <trkpt lat="43.87769" lon="7.44752">
        <ele>350.9</ele>
        <time>2017-08-28T13:09:51Z</time>
      </trkpt>
      <trkpt lat="43.87769" lon="7.44752">
        <ele>350.9</ele>
        <time>2017-08-28T13:09:52Z</time>
      </trkpt>
      <trkpt lat="43.87766" lon="7.44756">
        <ele>351.2</ele>
        <time>2017-08-28T13:10:02Z</time>
      </trkpt>
      <trkpt lat="43.87766" lon="7.44756">
        <ele>351.2</ele>
        <time>2017-08-28T13:10:30Z</time>
      </trkpt>
      <trkpt lat="43.87757" lon="7.4475">
        <ele>352.3</ele>
        <time>2017-08-28T13:10:55Z</time>
      </trkpt>
      <trkpt lat="43.87757" lon="7.4475">
        <ele>352.3</ele>
        <time>2017-08-28T13:11:22Z</time>
      </trkpt>
      <trkpt lat="43.87758" lon="7.44752">
        <ele>352.1</ele>
        <time>2017-08-28T13:11:54Z</time>
      </trkpt>
      <trkpt lat="43.87757" lon="7.44751">
        <ele>352.2</ele>
        <time>2017-08-28T13:12:20Z</time>
      </trkpt>
      <trkpt lat="43.87757" lon="7.44751">
        <ele>352.2</ele>
        <time>2017-08-28T13:12:45Z</time>
      </trkpt>
      <trkpt lat="43.87754" lon="7.44753">
        <ele>352.5</ele>
        <time>2017-08-28T13:13:13Z</time>
      </trkpt>
      <trkpt lat="43.87752" lon="7.4475">
        <ele>352.8</ele>
        <time>2017-08-28T13:13:39Z</time>
      </trkpt>
      <trkpt lat="43.87752" lon="7.44749">
        <ele>352.9</ele>
        <time>2017-08-28T13:14:13Z</time>
      </trkpt>
      <trkpt lat="43.87752" lon="7.44749">
        <ele>352.9</ele>
        <time>2017-08-28T13:14:41Z</time>
      </trkpt>
      <trkpt lat="43.87752" lon="7.44748">
        <ele>352.9</ele>
        <time>2017-08-28T13:15:16Z</time>
      </trkpt>
      <trkpt lat="43.87752" lon="7.44748">
        <ele>352.8</ele>
        <time>2017-08-28T13:15:45Z</time>
      </trkpt>
      <trkpt lat="43.87753" lon="7.44748">
        <ele>352.8</ele>
        <time>2017-08-28T13:16:14Z</time>
      </trkpt>
      <trkpt lat="43.87753" lon="7.44748">
        <ele>352.8</ele>
        <time>2017-08-28T13:16:33Z</time>
      </trkpt>
      <trkpt lat="43.87754" lon="7.44748">
        <ele>352.7</ele>
        <time>2017-08-28T13:17:08Z</time>
      </trkpt>
      <trkpt lat="43.87754" lon="7.44748">
        <ele>352.7</ele>
        <time>2017-08-28T13:17:45Z</time>
      </trkpt>
      <trkpt lat="43.87754" lon="7.44748">
        <ele>352.6</ele>
        <time>2017-08-28T13:18:15Z</time>
      </trkpt>
      <trkpt lat="43.87754" lon="7.44748">
        <ele>352.6</ele>
        <time>2017-08-28T13:18:51Z</time>
      </trkpt>
      <trkpt lat="43.87755" lon="7.44748">
        <ele>352.6</ele>
        <time>2017-08-28T13:19:26Z</time>
      </trkpt>
      <trkpt lat="43.87754" lon="7.44747">
        <ele>352.7</ele>
        <time>2017-08-28T13:20:03Z</time>
      </trkpt>
      <trkpt lat="43.87754" lon="7.44746">
        <ele>352.7</ele>
        <time>2017-08-28T13:20:39Z</time>
      </trkpt>
      <trkpt lat="43.87754" lon="7.44746">
        <ele>352.7</ele>
        <time>2017-08-28T13:21:04Z</time>
      </trkpt>
      <trkpt lat="43.87755" lon="7.44746">
        <ele>352.7</ele>
        <time>2017-08-28T13:21:36Z</time>
      </trkpt>
      <trkpt lat="43.87755" lon="7.44746">
        <ele>352.7</ele>
        <time>2017-08-28T13:22:08Z</time>
      </trkpt>
      <trkpt lat="43.87755" lon="7.44746">
        <ele>352.6</ele>
        <time>2017-08-28T13:22:38Z</time>
      </trkpt>
      <trkpt lat="43.87755" lon="7.44746">
        <ele>352.7</ele>
        <time>2017-08-28T13:22:56Z</time>
      </trkpt>
    </trkseg>
  </trk>
</gpx>